[[{"header":{"parameterUnit":"m.s-1","parameterCategory":1,"la1":30.6,"la2":28.766,"lo1":-90.7593,"lo2":-88.6598,"dy":0.0162,"dx":0.0183,"nx":116,"ny":114,"refTime":"2024-06-09T00:00:00:Z","depth":0,"parameterNumber":2,"parameterNumberName":"U-component_of_WINDS"},"data":[0.0,0.0,0.0,0.0,0.0,0.0,0.0,0.0,0.0,0.0,0.0,0.0,0.0,0.0,0.0,0.0,0.0,0.0,0.0,0.0,0.0,0.0,0.0,0.0,0.0,0.0,0.0,0.0,0.0,0.0,0.0,0.0,0.0,0.0,0.0,0.0,0.0,0.0,0.0,0.0,0.0,0.0,0.0,0.0,0.0,0.0,0.0,0.0,0.0,0.0,0.0,0.0,0.0,0.0,0.0,0.0,0.0,0.0,0.0,0.0,0.0,0.0,0.0,0.0,0.0,0.0,0.0,0.0,0.0,0.0,0.0,0.0,0.0,0.0,0.0,0.0,0.0,0.0,0.0,0.0,0.0,0.0,0.0,0.0,0.0,0.0,0.0,0.0,0.0,0.0,0.0,0.0,0.0,0.0,0.0,0.0,0.0,0.0,0.0,0.0,0.0,0.0,0.0,0.0,0.0,0.0,0.0,0.0,0.0,0.0,0.0,0.0,0.0,0.0,0.0,0.0,0.0,0.0,0.0,0.0,0.0,0.0,0.0,0.0,0.0,0.0,0.0,0.0,0.0,0.0,0.0,0.0,0.0,0.0,0.0,0.0,0.0,0.0,0.0,0.0,0.0,0.0,0.0,0.0,0.0,0.0,0.0,0.0,0.0,0.0,0.0,0.0,0.0,0.0,0.0,0.0,0.0,0.0,0.0,0.0,0.0,0.0,0.0,0.0,0.0,0.0,0.0,0.0,0.0,0.0,0.0,0.0,0.0,0.0,0.0,0.0,0.0,0.0,0.0,0.0,0.0,0.0,0.0,0.0,0.0,0.0,0.0,0.0,0.0,0.0,0.0,0.0,0.0,0.0,0.0,0.0,0.0,0.0,0.0,0.0,0.0,0.0,0.0,0.0,0.0,0.0,0.0,0.0,0.0,0.0,0.0,0.0,0.0,0.0,0.0,0.0,0.0,0.0,0.0,0.0,0.0,0.0,0.0,0.0,0.0,0.0,0.0,0.0,0.0,0.0,0.0,0.0,0.0,0.0,0.0,0.0,0.0,0.0,0.0,0.0,0.0,0.0,0.0,0.0,0.0,0.0,0.0,0.0,0.0,0.0,0.0,0.0,0.0,0.0,0.0,0.0,0.0,0.0,0.0,0.0,0.0,0.0,0.0,0.0,0.0,0.0,0.0,0.0,0.0,0.0,0.0,0.0,0.0,0.0,0.0,0.0,0.0,0.0,0.0,0.0,0.0,0.0,0.0,0.0,0.0,0.0,0.0,0.0,0.0,0.0,0.0,0.0,0.0,0.0,0.0,0.0,0.0,0.0,0.0,0.0,0.0,0.0,0.0,0.0,0.0,0.0,0.0,0.0,0.0,0.0,0.0,0.0,0.0,0.0,0.0,0.0,0.0,0.0,0.0,0.0,0.0,0.0,0.0,0.0,0.0,0.0,0.0,0.0,0.0,0.0,0.0,0.0,0.0,0.0,0.0,0.0,0.0,0.0,0.0,0.0,0.0,0.0,0.0,0.0,0.0,0.0,0.0,0.0,0.0,0.0,0.0,0.0,0.0,0.0,0.0,0.0,0.0,0.0,0.0,0.0,0.0,0.0,0.0,0.0,0.0,0.0,0.0,0.0,0.0,0.0,0.0,0.0,0.0,0.0,0.0,0.0,0.0,0.0,0.0,0.0,0.0,0.0,0.0,0.0,0.0,0.0,0.0,0.0,0.0,0.0,0.0,0.0,0.0,0.0,0.0,0.0,0.0,0.0,0.0,0.0,0.0,0.0,0.0,0.0,0.0,0.0,0.0,0.0,0.0,0.0,0.0,0.0,0.0,0.0,0.0,0.0,0.0,0.0,0.0,0.0,0.0,0.0,0.0,0.0,0.0,0.0,0.0,0.0,0.0,0.0,0.0,0.0,0.0,0.0,0.0,0.0,0.0,0.0,0.0,0.0,0.0,0.0,0.0,0.0,0.0,0.0,0.0,0.0,0.0,0.0,0.0,0.0,0.0,0.0,0.0,0.0,0.0,0.0,0.0,0.0,0.0,0.0,0.0,0.0,0.0,0.0,0.0,0.0,0.0,0.0,0.0,0.0,0.0,0.0,0.0,0.0,0.0,0.0,0.0,0.0,0.0,0.0,0.0,0.0,0.0,0.0,0.0,0.0,0.0,0.0,0.0,0.0,0.0,0.0,0.0,0.0,0.0,0.0,0.0,0.0,0.0,0.0,0.0,0.0,0.0,0.0,0.0,0.0,0.0,0.0,0.0,0.0,0.0,0.0,0.0,0.0,0.0,0.0,0.0,0.0,0.0,0.0,0.0,0.0,0.0,0.0,0.0,0.0,0.0,0.0,0.0,0.0,0.0,0.0,0.0,0.0,0.0,0.0,0.0,0.0,0.0,0.0,0.0,0.0,0.0,0.0,0.0,0.0,0.0,0.0,0.0,0.0,0.0,0.0,0.0,0.0,0.0,0.0,0.0,0.0,0.0,0.0,0.0,0.0,0.0,0.0,0.0,0.0,0.0,0.0,0.0,0.0,0.0,0.0,0.0,0.0,0.0,0.0,0.0,0.0,0.0,0.0,0.0,0.0,0.0,0.0,0.0,0.0,0.0,0.0,0.0,0.0,0.0,0.0,0.0,0.0,0.0,0.0,0.0,0.0,0.0,0.0,0.0,0.0,0.0,0.0,0.0,0.0,0.0,0.0,0.0,0.0,0.0,0.0,0.0,0.0,0.0,0.0,0.0,0.0,0.0,0.0,0.0,0.0,0.0,0.0,0.0,0.0,0.0,0.0,0.0,0.0,0.0,0.0,0.0,0.0,0.0,0.0,0.0,0.0,0.0,0.0,0.0,0.0,0.0,0.0,0.0,0.0,0.0,0.0,0.0,0.0,0.0,0.0,0.0,0.0,0.0,0.0,0.0,0.0,0.0,0.0,0.0,0.0,0.0,0.0,0.0,0.0,0.0,0.0,0.0,0.0,0.0,0.0,0.0,0.0,0.0,0.0,0.0,0.0,0.0,0.0,0.0,0.0,0.0,0.0,0.0,0.0,0.0,0.0,0.0,0.0,0.0,0.0,0.0,0.0,0.0,0.0,0.0,0.0,0.0,0.0,0.0,0.0,0.0,0.0,0.0,0.0,0.0,0.0,0.0,0.0,0.0,0.0,0.0,0.0,0.0,0.0,0.0,0.0,0.0,0.0,0.0,0.0,0.0,0.0,0.0,0.0,0.0,0.0,0.0,0.0,0.0,0.0,0.0,0.0,0.0,0.0,0.0,0.0,0.0,0.0,0.0,0.0,0.0,0.0,0.0,0.0,0.0,0.0,0.0,0.0,0.0,0.0,0.0,0.0,0.0,0.0,0.0,0.0,0.0,0.0,0.0,0.0,0.0,0.0,0.0,0.0,0.0,0.0,0.0,0.0,0.0,0.0,0.0,0.0,0.0,0.0,0.0,0.0,0.0,0.0,0.0,0.0,0.0,0.0,0.0,0.0,0.0,0.0,0.0,0.0,0.0,0.0,0.0,0.0,0.0,0.0,0.0,0.0,0.0,0.0,0.0,0.0,0.0,0.0,0.0,0.0,0.0,0.0,0.0,0.0,0.0,0.0,0.0,0.0,0.0,0.0,0.0,0.0,0.0,0.0,0.0,0.0,0.0,0.0,0.0,0.0,0.0,0.0,0.0,0.0,0.0,0.0,0.0,0.0,0.0,0.0,0.0,0.0,0.0,0.0,0.0,0.0,0.0,0.0,0.0,0.0,0.0,0.0,0.0,0.0,0.0,0.0,0.0,0.0,0.0,0.0,0.0,0.0,0.0,0.0,0.0,0.0,0.0,0.0,0.0,0.0,0.0,0.0,0.0,0.0,0.0,0.0,0.0,0.0,0.0,0.0,0.0,0.0,0.0,0.0,0.0,0.0,0.0,0.0,0.0,0.0,0.0,0.0,0.0,0.0,0.0,0.0,0.0,0.0,0.0,0.0,0.0,0.0,0.0,0.0,0.0,0.0,0.0,0.0,0.0,0.0,0.0,0.0,0.0,0.0,0.0,0.0,0.0,0.0,0.0,0.0,0.0,0.0,0.0,0.0,0.0,0.0,0.0,0.0,0.0,0.0,0.0,0.0,0.0,0.0,0.0,0.0,0.0,0.0,0.0,0.0,0.0,0.0,0.0,0.0,0.0,0.0,0.0,0.0,0.0,0.0,0.0,0.0,0.0,0.0,0.0,0.0,0.0,0.0,0.0,0.0,0.0,0.0,0.0,0.0,0.0,0.0,0.0,0.0,0.0,0.0,0.0,0.0,0.0,0.0,0.0,0.0,0.0,0.0,0.0,0.0,0.0,0.0,0.0,0.0,0.0,0.0,0.0,0.0,0.0,0.0,0.0,0.0,0.0,0.0,0.0,0.0,0.0,0.0,0.0,0.0,0.0,0.0,0.0,0.0,0.0,0.0,0.0,0.0,0.0,0.0,0.0,0.0,0.0,0.0,0.0,0.0,0.0,0.0,0.0,0.0,0.0,0.0,0.0,0.0,0.0,0.0,0.0,0.0,0.0,0.0,0.0,0.0,0.0,0.0,0.0,0.0,0.0,0.0,0.0,0.0,0.0,0.0,0.0,0.0,0.0,0.0,0.0,0.0,0.0,0.0,0.0,0.0,0.0,0.0,0.0,0.0,0.0,0.0,0.0,0.0,0.0,0.0,0.0,0.0,0.0,0.0,0.0,0.0,0.0,0.0,0.0,0.0,0.0,0.0,0.0,0.0,0.0,0.0,0.0,0.0,0.0,0.0,0.0,0.0,0.0,0.0,0.0,0.0,0.0,0.0,0.0,0.0,0.0,0.0,0.0,0.0,0.0,0.0,0.0,0.0,0.0,0.0,0.0,0.0,0.0,0.0,0.0,0.0,0.0,0.0,0.0,0.0,0.0,0.0,0.0,0.0,0.0,0.0,0.0,0.0,0.0,0.0,0.0,0.0,0.0,0.0,0.0,0.0,0.0,0.0,0.0,0.0,0.0,0.0,0.0,0.0,0.0,0.0,0.0,0.0,0.0,0.0,0.0,0.0,0.0,0.0,0.0,0.0,0.0,0.0,0.0,0.0,0.0,0.0,0.0,0.0,0.0,0.0,0.0,0.0,0.0,0.0,0.0,0.0,0.0,0.0,0.0,0.0,0.0,0.0,0.0,0.0,0.0,0.0,0.0,0.0,0.0,0.0,0.0,0.0,0.0,0.0,0.0,0.0,0.0,0.0,0.0,0.0,0.0,0.0,0.0,0.0,0.0,0.0,0.0,0.0,0.0,0.0,0.0,0.0,0.0,0.0,0.0,0.0,0.0,0.0,0.0,0.0,0.0,0.0,0.0,0.0,0.0,0.0,0.0,0.0,0.0,0.0,0.0,0.0,0.0,0.0,0.0,0.0,0.0,0.0,0.0,0.0,0.0,0.0,0.0,0.0,0.0,0.0,0.0,0.0,0.0,0.0,0.0,0.0,0.0,0.0,0.0,0.0,0.0,0.0,0.0,0.0,0.0,0.0,0.0,0.0,0.0,0.0,0.0,0.0,0.0,0.0,0.0,0.0,0.0,0.0,0.0,0.0,0.0,0.0,0.0,0.0,0.0,0.0,0.0,0.0,0.0,0.0,0.0,0.0,0.0,0.0,0.0,0.0,0.0,0.0,0.0,0.0,0.0,0.0,0.0,0.0,0.0,0.0,0.0,0.0,0.0,0.0,0.0,0.0,0.0,0.0,0.0,0.0,0.0,0.0,0.0,0.0,0.0,0.0,0.0,0.0,0.0,0.0,0.0,0.0,0.0,0.0,0.0,0.0,0.0,0.0,0.0,0.0,0.0,0.0,0.0,0.0,0.0,0.0,0.0,0.0,0.0,0.0,0.0,0.0,0.0,0.0,0.0,0.0,0.0,0.0,0.0,0.0,0.0,0.0,0.0,0.0,0.0,0.0,0.0,0.0,0.0,0.0,0.0,0.0,0.0,0.0,0.0,0.0,0.0,0.0,0.0,0.0,0.0,0.0,0.0,0.0,0.0,0.0,0.0,0.0,0.0,0.0,0.0,0.0,0.0,0.0,0.0,0.0,0.0,0.0,0.0,0.0,0.0,0.0,1.3166,1.2479,0.0,0.0,0.0,0.0,0.0,0.0,0.0,0.0,0.0,0.0,0.0,0.0,0.0,0.0,0.0,0.0,0.0,0.0,0.0,0.0,0.0,0.0,0.0,0.8133,0.8094,0.8094,0.8094,0.8094,0.8094,0.0,0.0,0.0,0.0,0.0,0.7894,0.8214,0.8458,0.8614,0.926,0.9898,1.0543,1.0663,1.0105,0.8969,0.0,0.0,0.0,0.0,0.0,0.0,0.0,0.0,0.0,0.0,0.0,0.0,0.0,0.0,0.0,0.0,0.0,0.0,0.0,0.0,0.0,0.0,0.0,0.0,0.0,0.0,0.0,0.0,0.0,0.0,0.0,0.0,0.0,0.0,0.0,0.0,0.0,0.0,0.0,0.0,0.0,0.0,0.0,0.0,0.0,0.0,0.0,0.0,0.0,0.0,0.0,0.0,0.0,0.0,0.0,0.0,0.0,0.0,0.0,0.0,0.0,0.0,0.0,0.0,0.0,0.0,0.0,0.0,0.0,0.0,1.5359,1.4557,0.0,0.0,0.0,0.0,0.0,0.0,0.0,0.0,0.0,0.0,0.0,0.0,0.0,0.0,0.0,0.0,0.0,0.0,0.0,0.0,0.0,0.8238,0.8349,0.8307,0.8322,0.8445,0.8445,0.8395,0.8284,0.8264,0.0,0.0,0.0,0.7962,0.8082,0.8684,0.9214,0.9658,1.0504,1.1589,1.289,1.3802,1.3,1.081,1.1105,0.0,0.0,0.0,0.0,0.0,0.0,0.0,0.0,0.0,0.0,0.0,0.0,0.0,0.0,0.0,0.0,0.0,0.0,0.0,0.0,0.0,0.0,0.0,0.0,0.0,0.0,0.0,0.0,0.0,0.0,0.0,0.0,0.0,0.0,0.0,0.0,0.0,0.0,0.0,0.0,0.0,0.0,0.0,0.0,0.0,0.0,0.0,0.0,0.0,0.0,0.0,0.0,0.0,0.0,0.0,0.0,0.0,0.0,0.0,0.0,0.0,0.0,0.0,1.8008,1.859,1.907,1.9509,1.9697,1.9584,1.7756,1.6991,1.6989,1.5761,0.0,0.0,0.0,0.0,0.0,0.0,0.0,0.0,0.0,0.0,0.0,0.0,0.0,0.0,0.0,0.0,0.0,0.0,0.0,0.8404,0.8919,0.8969,0.9208,0.9789,0.9835,0.9592,0.9,0.8915,0.0,0.0,0.7935,0.8202,0.8845,0.9178,0.9777,1.0698,1.2477,1.396,1.518,1.5659,1.522,1.3987,1.3567,1.3416,1.3355,0.0,0.0,0.0,0.0,0.0,0.0,0.0,0.0,0.0,0.0,0.0,0.0,0.0,0.0,0.0,0.0,0.0,0.0,0.0,0.0,0.0,0.0,0.0,0.0,0.0,0.0,0.0,0.0,0.0,0.0,0.0,0.0,0.0,0.0,0.0,0.0,0.0,0.0,0.0,0.0,0.0,1.2596,1.4061,0.0,0.0,0.0,0.0,0.0,0.0,0.0,0.0,0.0,0.0,0.0,0.0,0.0,1.8115,1.8114,1.9407,2.0088,2.0177,2.1181,2.1945,2.2456,2.2531,2.2495,2.2377,2.2079,0.0,1.9271,1.8061,0.0,0.0,0.0,0.0,0.0,0.0,0.0,0.0,0.0,0.0,0.0,0.0,0.0,0.0,0.0,0.0,0.0,0.0,0.0,0.0,0.0,0.987,1.0452,1.0745,1.1153,1.1096,1.0371,1.027,0.9755,0.8667,0.8913,0.8968,0.873,1.0092,1.1672,1.3429,1.5228,1.634,1.6784,1.7317,1.7293,1.6844,1.6559,1.5511,1.3845,1.2651,0.0,0.0,0.0,0.0,0.0,0.0,0.0,0.0,0.0,0.0,0.0,0.0,0.0,0.0,0.0,0.0,0.0,0.0,0.0,0.0,0.0,0.0,0.0,0.0,0.0,0.0,0.0,0.0,0.0,0.0,0.0,0.0,0.0,0.0,0.0,0.0,0.0,0.0,0.0,1.305,1.4972,1.5463,1.5893,1.5976,0.0,0.0,0.0,0.0,0.0,0.0,0.0,0.0,0.0,1.956,1.9965,2.0284,2.0556,2.1475,2.2033,2.2228,2.2684,2.3204,2.3724,2.3724,2.3677,2.3626,2.3626,2.3102,2.2093,1.9908,1.8156,1.6763,0.0,0.0,0.0,0.0,1.5398,1.5719,0.0,0.0,0.0,0.0,0.0,0.0,0.0,0.0,0.0,0.0,0.0,0.0,0.9969,1.0948,1.1714,1.2064,1.2598,1.2593,1.1847,1.1575,1.0898,0.9666,0.979,0.9757,0.9454,1.1667,1.3877,1.6042,1.7248,1.7811,1.7787,1.8236,1.8397,1.8289,1.824,1.704,1.4986,1.3907,1.2957,1.2068,0.0,0.0,0.0,0.0,0.0,0.0,0.0,0.0,0.0,0.0,0.0,0.0,0.0,0.0,0.0,0.0,0.0,0.0,0.0,0.0,0.0,0.0,0.0,0.0,0.0,0.0,0.0,0.0,0.0,0.0,0.0,0.0,0.0,0.0,0.0,0.0,0.0,1.4839,1.6523,1.6695,1.7418,1.7618,0.0,0.0,0.0,0.0,0.0,0.0,1.9857,1.959,2.0138,2.1792,2.1829,2.1997,2.2342,2.2941,2.3361,2.3613,2.376,2.412,2.4631,2.4631,2.4615,2.4552,2.434,2.4205,2.3948,2.1456,1.9579,1.8192,1.7253,1.6785,1.6644,1.6771,1.7056,1.7444,0.0,0.0,0.0,0.0,0.0,0.0,0.0,0.0,0.0,0.0,0.0,1.0055,1.201,1.2296,1.2858,1.4134,1.428,1.3959,0.0,1.2515,1.1804,1.1024,1.0102,1.0365,1.1984,1.4189,1.6126,1.7763,1.7674,1.774,1.7987,1.8014,1.7835,1.7466,1.7456,1.7824,1.8366,1.6913,1.5535,1.419,0.0,0.0,0.0,0.0,0.0,0.0,0.0,0.0,0.0,0.0,0.0,0.0,0.0,0.0,0.0,0.0,0.0,0.0,0.0,0.0,0.0,0.0,0.0,0.0,0.0,0.0,0.0,0.0,0.0,0.0,0.0,0.0,0.0,0.0,0.0,0.0,0.0,0.0,0.0,1.8223,1.8869,0.0,0.0,0.0,0.0,1.9188,2.0196,2.1108,2.1737,2.1747,2.2219,2.3262,2.328,2.3317,2.3334,2.3858,2.4141,2.4177,2.475,2.5308,2.5807,2.5807,2.572,2.5486,2.4726,2.4249,2.3907,2.2609,2.1651,2.0871,1.9558,1.8646,1.8096,1.8171,1.821,1.8255,0.0,0.0,0.0,0.0,0.0,0.8293,0.8293,0.8293,0.839,0.8618,0.9825,1.0925,1.1624,1.3732,1.5307,1.5763,1.6254,1.618,1.5386,1.4255,1.3451,1.3112,1.2745,1.3316,1.4933,1.5782,1.6738,1.7841,1.7974,1.8248,1.8635,1.8377,1.8385,1.8609,1.8609,1.8559,1.8354,1.7007,1.5937,1.5029,1.3764,1.2683,0.0,0.0,0.0,0.0,0.0,0.0,0.0,0.0,0.0,0.0,0.0,0.0,0.0,0.0,0.0,0.0,0.0,0.0,0.0,0.0,0.0,0.0,0.0,0.0,0.0,0.0,0.0,0.0,0.0,0.0,0.0,0.0,0.0,0.0,0.0,0.0,0.0,1.9563,2.0511,0.0,2.0715,2.0683,2.0919,2.1508,2.155,2.1933,2.2822,2.2531,2.3012,2.4443,2.4447,2.4728,2.5322,2.5859,2.6068,2.5937,2.616,2.6372,2.6535,2.6535,2.6505,2.6395,2.5543,2.513,2.4914,2.3404,2.2101,2.0948,1.974,1.9129,1.8914,1.8926,1.8951,1.8981,0.0,0.0,0.0,0.0,0.8296,0.8293,0.8293,0.8293,0.8473,0.895,1.0396,1.1744,1.2654,1.5042,1.6786,1.7277,1.7543,1.7445,1.6884,1.5521,1.4676,1.4544,1.4624,1.5324,1.6712,1.6803,1.7315,1.8271,1.8268,1.8552,1.91,1.883,1.8948,1.9369,1.9369,1.9099,1.8576,1.7692,1.6726,1.5737,1.4946,1.42,1.3428,0.0,0.0,0.0,0.0,0.0,0.0,0.0,0.0,0.0,0.0,0.0,0.0,0.0,0.0,0.0,0.0,0.0,0.0,0.0,0.0,0.0,0.0,0.0,0.0,0.0,0.0,0.0,0.0,0.0,0.0,0.0,0.0,0.0,0.0,0.0,1.9834,2.0752,2.1892,2.2507,2.2255,2.2485,2.2753,2.299,2.2959,2.3186,2.3843,2.3704,2.4165,2.5401,2.5573,2.5941,2.6566,2.6929,2.7036,2.6898,2.6898,2.6898,2.6898,2.6602,2.6458,2.6401,2.5244,2.4824,2.4838,2.3316,2.224,2.1414,2.0533,2.0185,2.0185,2.0185,2.0185,2.0204,0.0,0.0,0.0,0.8293,0.8293,0.8293,0.8293,0.8293,0.8792,1.0191,1.0984,1.2478,1.5228,1.6205,1.721,1.8543,1.8094,1.7658,1.7505,1.6173,1.5357,1.5248,1.5541,1.62,1.7254,1.7322,1.7943,1.9211,1.8548,1.8607,1.9328,1.9328,1.9409,1.9568,1.9557,1.9465,1.9316,1.9188,1.81,1.6464,1.6104,1.5613,1.4971,0.0,0.0,0.0,0.0,0.0,0.0,0.0,0.0,0.0,0.0,0.0,0.0,0.0,0.0,0.0,0.0,0.0,0.0,0.0,0.0,0.0,0.0,0.0,0.0,0.0,0.0,0.0,0.0,0.0,0.0,0.0,0.0,0.0,1.7596,1.8767,2.0197,2.1858,2.299,2.3416,2.2864,2.4662,2.5219,2.3608,2.451,2.5046,2.4869,2.5357,2.5779,2.6105,2.6652,2.6922,2.6922,2.6934,2.6946,2.6946,2.6946,2.6946,2.6889,2.6016,2.563,2.5503,2.3848,2.3361,2.3628,2.2434,2.2168,2.249,2.206,2.1905,2.1905,2.1905,2.1905,2.1926,0.0,0.0,0.8293,0.8293,0.8293,0.8293,0.8293,0.8293,0.8625,0.9548,1.1151,1.2683,1.3948,1.6496,1.8078,1.7983,1.8216,1.8111,1.7536,1.614,1.5586,1.6187,1.7459,1.8337,1.88,1.8435,1.8578,1.927,1.8981,1.9229,1.995,1.995,2.0283,2.0875,2.078,2.0445,1.9939,1.981,1.9385,1.8723,1.7861,1.7441,1.724,0.0,0.0,0.0,0.0,0.0,0.0,0.0,0.0,0.0,0.0,0.0,0.0,0.0,0.0,0.0,0.0,0.0,0.0,0.0,0.0,0.0,0.0,0.0,0.0,0.0,0.0,0.0,0.0,0.0,0.0,0.0,0.0,1.9335,1.9014,2.045,2.1951,2.3105,2.3835,2.4481,2.5051,2.5106,2.5248,2.5615,2.5758,2.5976,2.6293,2.6473,2.6569,2.6676,2.7205,2.7493,2.7493,2.7866,2.8058,2.8058,2.8058,2.7731,2.7112,2.6872,2.6397,2.5683,2.4577,2.4177,2.4196,2.3198,2.284,2.2869,2.2168,2.1905,2.1905,2.1905,2.1905,2.1905,0.0,0.8293,0.8293,0.8293,0.8293,0.8293,0.8293,0.8293,0.8669,0.9686,1.1388,1.2983,1.4242,1.6711,1.8236,1.8125,1.8407,1.8293,1.7544,1.646,1.6327,1.7435,1.831,1.8937,1.9321,1.9051,1.9119,1.958,1.9454,1.9793,2.0527,2.0505,2.0787,2.1314,2.118,2.0884,2.0481,2.041,2.0401,2.0338,1.946,1.8946,1.8623,1.7731,1.7293,1.7075,1.6466,1.6124,1.586,1.5374,0.0,0.0,0.0,0.0,0.0,0.0,0.0,0.0,0.0,0.0,0.0,0.0,0.0,0.0,0.0,0.0,0.0,0.0,0.0,0.0,0.0,0.0,0.0,0.0,1.9991,2.1025,2.111,2.2153,2.3256,2.4251,2.4729,2.5277,2.6099,2.5867,2.5942,2.662,2.6518,2.6568,2.6873,2.7102,2.7253,2.7253,2.7757,2.8034,2.8034,2.8334,2.849,2.849,2.8139,2.7704,2.7165,2.6402,2.5778,2.52,2.4306,2.3907,2.3875,2.3331,2.3091,2.3042,0.0,0.0,0.0,0.0,2.2412,2.2412,0.0,0.8293,0.8293,0.8293,0.8293,0.8293,0.8293,0.8293,0.8808,1.0223,1.1632,1.3252,1.5276,1.6806,1.7904,1.8417,1.854,1.8302,1.7618,1.7106,1.7365,1.858,1.8498,1.8675,1.9214,1.9341,1.963,2.0095,1.9976,2.0262,2.0997,2.0858,2.0932,2.1168,2.0966,2.0919,2.0975,2.0962,2.1194,2.1525,2.0977,2.0285,1.9535,1.9218,1.8687,1.8048,1.7731,1.7244,1.6728,1.6587,0.0,0.0,0.0,0.0,0.0,0.0,0.0,0.0,0.0,0.0,0.0,0.0,0.0,0.0,0.0,0.0,0.0,0.0,0.0,0.0,0.0,0.0,0.0,0.0,2.1535,2.2423,2.3441,2.3778,2.4273,2.5228,2.5544,2.589,2.6419,2.6721,2.6937,2.6983,2.6982,2.7018,2.7066,0.0,0.0,0.0,0.0,2.849,2.849,2.849,2.8451,2.8339,2.7571,2.7092,2.6846,2.5232,2.4434,2.4306,2.3462,2.3091,2.3091,2.3091,2.3091,2.3091,2.3091,2.3091,2.3091,2.3091,2.3091,2.3091,0.0,0.8293,0.8293,0.8293,0.8293,0.8293,0.8293,0.8293,0.8808,1.0223,1.1632,1.3094,1.4638,1.6537,1.7503,1.7052,1.7931,1.8384,1.8084,1.8217,1.8272,1.8223,1.8849,1.927,1.9434,1.9827,2.0253,2.0742,2.0592,2.0657,2.0912,2.0411,2.0472,2.1019,2.0445,2.0679,2.1459,2.1352,2.1817,2.2592,2.2372,2.1861,2.1176,2.0589,2.0159,1.9874,1.9694,1.9288,1.8808,1.8722,1.8262,1.7613,1.7013,0.0,0.0,0.0,0.0,0.0,0.0,0.0,0.0,0.0,0.0,0.0,0.0,0.0,0.0,0.0,0.0,0.0,0.0,0.0,0.0,2.1604,2.2896,2.3969,2.4664,2.5029,2.5315,2.5519,2.5958,2.6398,2.6761,2.6858,2.7077,2.7505,2.7553,2.7733,2.8166,2.8286,2.8346,2.8346,2.8462,2.849,2.849,2.849,2.8159,2.745,2.7287,0.0,2.4999,2.4659,2.4101,2.3375,2.3178,2.3091,2.3091,2.3091,2.3091,2.3091,2.3091,2.3091,2.3091,2.3091,2.3091,2.3091,0.8293,0.8293,0.8293,0.8293,0.8293,0.8293,0.8293,0.8293,0.8808,1.0223,1.13,1.2494,1.3895,1.5305,1.6,1.5637,1.6734,1.7817,1.8692,1.8531,1.8458,1.8589,1.9214,1.9535,1.9501,2.0283,2.0777,2.0961,2.0873,2.0873,2.0936,2.0621,2.0634,2.0961,2.1132,2.1314,2.1533,2.2004,2.2425,2.2799,2.2649,2.2521,2.2323,2.1685,2.1176,2.0744,2.0313,2.0006,1.9737,1.9339,1.8981,1.8642,1.8277,1.7629,1.6789,0.0,0.0,0.0,0.0,0.0,0.0,0.0,0.0,0.0,0.0,0.0,0.0,0.0,0.0,1.8869,0.0,0.0,2.194,2.3109,2.39,2.4551,2.5114,2.5348,2.5496,2.559,2.5968,2.6433,2.6865,2.7127,2.7529,2.8058,2.8094,2.8214,2.8498,2.849,2.849,2.849,2.8079,2.7846,2.7846,2.7377,2.6937,2.6494,2.607,2.5379,2.4477,2.4005,2.3539,2.3091,2.3091,2.3091,2.3091,2.3091,2.3091,2.3091,2.3091,2.3091,2.3091,2.3091,2.3091,2.3091,0.8293,0.8293,0.8293,0.8293,0.8293,0.8293,0.8293,0.8293,0.8761,1.0038,1.0906,1.1893,1.3162,1.4084,1.4689,1.4922,1.5975,1.7381,1.918,1.8753,1.8717,1.9378,1.9754,1.9916,1.9811,2.0833,2.1229,2.0972,2.0853,2.0787,2.0763,2.0584,2.0622,2.0853,2.1577,2.175,2.1545,2.2316,2.2653,2.2649,2.2523,2.2723,2.3035,2.2524,2.1852,2.1076,2.0496,2.0152,1.9904,1.9304,1.9073,1.9045,1.9045,1.8525,1.7784,1.705,1.6318,0.0,0.0,0.0,0.0,0.0,0.0,0.0,0.0,0.0,1.7735,1.9207,2.0093,2.092,2.193,2.2632,2.3363,2.4348,2.4585,2.4801,2.5252,2.5312,2.5365,2.5518,2.5967,2.6424,2.6849,2.7481,2.8034,2.8474,2.849,2.849,2.849,2.849,2.8431,2.8259,2.7583,2.7124,2.6928,2.6142,2.5673,2.5537,2.4776,2.4348,2.4198,2.343,2.3091,2.3091,2.3091,2.3091,2.3091,2.3091,2.3091,2.3091,2.3091,2.3091,2.3091,2.3091,2.3091,2.3091,0.0,0.8293,0.8293,0.8293,0.8293,0.8293,0.8293,0.8293,0.8594,0.9413,1.0618,1.1715,1.252,1.3794,1.5036,1.6111,1.6978,1.7984,1.921,1.9487,1.9876,2.049,2.0746,2.0873,2.0921,2.1578,2.1582,2.0913,2.0371,2.0047,1.9914,1.9379,1.9636,2.0526,2.0231,2.0737,2.1825,2.1535,2.1845,2.2512,2.2386,2.2632,2.3082,2.2883,2.2062,2.1009,2.0926,2.0185,1.9212,1.913,1.8988,1.8831,1.8831,1.865,1.8273,1.7478,0.0,1.6913,1.6123,1.634,1.705,1.813,1.8402,1.899,0.0,0.0,2.1056,2.1553,2.2471,2.3118,2.2921,2.3658,2.4348,2.4477,2.4898,2.524,2.5282,2.5312,2.5312,2.5329,2.6214,2.6825,2.6885,2.7818,2.845,2.851,2.849,2.849,2.849,2.849,2.8139,2.7368,2.7246,2.6805,2.5965,2.5673,2.5221,2.4637,2.4317,2.3822,2.3244,2.3157,2.3091,2.3091,2.3091,2.3091,2.3091,2.3091,2.3091,2.3091,2.3091,2.3091,2.3091,2.3091,2.3091,2.3091,0.0,0.8293,0.8293,0.8293,0.8293,0.8293,0.8293,0.8293,0.8562,0.9306,0.9883,1.065,1.1731,1.2762,1.3898,1.5177,1.628,1.7434,1.8687,1.9383,1.9849,2.0106,2.068,2.1004,2.1044,2.1936,2.2249,2.1947,2.0986,2.0468,2.0303,1.9438,1.9397,2.0108,2.05,2.0972,2.1513,2.1777,2.1888,2.188,2.2039,2.2257,2.244,2.2271,2.1632,2.083,2.083,2.0255,0.0,0.0,1.8697,1.863,1.863,1.8484,1.8256,1.7928,1.7989,0.0,1.856,1.8838,1.9336,0.0,2.1097,2.164,2.2722,2.2813,2.2714,2.2889,2.3569,2.4068,2.3898,2.4465,2.4958,0.0,2.542,2.5661,2.5348,2.5576,2.5661,2.5348,2.5967,2.6556,2.6861,2.7589,2.8154,2.8486,2.849,2.8279,2.7765,2.7745,2.7275,2.6246,2.5673,2.5147,2.4638,2.4006,2.3562,2.3278,2.3321,2.32,2.2925,2.3057,2.3091,2.3091,2.3091,2.3091,2.3091,2.3091,2.3091,2.3091,2.3091,2.3091,2.3091,2.3091,2.3091,2.3091,0.0,0.8325,0.8338,0.8299,0.8325,0.8338,0.8299,0.8325,0.8526,0.9024,0.9458,1.0236,1.1562,1.2158,1.2942,1.4099,1.5399,1.6713,1.8013,1.9057,1.9772,2.0134,2.0742,2.1206,2.1436,2.2247,2.2667,2.2637,2.1612,2.0884,2.0414,1.9631,1.9364,1.955,2.0297,2.0633,2.0704,2.1285,2.1303,2.1015,2.1594,2.1769,2.1692,2.1692,2.1126,2.0343,2.0343,1.9851,0.0,0.0,1.8212,1.8168,1.8168,1.8143,1.814,1.8315,1.8693,1.9201,1.9871,2.0415,0.0,2.2291,2.3058,2.3559,2.3799,2.393,2.3963,2.3865,2.4202,2.4501,2.4501,2.4813,2.5066,2.5066,2.5661,2.5913,2.5384,2.5769,2.5901,2.5354,2.5648,2.6093,2.6628,2.7301,2.7926,2.8454,2.8219,2.7753,2.7133,2.6794,2.6142,2.5062,2.4371,2.3812,2.342,2.2674,2.2353,2.2397,2.2596,2.2737,2.2803,2.3013,2.3091,2.3091,2.3091,2.3091,2.3091,2.3091,2.3091,2.3069,2.2796,2.2709,2.2687,2.2391,2.2479,2.2709,0.0,0.0,0.8453,0.8319,0.8406,0.845,0.8316,0.8409,0.8463,0.8344,0.964,1.1051,1.233,1.2428,1.2686,1.337,1.4713,1.6042,1.7242,1.8633,1.9961,2.1202,2.1276,2.169,2.2531,2.2581,2.258,2.2512,2.195,2.1011,1.9728,1.9704,1.9377,1.8836,1.8864,1.9056,1.9352,1.9314,1.9509,1.9943,2.0992,2.1217,2.0986,2.1505,2.0756,1.9447,1.9447,0.0,1.766,1.7646,1.7502,1.7342,1.7342,1.7607,0.0,1.8616,1.9206,1.9573,1.9086,0.0,2.176,2.3051,2.382,2.4438,2.5089,2.5244,2.5097,2.4572,2.4494,2.4501,2.4501,2.4513,2.4525,2.4525,2.542,2.5913,2.5384,2.5769,2.5901,2.5354,2.5306,2.554,0.0,2.7073,2.7926,2.8454,2.7467,2.6833,2.6812,2.5755,2.4755,2.3877,2.3812,2.3377,2.2463,2.223,2.2207,2.2397,2.2419,2.2552,2.2803,2.3013,2.3091,2.3091,2.3091,2.3091,2.3091,2.3091,2.3091,2.3003,2.2104,2.1739,2.1619,2.0647,2.0917,2.1739,0.0,0.0,0.0,0.8574,0.8601,0.8617,0.8571,0.8528,0.8688,0.9229,1.0478,0.0,0.0,0.0,0.0,0.0,1.4649,1.5778,1.6581,1.8331,1.9519,1.995,2.0835,2.144,2.1725,2.2046,2.2232,2.2302,2.1277,2.0589,2.0225,1.9493,1.9279,1.9454,1.9375,1.9541,1.9913,2.0065,1.9737,1.9235,2.0304,2.0186,1.9396,1.9666,1.9159,1.8238,0.0,1.7632,1.7325,1.6785,1.6829,1.7105,1.7105,0.0,0.0,1.91,1.9266,1.9415,2.0843,0.0,2.261,2.42,2.5059,2.5571,2.5833,2.5619,2.5209,2.4621,2.3977,2.3604,2.397,2.3737,2.3725,2.4393,2.539,2.5851,2.5065,2.6232,2.6413,2.4404,2.4958,0.0,0.0,0.0,0.0,2.6799,2.6001,2.5284,2.483,2.4446,2.3769,2.2718,2.2674,2.2432,2.1932,2.1874,2.1963,2.2207,2.2508,2.2772,2.2991,2.3079,2.2753,2.217,2.217,2.1784,2.1186,2.1186,2.1186,2.1141,2.0827,2.0706,2.0661,2.0322,2.0014,1.9855,0.0,0.0,0.0,0.0,0.0,0.0,0.0,0.0,0.0,0.0,0.0,0.0,0.0,0.0,0.0,0.0,0.0,1.4922,1.5542,1.7227,1.83,1.8546,1.9576,2.0266,2.0512,2.0789,2.1189,2.1737,2.0929,2.046,2.0334,1.9642,1.9234,1.9041,1.9063,1.9099,1.9192,1.9716,1.9423,1.8711,1.9789,1.9536,1.8529,1.8562,1.8116,0.0,1.6615,1.6413,1.6446,1.5942,1.6186,1.6665,1.6627,1.7426,1.8531,1.9188,1.9532,2.0059,2.1761,2.2569,2.3299,2.488,2.5552,2.5836,2.5896,2.5473,2.488,2.4116,2.3135,2.2538,2.2875,2.2502,2.2534,2.3773,2.5011,2.5587,2.4892,2.6208,2.6372,2.4097,2.4576,2.4901,0.0,0.0,0.0,2.5833,2.5062,2.4325,2.3823,2.341,2.2818,2.1985,2.1963,2.1874,2.1696,2.1696,2.1874,2.2207,2.2605,2.2728,2.2599,2.2599,2.2072,2.1172,2.1172,2.0804,2.0209,2.0209,2.0209,2.0164,1.9824,1.9695,1.9673,1.9307,1.878,1.8403,0.0,0.0,0.0,0.0,0.0,0.0,0.0,0.0,0.0,0.0,0.0,0.0,0.0,0.0,0.0,0.0,0.0,0.0,1.4227,1.5474,1.6475,1.7138,1.7754,1.8389,1.9022,1.8979,1.9539,2.0764,2.0755,2.0499,2.0045,2.0025,1.9234,1.7831,1.8023,1.7862,1.7465,1.8341,1.8524,1.8307,1.9345,1.9157,1.8214,1.8105,1.7579,1.6737,1.5603,1.5149,1.5093,1.5161,0.0,0.0,0.0,0.0,1.9218,1.8998,2.0035,2.1373,2.1834,2.2714,2.38,2.5037,2.5291,2.5249,2.5304,2.4832,2.4105,2.3127,2.2041,2.1284,0.0,0.0,2.1032,2.2631,2.4181,2.5069,2.475,2.5672,2.5811,0.0,0.0,0.0,0.0,0.0,0.0,2.5535,0.0,2.3921,2.3714,2.2674,2.1985,2.1718,2.1696,2.1696,2.1696,2.1718,2.1976,2.2419,2.264,2.2388,2.1695,2.165,2.1083,2.0119,2.0119,2.0096,2.0051,2.0051,2.0051,1.996,1.9055,1.8727,1.8611,1.7652,1.7302,1.7442,0.0,0.0,0.0,0.0,0.0,0.0,0.0,0.0,0.0,0.0,0.0,0.0,0.0,0.0,0.0,0.0,0.0,0.0,1.3914,1.5163,1.6129,1.6655,1.73,1.7866,1.8342,1.8293,1.8432,1.8807,1.8764,1.8984,1.9429,1.9114,1.9144,1.9394,1.874,1.8622,1.887,1.8799,1.8133,1.7164,1.7797,1.7119,1.5754,1.6178,1.5901,1.5278,0.0,0.0,0.0,0.0,0.0,0.0,0.0,1.843,1.902,0.0,0.0,2.1084,2.2496,2.314,2.36,2.4331,2.4419,2.4352,2.4348,2.3546,2.2606,2.1945,2.0634,1.96,0.0,0.0,0.0,2.1263,2.2679,0.0,2.3536,2.4922,0.0,2.3171,0.0,2.3813,2.3005,2.2724,0.0,0.0,2.3014,2.2544,2.2258,2.2154,2.1985,2.1718,2.1696,2.1696,2.1696,2.2043,2.2375,2.2684,2.2201,2.1882,2.1672,2.0917,2.0059,1.9155,1.9155,1.8742,1.8033,1.8033,1.8033,1.801,1.7785,1.7668,1.7652,1.7396,1.7302,1.7349,0.0,0.0,0.0,0.0,0.0,0.0,0.0,0.0,0.0,0.0,0.0,0.0,0.0,0.0,0.0,0.0,0.0,0.0,0.0,1.4315,1.5006,1.5259,1.6167,1.6718,1.6818,1.7088,1.7309,1.7489,1.742,1.7774,1.8488,1.8242,1.8266,1.8534,1.8041,1.783,1.7853,1.7661,1.7051,0.0,0.0,1.6087,1.5047,1.5351,1.5172,0.0,0.0,0.0,0.0,0.0,0.0,1.7633,1.8692,1.9283,1.9742,2.0622,0.0,2.188,2.299,2.3514,2.3826,2.412,2.3988,2.3595,2.2936,2.2089,2.1145,2.0051,1.8935,0.0,1.8276,1.8023,0.0,0.0,0.0,0.0,2.2726,2.403,2.4399,0.0,2.3282,0.0,2.2834,2.2737,2.2728,0.0,2.2473,2.2205,2.2011,2.2074,2.203,2.1874,2.1763,2.1763,2.1874,2.2331,2.2432,2.2135,2.1837,2.1239,2.0399,1.9832,1.9055,1.8126,1.8126,1.7808,1.7302,1.7302,1.7302,1.7302,1.7302,1.7302,1.7302,1.7302,1.7302,1.7302,0.0,0.0,0.0,0.0,0.0,0.0,0.0,0.0,0.0,0.0,0.0,0.0,0.0,0.0,0.0,0.0,0.0,0.0,0.0,0.0,1.3695,1.3756,1.4905,1.5429,1.5211,1.5855,1.632,1.6547,1.6493,1.6796,1.7451,1.7341,1.7113,1.6792,1.6714,1.6412,1.5987,1.5883,1.5687,1.5459,1.5651,1.5459,1.5046,0.0,0.0,0.0,0.0,0.0,0.0,0.0,1.7846,1.8257,1.9104,1.9979,2.0703,2.0783,2.1763,2.2896,2.3251,2.3694,2.4032,2.3963,2.3572,2.2828,2.1355,2.0607,1.9723,1.805,0.0,1.7012,1.7087,1.6706,1.7008,1.8908,0.0,2.1009,2.2177,2.3084,2.3508,2.3151,2.3079,2.3079,2.3091,2.3047,2.2947,2.2816,2.2552,2.2397,2.2353,2.2242,2.2185,2.2141,2.1919,2.1909,2.2185,2.2463,2.2179,2.1351,2.1329,2.0421,1.8788,1.865,1.8126,1.7302,1.7302,1.7302,1.7302,1.7302,1.7302,1.7302,1.7302,1.7302,1.7302,1.7302,1.7302,1.7302,0.0,0.0,0.0,0.0,0.0,0.0,0.0,0.0,0.0,0.0,1.2914,1.2903,0.0,0.0,0.0,0.0,0.0,0.0,0.0,0.0,0.0,1.4009,1.4771,1.5224,1.5282,1.5891,1.607,1.5787,1.5721,1.6023,1.6673,1.6337,1.6568,1.7242,1.6417,1.6203,1.6418,1.55,1.4901,1.4593,1.4352,1.4085,1.3809,0.0,0.0,0.0,0.0,0.0,0.0,0.0,1.8954,1.9279,2.0094,2.0211,2.0302,2.1502,2.1838,2.2013,2.2842,2.3139,2.3117,2.2731,2.2199,2.1474,2.0387,1.9335,0.0,0.0,1.6798,1.6244,1.5626,1.5639,1.6205,1.7621,1.8484,1.9702,2.1687,2.2397,2.2816,0.0,2.2947,2.2925,2.3069,2.274,0.0,0.0,2.2552,2.2331,2.2163,2.2495,2.2583,2.2353,2.2309,2.2419,2.2671,2.1935,2.1583,2.1606,2.0036,1.9132,1.8765,1.7948,1.7466,1.7302,1.7302,1.7302,1.7302,1.7302,1.7302,1.7302,1.7302,1.7302,1.7302,1.7302,1.7302,1.7302,0.0,0.0,0.0,0.0,0.0,0.0,0.0,0.0,1.2606,1.4499,1.4435,1.4224,1.4226,1.385,0.0,0.0,0.0,0.0,0.0,0.0,0.0,0.0,1.4268,1.4767,1.5031,1.5697,0.0,0.0,0.0,0.0,0.0,0.0,0.0,0.0,0.0,0.0,0.0,0.0,0.0,0.0,0.0,0.0,0.0,0.0,0.0,0.0,0.0,0.0,0.0,0.0,1.7858,1.8682,1.9942,2.052,2.0828,2.1319,2.1699,2.2127,2.2815,2.3001,2.2892,2.2415,2.1714,2.0753,1.9249,0.0,0.0,0.0,1.5462,1.5173,1.4752,1.5004,0.0,1.6048,1.6596,1.7698,1.9874,2.0732,0.0,2.2664,2.2899,2.2991,0.0,2.2904,2.2816,2.2947,2.2838,2.2684,2.2473,2.2671,2.2684,2.2419,2.2024,2.1882,2.2015,2.115,2.0557,2.0172,1.9247,1.8542,1.7986,1.7512,1.7302,1.7302,1.7302,1.7302,1.7302,1.7302,1.7302,1.7302,1.7302,1.7302,1.7302,1.7302,1.7302,1.7302,0.0,0.0,0.0,0.0,0.0,0.0,0.0,1.2407,1.3277,1.5729,1.5883,1.5576,1.5055,1.4293,1.3733,0.0,0.0,0.0,0.0,0.0,0.0,0.0,0.0,1.4385,1.4777,0.0,0.0,0.0,0.0,0.0,0.0,0.0,0.0,0.0,0.0,0.0,0.0,0.0,0.0,0.0,0.0,0.0,0.0,0.0,0.0,0.0,0.0,0.0,0.0,0.0,1.6476,1.7277,1.8906,2.0034,2.0748,2.0735,2.1318,2.2127,2.2706,2.2925,2.2859,2.2284,2.1428,2.0222,1.8283,1.6708,0.0,0.0,1.4198,1.4188,1.4047,0.0,1.4742,0.0,1.5179,1.6186,1.8422,1.9493,2.0664,0.0,2.2859,0.0,2.3091,2.3091,0.0,2.3091,2.2916,2.274,2.2564,2.2498,2.2321,2.1935,2.136,2.106,2.106,2.0286,1.9536,1.8788,1.858,1.8056,1.7302,1.7302,1.7302,1.7302,1.7302,1.7302,1.7302,1.7302,1.7302,1.7302,1.7302,1.7302,1.7302,1.7302,1.7302,1.7302,0.0,0.0,0.0,0.0,0.0,0.0,0.0,1.2392,1.347,1.6411,1.6157,1.5697,1.5627,1.4956,1.4247,0.0,0.0,0.0,0.0,0.0,0.0,0.0,0.0,0.0,0.0,0.0,0.0,0.0,0.0,0.0,0.0,0.0,0.0,0.0,0.0,0.0,0.0,0.0,0.0,0.0,0.0,0.0,0.0,0.0,0.0,0.0,0.0,0.0,0.0,0.0,0.0,1.531,1.6738,1.7715,1.8563,1.9816,0.0,0.0,2.2127,2.2684,2.2783,2.1887,2.0909,1.9682,1.7781,0.0,0.0,1.3949,1.3707,1.3564,1.3195,1.3456,1.3973,1.4686,0.0,1.6299,1.8867,1.999,2.1026,2.2332,0.0,0.0,2.3091,2.3091,2.3091,2.3091,2.2303,2.1828,2.1806,2.1561,2.1127,2.0413,2.0353,2.03,2.03,1.9376,1.888,1.8796,1.7878,1.7396,1.7302,1.7302,1.7302,1.7302,1.7302,1.7302,1.7302,1.7302,1.7302,1.7302,1.7302,1.7302,1.7302,1.7302,1.7302,1.7302,0.0,0.0,0.0,0.0,0.0,0.0,0.0,1.2336,1.3479,1.661,1.6745,1.659,1.6708,1.5961,1.4904,0.0,0.0,0.0,0.0,0.0,0.0,0.0,0.0,0.0,0.0,0.0,0.0,0.0,0.0,0.0,0.0,0.0,0.0,0.0,0.0,0.0,0.0,0.0,0.0,0.0,0.0,0.0,0.0,0.0,0.0,0.0,0.0,0.0,0.0,0.0,0.0,0.0,1.4395,1.5105,0.0,0.0,1.9388,2.0205,2.1194,2.1806,2.2003,2.1336,2.0205,1.8916,1.7598,0.0,1.4224,1.4093,1.3585,1.3227,1.3343,1.3484,1.3603,1.3657,1.3792,1.4535,1.6344,1.7549,1.8926,2.0713,2.1797,0.0,0.0,0.0,2.2872,2.2303,2.1917,2.1195,2.0014,2.0399,2.0503,2.0209,1.9642,1.9353,1.9353,1.838,1.7901,1.7901,1.7489,1.7302,1.7302,1.7302,1.7302,1.7302,1.7302,1.7302,1.7302,1.7302,1.7302,1.7302,1.7302,1.7302,1.7302,1.7302,1.7302,1.7302,0.0,0.0,0.0,0.0,0.0,0.9749,1.1961,1.2323,1.3417,1.6331,1.6778,1.6866,1.6998,1.6186,1.5155,1.3983,0.0,0.0,0.0,0.0,0.0,0.0,0.0,0.0,0.0,0.0,0.0,0.0,0.0,0.0,0.0,0.0,0.0,0.0,0.0,0.0,0.0,0.0,0.0,0.0,0.0,0.0,0.0,0.0,0.0,0.0,0.0,0.0,0.0,0.0,0.0,0.0,0.0,0.0,0.0,0.0,1.8137,1.9196,2.0189,2.091,2.1271,2.079,1.9675,1.8418,0.0,1.5323,1.3804,1.407,1.3379,1.2871,1.3332,1.3413,1.3284,1.2954,1.3001,1.3567,1.4999,1.6182,1.7649,0.0,0.0,2.1973,0.0,2.2705,2.228,2.1329,2.0993,2.0104,1.845,1.8987,1.9345,1.9345,1.8696,1.8357,1.8357,1.7645,1.7302,1.7302,1.7302,1.7302,1.7302,1.7302,1.7302,1.7302,1.7302,1.7302,1.7302,1.7302,1.7302,1.7302,1.7302,1.7302,1.7302,1.7302,1.7302,1.7302,0.0,0.0,0.0,0.0,0.0,0.0,0.0,1.2412,1.33,1.5519,1.5983,1.612,1.6111,1.5284,1.4791,1.498,0.0,0.0,0.0,0.0,0.0,0.0,0.0,0.0,0.0,0.0,0.0,0.0,0.0,0.0,0.0,0.0,0.0,0.0,0.0,0.0,0.0,0.0,0.0,0.0,0.0,0.0,0.0,0.0,0.0,0.0,0.0,0.0,0.0,0.0,0.0,0.0,0.0,0.0,0.0,0.0,1.6854,1.8214,1.9163,2.0156,2.0785,2.0238,1.9403,1.8331,1.6839,1.5098,1.3779,1.3728,1.2961,1.2448,1.2914,1.2945,1.2905,1.2905,1.3232,1.4102,1.584,1.6848,1.8025,0.0,0.0,2.1396,2.1876,2.1788,2.1306,2.0277,1.9353,0.0,1.7372,1.7326,1.7326,1.7326,1.7326,1.7326,1.7326,1.7309,1.7302,1.7302,1.7302,1.7302,1.7302,1.7302,1.7302,1.7302,1.7302,1.7302,1.7302,1.7302,1.7302,1.7302,1.7302,1.7302,1.7302,1.7302,1.7302,1.7302,0.0,0.0,0.0,0.0,0.0,0.0,0.0,1.1345,1.2401,1.4263,1.5114,1.5799,1.6448,1.5663,1.5086,1.5008,0.0,0.0,0.0,0.0,0.0,0.0,0.0,0.0,0.0,0.0,0.0,0.0,0.0,0.0,0.0,0.0,0.0,0.0,0.0,0.0,0.0,0.0,0.0,0.0,0.0,0.0,0.0,0.0,0.0,0.0,0.0,0.0,0.0,0.0,0.0,0.0,0.0,0.0,0.0,1.3163,1.461,0.0,1.7166,1.7926,1.8411,1.8232,1.745,1.6609,1.6127,1.4627,1.3472,1.4065,1.3178,1.2536,1.327,1.3122,1.3079,1.363,1.3821,1.4313,1.5459,0.0,0.0,1.9355,2.1269,2.23,0.0,0.0,2.1015,1.9376,1.8972,1.8357,1.7349,1.7302,1.7302,1.7302,1.7302,1.7302,1.7302,1.7302,1.7302,1.7302,1.7302,1.7302,1.7302,1.7302,1.7302,1.7302,1.7302,1.7302,1.7302,1.7302,1.7302,1.7302,1.7302,1.7302,1.7302,1.7302,1.7302,1.7302,0.0,0.0,0.0,0.0,0.0,0.0,0.0,1.0595,1.1467,1.2828,1.3826,1.4786,1.5694,1.5224,1.4942,1.5169,0.0,0.0,0.0,0.0,0.0,0.0,0.0,0.0,0.0,0.0,0.0,0.0,0.0,0.0,0.0,0.0,0.0,0.0,0.0,0.0,0.0,0.0,0.0,0.0,0.0,0.0,0.0,0.0,0.0,0.0,0.0,0.0,0.0,0.0,0.0,0.0,0.0,0.0,0.0,0.0,1.3062,1.4285,0.0,1.6481,1.7008,1.7008,1.6391,1.5713,1.5342,1.4051,1.3093,1.3749,1.2952,1.2398,1.3217,1.3102,1.3059,1.3561,1.3763,1.4221,0.0,0.0,0.0,1.9345,0.0,0.0,0.0,2.0725,2.0104,1.888,1.845,1.7971,1.7326,1.7302,1.7302,1.7302,1.7302,1.7302,1.7302,1.7302,1.7302,1.7302,1.7302,1.7302,1.7302,1.7302,1.7302,1.7302,1.7302,1.7302,0.0,1.7302,1.7302,1.7302,1.7302,1.7302,1.7302,1.7302,1.7302,1.7302,0.0,0.0,0.0,0.0,0.0,0.0,0.0,0.0,0.0,1.1317,1.2332,1.3307,1.4128,1.4147,1.4458,1.5316,0.0,0.0,0.0,0.0,0.0,0.0,0.0,0.0,0.0,0.0,0.0,1.7901,1.781,1.8125,1.8773,0.0,0.0,0.0,0.0,0.0,0.0,0.0,0.0,0.0,0.0,0.0,0.0,0.0,0.0,0.0,0.0,0.0,0.0,0.0,0.0,0.0,0.0,0.0,0.0,0.0,0.0,0.0,0.0,1.5551,1.6236,1.6236,1.592,1.5375,1.4494,1.3392,0.0,1.2892,1.2385,1.2119,1.2863,1.2939,1.2935,1.301,1.3369,0.0,0.0,1.6655,0.0,0.0,2.0168,0.0,1.9604,1.9097,1.8765,1.8703,1.7831,1.7302,1.7302,1.7302,1.7302,1.7302,1.7302,1.7302,1.7302,1.7302,1.7302,1.7302,1.7302,1.7302,1.7302,1.7302,1.7302,1.7302,1.7302,1.7302,1.7302,1.7302,1.7302,1.7302,1.7302,1.7302,1.7302,1.7302,1.7302,1.7302,0.0,0.0,0.0,0.0,0.0,0.0,0.0,0.0,0.0,0.0,1.2023,1.3091,1.3353,1.391,1.4275,0.0,0.0,0.0,0.0,0.0,0.0,0.0,0.0,0.0,0.0,0.0,0.0,1.7901,1.8276,1.8827,1.953,1.9106,0.0,0.0,0.0,0.0,0.0,0.0,0.0,0.0,0.0,0.0,0.0,0.0,0.0,0.0,1.3164,1.3245,0.0,0.0,0.0,0.0,0.0,0.0,0.0,0.0,1.1928,1.2299,1.2757,0.0,1.375,1.375,1.3663,1.3521,0.0,1.2634,1.214,1.2414,1.216,1.211,1.2797,1.2909,1.3228,1.4193,0.0,1.5288,1.6258,0.0,0.0,1.9992,2.0191,1.992,1.9063,1.8878,1.8473,1.7715,1.7419,1.7302,1.7302,1.7302,1.7302,1.7302,1.7302,1.7302,1.7302,1.7302,1.7302,1.7302,1.7302,1.7302,1.7302,1.7302,1.7302,1.7302,1.7302,1.7302,1.7302,1.7302,1.7302,1.7302,1.7302,1.7302,1.7302,1.7302,1.7302,1.7302,0.0,0.0,0.0,0.0,0.0,0.0,0.0,0.0,0.0,0.0,0.0,0.0,0.0,0.0,0.0,0.0,0.0,0.0,0.0,0.0,0.0,0.0,0.0,0.0,0.0,0.0,0.0,0.0,0.0,1.9222,0.0,0.0,0.0,0.0,0.0,0.0,0.0,0.0,0.0,0.0,0.0,0.0,0.0,0.0,0.0,0.0,1.2619,1.2816,0.0,1.282,1.2709,1.2541,0.0,0.0,0.0,0.0,1.1678,1.1884,1.1884,1.2561,1.327,1.327,1.3434,1.3488,1.3087,1.2642,1.2261,0.0,0.0,0.0,0.0,0.0,0.0,0.0,1.4996,0.0,0.0,0.0,2.0111,2.019,2.0209,1.9642,0.0,1.8102,1.7901,1.7349,1.7302,1.7302,1.7302,1.7302,1.7302,1.7302,1.7302,1.7302,1.7302,1.7302,1.7302,1.7302,1.7302,1.7302,1.7302,1.7302,1.7302,1.7302,1.7302,1.7302,1.7302,1.7302,1.7302,1.7302,1.7302,1.7302,1.7302,1.7302,1.7302,1.7302,0.0,0.0,0.0,0.0,0.0,0.0,0.0,0.0,0.0,0.0,0.0,0.0,0.0,0.0,0.0,0.0,0.0,0.0,0.0,0.0,0.0,0.0,0.0,0.0,0.0,0.0,0.0,0.0,0.0,0.0,0.0,0.0,1.9762,0.0,0.0,0.0,0.0,0.0,0.0,0.0,0.0,0.0,0.0,0.0,0.0,0.0,0.0,0.0,0.0,1.2358,1.2349,1.243,1.2138,0.0,0.0,0.0,0.0,0.0,1.1591,1.2596,1.3597,1.3499,1.3816,1.3966,1.3164,0.0,0.0,0.0,0.0,0.0,0.0,1.3042,0.0,0.0,0.0,0.0,1.9277,2.0228,2.0411,1.9833,1.9755,0.0,1.7466,1.7302,1.7302,1.7302,1.7302,1.7302,1.7302,1.7302,1.7302,1.7302,1.7302,1.7302,1.7302,1.7302,1.7302,1.7302,1.7302,1.7302,1.7302,1.7302,1.7302,1.7302,1.7302,1.7302,1.7302,1.7302,1.7302,1.7302,1.7302,1.7302,1.7302,1.7302,1.7302,1.7302,0.0,0.0,0.0,0.0,0.0,0.0,0.0,0.0,0.0,0.0,0.0,0.0,0.0,0.0,0.0,0.0,0.0,0.0,0.0,0.0,0.0,0.0,0.0,0.0,0.0,0.0,0.0,0.0,0.0,0.0,1.9965,2.0525,1.994,0.0,0.0,0.0,0.0,0.0,0.0,0.0,0.0,0.0,0.0,0.0,0.0,0.0,0.0,0.0,0.0,1.1917,1.1993,1.1906,1.1856,0.0,0.0,0.0,0.0,0.0,1.1982,1.2667,1.3139,1.2565,1.279,1.3022,1.2594,1.2348,0.0,0.0,0.0,0.0,0.0,1.3685,1.44,0.0,0.0,1.7306,0.0,0.0,1.7998,1.7764,0.0,1.7622,1.7326,1.7302,1.7302,1.7302,1.7302,1.7302,1.7302,1.7302,1.7302,1.7302,1.7302,1.7302,1.7302,1.7302,1.7302,1.7302,1.7302,1.7302,1.7302,1.7302,1.7302,1.7302,1.7302,1.7302,1.7302,1.7302,1.7302,1.7302,1.7302,1.7302,1.7302,1.7302,1.7302,1.7302,0.0,0.0,0.0,0.0,0.0,0.0,0.0,0.0,0.0,0.0,0.0,0.0,0.0,0.0,0.0,0.0,0.0,0.0,0.0,0.0,0.0,0.0,0.0,0.0,0.0,0.0,0.0,0.0,0.0,1.9649,2.0336,1.9799,1.917,1.8437,0.0,0.0,0.0,0.0,0.0,0.0,0.0,0.0,0.0,0.0,0.0,0.0,0.0,0.0,0.0,0.0,1.1701,1.1795,1.1795,0.0,0.0,0.0,0.0,0.0,1.1765,1.2416,1.299,1.2786,1.3371,1.3828,1.3248,1.3261,0.0,0.0,0.0,0.0,0.0,0.0,1.5371,1.7168,0.0,1.8503,1.9321,1.8981,1.8505,0.0,0.0,1.7901,1.7349,1.7302,1.7302,1.7302,1.7302,1.7302,1.7302,1.7302,1.7302,1.7302,1.7302,1.7302,1.7302,1.7302,1.7302,1.7302,1.7302,1.7302,1.7302,1.7302,1.7302,1.7302,1.7302,1.7302,1.7302,1.7302,1.7302,1.7302,1.7302,1.7302,1.7302,1.7302,1.7302,1.7302,0.0,0.0,0.0,0.0,0.0,0.0,0.0,0.0,0.0,0.0,0.0,0.0,0.0,0.0,0.0,0.0,0.0,0.0,0.0,0.0,0.0,0.0,0.0,0.0,0.0,0.0,1.727,1.8246,1.9293,2.0067,2.0541,1.9311,1.8484,0.0,0.0,0.0,0.0,0.0,0.0,0.0,0.0,0.0,0.0,0.0,0.0,0.0,0.0,0.0,0.0,0.0,0.0,0.0,0.0,0.0,0.0,1.1532,1.1427,1.1384,1.1602,1.2218,1.2871,1.3147,0.0,1.4579,1.4117,1.4261,0.0,0.0,0.0,0.0,0.0,1.5435,0.0,1.8598,1.9,1.9328,2.0108,1.9559,1.8915,1.8503,1.845,1.8156,1.7372,1.7302,1.7302,1.7302,1.7302,1.7302,1.7302,1.7302,1.7302,1.7302,1.7302,1.7302,1.7302,1.7302,1.7302,1.7302,1.7302,1.7302,1.7302,1.7302,1.7302,1.7302,1.7302,1.7302,1.7302,1.7302,1.7302,1.7302,1.7302,1.7302,1.7302,1.7302,1.7302,1.7302,0.0,0.0,0.0,0.0,0.0,0.0,0.0,0.0,0.0,0.0,0.0,0.0,0.0,0.0,0.0,0.0,0.0,0.0,0.0,0.0,0.0,0.0,0.0,0.0,0.0,1.7129,1.7802,1.9824,1.9806,1.9822,1.987,1.9562,1.8421,1.6635,0.0,0.0,0.0,0.0,0.0,0.0,0.0,0.0,0.0,0.0,0.0,0.0,0.0,0.0,0.0,0.0,0.0,0.0,0.0,0.0,1.1977,1.1604,1.1188,1.1042,1.1906,1.2345,1.2648,1.3157,1.3677,1.4202,1.4773,1.4699,0.0,1.5027,0.0,0.0,0.0,1.7285,1.8693,1.9649,1.9371,1.9166,1.959,0.0,1.746,1.7419,1.7419,1.7372,1.7309,1.7302,1.7302,1.7302,1.7302,1.7302,1.7302,1.7302,1.7302,1.7302,1.7302,1.7302,1.7302,1.7302,1.7302,1.7302,1.7302,1.7302,1.7302,1.7302,1.7302,1.7302,1.7302,1.7302,1.7302,1.7302,1.7302,1.7302,1.7302,1.7302,1.7302,1.7302,1.7302,1.7302,0.0,0.0,0.0,0.0,0.0,0.0,0.0,0.0,0.0,0.0,0.0,0.0,0.0,0.0,0.0,0.0,0.0,0.0,0.0,0.0,0.0,0.0,0.0,1.5631,1.6775,1.7653,1.8686,1.9877,1.9822,1.9807,1.9775,1.8739,0.0,0.0,0.0,0.0,0.0,0.0,0.0,0.0,0.0,0.0,0.0,0.0,0.0,0.0,0.0,0.0,0.0,0.0,1.0753,1.1062,1.0676,1.1083,1.1641,1.1187,1.0944,1.0944,1.1589,1.2122,1.2572,1.2912,1.3654,0.0,0.0,1.5244,1.5605,1.6393,1.6814,0.0,0.0,0.0,1.8304,1.9682,1.8935,1.852,1.9479,1.8277,1.7302,1.7302,1.7302,1.7302,1.7302,1.7302,1.7302,1.7302,1.7302,1.7302,1.7302,1.7302,1.7302,1.7302,1.7302,1.7302,1.7302,1.7302,1.7302,1.7302,1.7302,1.7302,1.7302,1.7302,1.7302,1.7302,1.7302,1.7302,1.7302,1.7302,1.7302,1.7302,1.7302,1.7302,1.7302,1.7302,1.7302,1.7302,0.0,0.0,0.0,0.0,0.0,0.0,0.0,0.0,0.0,0.0,0.0,0.0,0.0,0.0,0.0,0.0,0.0,0.0,0.0,0.0,0.0,0.0,0.0,1.5173,1.6223,1.7515,1.8591,1.9443,1.9696,1.957,1.9104,0.0,0.0,0.0,0.0,0.0,0.0,0.0,0.0,0.0,0.0,0.0,0.0,0.0,0.0,0.0,0.0,0.0,0.0,0.0,1.0575,1.0915,1.0444,1.0893,1.1496,1.0959,1.0847,1.096,1.1285,1.1883,1.2496,1.292,0.0,0.0,1.5591,1.5979,1.6457,1.7552,1.7991,1.8235,1.8389,0.0,0.0,0.0,1.864,1.8089,1.9195,1.8164,1.7302,1.7302,1.7302,1.7302,1.7302,1.7302,1.7302,1.7302,1.7302,1.7302,1.7302,1.7302,1.7302,1.7302,1.7302,1.7302,1.7302,1.7302,1.7302,1.7302,1.7302,1.7302,1.7302,1.7302,1.7302,1.7302,1.7302,1.7302,1.7302,1.7302,1.7302,1.7302,1.7302,1.7302,1.7302,1.7302,1.7302,1.7302,0.0,0.0,0.0,0.0,0.0,0.0,0.0,0.0,0.0,0.0,0.0,0.0,0.0,0.0,0.0,0.0,0.0,0.0,0.0,0.0,0.0,0.0,0.0,1.4733,1.6722,1.6644,1.7288,1.8701,1.9428,1.9073,1.7692,1.7547,0.0,0.0,0.0,0.0,0.0,0.0,0.0,0.0,0.0,0.0,0.0,0.0,0.0,0.0,0.0,0.0,0.0,0.0,1.0968,1.1204,1.1337,1.1576,1.1673,1.0999,1.094,1.1096,1.1098,1.1642,1.2416,0.0,0.0,0.0,1.6672,1.6902,1.7077,1.8354,1.8617,1.8744,1.9219,1.8581,0.0,1.9604,1.8613,1.7957,1.8684,1.7917,1.7302,1.7302,1.7302,1.7302,1.7302,1.7302,1.7302,1.7302,1.7302,1.7302,1.7302,1.7302,1.7302,1.7302,1.7302,1.7302,1.7302,1.7302,1.7302,1.7302,1.7302,1.7302,1.7302,1.7302,1.7302,1.7302,1.7302,1.7302,1.7302,1.7302,1.7302,1.7302,1.7302,1.7302,1.7302,1.7302,1.7302,1.7302,0.0,0.0,0.0,0.0,0.0,0.0,0.0,0.0,0.0,0.0,0.0,0.0,0.0,0.0,0.0,0.0,0.0,0.0,0.0,0.0,0.0,0.0,0.0,0.0,0.0,0.0,1.6819,1.8701,1.8441,1.8109,0.0,0.0,0.0,1.6382,0.0,0.0,0.0,0.0,0.0,0.0,0.0,0.0,0.0,0.0,0.0,0.0,0.0,0.0,0.0,0.0,0.0,0.0,1.0324,1.0874,1.1489,1.0961,1.1086,1.1389,1.1439,1.1778,0.0,1.3338,0.0,0.0,0.0,1.7396,0.0,0.0,1.9746,1.9552,1.9707,1.9005,0.0,1.9216,1.8393,1.787,1.8299,1.7757,1.7302,1.7302,1.7302,1.7302,1.7302,1.7302,1.7302,1.7302,1.7302,1.7302,1.7302,1.7302,1.7302,1.7302,1.7302,1.7302,1.7302,1.7302,1.7302,1.7302,1.7302,1.7302,1.7302,1.7302,1.7302,1.7302,1.7302,1.7302,1.7302,1.7302,1.7302,1.7302,1.7302,1.7302,1.7302,1.7302,1.7302,1.7302,0.0,0.0,0.0,0.0,0.0,0.0,0.0,0.0,0.0,0.0,0.0,0.0,0.0,0.0,0.0,0.0,0.0,0.0,0.0,0.0,0.0,0.0,0.0,0.0,0.0,1.5173,1.6354,0.0,0.0,0.0,0.0,0.0,0.0,1.6746,0.0,1.597,0.0,0.0,0.0,0.0,0.0,1.1894,1.1684,0.0,0.0,0.0,0.0,0.0,0.0,0.0,0.0,0.0,0.9852,1.0274,1.0808,1.0679,1.1052,1.1536,1.1655,1.2157,0.0,1.3837,1.4886,1.6103,1.778,0.0,0.0,0.0,2.0234,1.9857,1.9698,1.8816,0.0,1.8325,1.77,1.7289,1.7634,1.7467,1.7302,1.7302,1.7302,1.7302,1.7302,1.7302,1.7302,1.7302,1.7302,1.7302,1.7302,1.7302,1.7302,1.7302,1.7302,1.7302,1.7302,1.7302,1.7302,1.7302,1.7302,1.7302,1.7302,1.7302,1.7302,1.7302,1.7302,1.7302,1.7302,1.7302,1.7302,1.7302,1.7302,1.7302,1.7302,1.7302,1.7302,1.7302,0.0,0.0,0.0,0.0,0.0,0.0,0.0,0.0,0.0,0.0,0.0,0.0,0.0,0.0,0.0,0.0,0.0,0.0,0.0,0.0,0.0,0.0,0.0,0.0,0.0,0.0,0.0,0.0,0.0,0.0,0.0,0.0,1.6552,1.7143,0.0,1.6203,0.0,0.0,0.0,0.0,1.2059,1.1605,1.1382,1.1315,0.0,0.0,0.0,0.0,0.0,0.0,0.0,0.0,0.9845,0.9838,0.9905,1.0317,1.0952,1.1583,1.1808,1.2661,0.0,1.4658,1.5649,0.0,1.8856,1.9639,2.0088,2.0498,0.0,1.9822,1.9386,1.8344,1.7493,1.7245,1.679,1.6581,1.6851,1.7106,1.7273,1.7302,1.7302,1.7302,1.7302,1.7302,1.7302,1.7302,1.7302,1.7302,1.7302,1.7302,1.7302,1.7302,1.7302,1.7302,1.7302,1.7302,1.7302,1.7302,1.7302,1.7302,1.7302,1.7302,1.7302,1.7302,1.7302,1.7302,1.7302,1.7302,1.7302,1.7302,1.7302,1.7302,1.7302,1.7302,1.7302,1.7302,0.0,0.0,0.0,0.0,0.0,0.0,0.0,0.0,0.0,0.0,0.0,0.0,0.0,0.0,0.0,0.0,0.0,0.0,0.0,0.0,0.0,0.0,0.0,0.0,0.0,0.0,0.0,0.0,0.0,0.0,0.0,0.0,0.0,1.6107,0.0,1.462,0.0,0.0,0.0,1.1803,1.1582,1.1415,1.1309,1.1248,1.0834,0.0,0.0,0.0,0.0,0.0,0.0,0.0,1.0002,1.008,1.0123,1.0582,1.1197,1.184,1.2301,1.2847,0.0,0.0,1.7152,1.8738,1.918,1.9902,2.0468,2.0586,2.0527,2.0217,1.9441,1.909,1.8523,1.7382,1.7103,1.7003,1.6905,1.6961,1.707,1.7273,1.7302,1.7302,1.7302,1.7302,1.7302,1.7302,1.7302,1.7302,1.7302,1.7302,1.7302,1.7302,1.7302,1.7302,1.7302,1.7302,1.7302,1.7302,1.7302,1.7302,1.7302,1.7302,1.7302,1.7302,1.7302,1.7302,1.7302,1.7302,1.7302,1.7302,1.7302,1.7302,1.7302,1.7302,1.7302,1.7302,0.0,0.0,0.0,0.0,0.0,0.0,0.0,0.0,0.0,0.0,0.0,0.0,0.0,0.0,0.0,0.0,0.0,0.0,0.0,0.0,1.2878,1.2726,0.0,0.0,0.0,0.0,0.0,0.0,0.0,0.0,0.0,0.0,0.0,1.6166,0.0,1.4587,0.0,0.0,0.0,1.1495,1.1435,1.1362,1.1289,1.1228,1.0834,1.0293,1.0293,0.0,0.0,0.0,0.0,0.0,0.0,0.0,0.9497,1.0103,1.0572,1.108,1.1982,0.0,0.0,1.5769,0.0,1.9015,1.9256,1.9804,2.0332,2.0537,2.0605,2.0206,1.8915,1.8667,1.8167,1.6586,1.6461,1.6547,1.6448,1.6712,1.6939,1.7084,1.7214,1.7302,1.7302,1.7302,1.7302,1.7302,1.7302,1.7302,1.7302,1.7302,1.7302,1.7302,1.7302,1.7302,1.7302,1.7302,1.7302,1.7302,1.7302,1.7302,1.7302,1.7302,1.7302,1.7302,1.7302,1.7302,1.7302,1.7302,1.7302,1.7302,1.7302,1.7302,1.7302,1.7302,1.7302,1.7302,0.0,0.0,0.0,0.0,0.0,0.0,0.0,0.0,0.0,0.0,0.0,0.0,0.0,0.0,0.0,0.0,0.0,0.0,0.0,1.2706,1.2878,1.2727,0.0,0.0,0.0,0.0,0.0,0.0,0.0,0.0,0.0,0.0,0.0,1.6675,0.0,0.0,0.0,0.0,1.1487,1.1327,1.1275,1.1203,1.1117,1.107,1.0736,1.0293,1.0293,1.0293,1.0255,0.9989,0.0,0.0,0.0,0.0,0.8739,0.943,0.98,1.0216,1.1315,0.0,1.3928,1.6047,1.7538,0.0,1.9072,1.9502,1.9932,2.0381,2.0527,2.006,1.8318,1.7997,1.744,1.5693,1.5636,1.5826,1.5885,1.6389,1.6756,1.6815,1.7055,1.7222,1.7222,1.7273,1.7302,1.7302,1.7302,1.7302,1.7302,1.7302,1.7302,1.7302,1.7302,1.7302,1.7302,1.7302,1.7302,1.7302,1.7302,1.7302,1.7302,1.7302,1.7302,1.7302,1.7302,1.7302,1.7302,1.7302,1.7302,1.7302,1.7302,1.7302,1.7302,1.7302,1.7302,1.7302,0.0,0.0,0.0,0.0,0.0,0.0,0.0,0.0,0.0,0.0,0.0,0.9637,1.0275,1.0356,0.0,0.0,0.0,0.0,1.2347,0.0,0.0,0.0,0.0,0.0,0.0,0.0,0.0,0.0,0.0,0.0,0.0,0.0,0.0,1.7059,0.0,0.0,0.0,0.0,0.0,1.0623,1.0611,1.0549,1.0429,1.0417,1.0378,1.0293,1.0293,1.0293,1.0255,0.9989,0.9725,0.0,0.0,0.0,0.8702,0.9201,0.9816,1.041,0.0,0.0,1.4241,0.0,1.7051,1.8186,0.0,0.0,1.9492,0.0,2.0322,2.006,1.8318,1.7997,1.744,1.5693,1.5446,1.557,1.5855,1.5987,1.614,1.6426,1.6741,1.6939,1.6939,1.7165,1.7302,1.7302,1.7302,1.7302,1.7302,1.7302,1.7302,1.7302,1.7302,1.7302,1.7302,1.7302,1.7302,1.7302,1.7302,1.7302,1.7302,1.7302,1.7302,1.7302,1.7302,1.7302,1.7302,1.7302,1.7302,1.7302,1.7302,1.7302,1.7302,1.7302,1.7302,1.7302,0.0,0.0,0.0,0.0,0.0,0.0,0.0,0.0,0.0,0.0,0.0,1.0128,1.0413,1.0422,0.0,0.0,0.0,0.0,1.2224,1.2373,0.0,0.0,0.0,0.0,0.0,0.0,0.0,0.0,0.0,0.0,0.0,1.5074,1.5754,0.0,0.0,0.0,0.0,0.0,0.0,1.0976,1.0681,1.0762,1.1028,1.0541,1.0573,1.0794,1.0263,0.9982,0.0,0.0,0.9373,0.9225,0.8912,0.0,0.0,0.0,0.9219,0.9786,1.0865,1.2303,1.3807,0.0,1.6191,1.717,1.7825,1.8323,1.8772,1.9298,1.9549,1.9345,1.82,1.7997,1.744,1.5693,1.541,1.5454,1.56,1.5782,1.5943,1.6104,1.6411,1.6697,1.6881,1.7005,1.7135,1.7295,1.7302,1.7302,1.7302,1.7302,1.7302,1.7302,1.7302,1.7302,1.7302,1.7302,1.7302,1.7302,1.7302,1.7302,1.7302,1.7302,1.7302,1.7302,1.7302,1.7302,1.7302,1.7302,1.7302,1.7302,1.7302,1.7302,1.7302,1.7302,1.7302,1.7302,0.0,0.0,0.0,0.0,0.0,0.0,0.0,0.0,0.0,0.0,0.0,0.0,1.0575,0.0,0.0,0.0,0.0,0.0,1.1613,0.0,0.0,0.0,0.0,0.0,0.0,0.0,0.0,0.0,0.0,0.0,1.633,1.5218,1.5945,0.0,1.6415,0.0,0.0,0.0,0.0,0.0,0.0,1.1244,1.1659,1.1241,1.1369,1.1634,1.0617,0.0,0.0,0.0,0.0,0.0,0.0,0.0,0.0,0.0,0.0,0.0,0.0,0.0,1.2833,1.4156,1.5198,1.6122,0.0,0.0,1.7986,0.0,1.8805,1.8601,1.7791,1.7752,1.7312,1.5679,1.541,1.541,1.541,1.5622,1.5775,1.5775,1.6067,1.6374,1.6616,1.6712,1.6887,1.7179,1.7208,1.7222,1.7302,1.7302,1.7302,1.7302,1.7302,1.7302,1.7302,1.7302,1.7302,1.7302,1.7302,1.7302,1.7302,1.7302,1.7302,1.7302,1.7302,1.7302,1.7302,1.7302,1.7302,1.7302,1.7302,1.7302,1.7302,1.7302,1.7302,1.7302,0.0,0.0,0.0,0.0,0.0,0.0,0.0,0.0,0.0,0.0,0.0,0.0,0.0,0.0,0.0,0.0,0.0,0.0,0.0,0.0,0.0,0.0,0.0,0.0,0.0,0.0,0.0,0.0,0.0,0.0,1.5639,1.5003,1.6058,1.843,1.7375,1.5942,1.4308,0.0,0.0,0.0,0.0,0.0,1.1794,1.2643,1.2979,1.2854,0.0,0.0,0.0,0.0,0.0,0.0,0.0,0.8607,0.8607,0.0,0.0,0.0,0.0,1.0733,0.0,1.2742,1.4086,1.5269,0.0,0.0,1.7182,1.7979,1.8302,1.8067,1.6896,1.7092,1.6982,1.5621,1.541,1.541,1.541,1.5424,1.5432,1.5432,1.5717,1.5921,1.5943,1.6243,1.655,1.6903,1.6925,1.7034,1.7288,1.7302,1.7302,1.7302,1.7302,1.7302,1.7302,1.7302,1.7302,1.7302,1.7302,1.7302,1.7302,1.7302,1.7302,1.7302,1.7302,1.7302,1.7302,1.7302,1.7302,1.7302,1.7302,1.7302,1.7302,1.7302,1.7302,1.7302,0.0,0.0,0.0,0.0,0.0,0.0,0.0,0.0,0.0,0.0,0.0,0.0,0.0,0.0,0.0,0.0,0.0,0.0,0.0,0.0,0.0,0.0,0.0,0.0,0.0,0.0,0.0,0.0,0.0,1.1481,1.3293,1.3686,1.4559,1.5825,1.6236,1.6281,1.5915,1.4156,0.0,0.0,0.0,0.0,0.0,1.3185,1.3385,1.3549,0.0,0.0,0.0,0.0,0.0,0.0,0.9283,0.9054,0.8996,0.8687,0.87,0.0,0.0,0.0,0.0,1.1456,1.2791,1.3935,1.4055,1.513,1.6196,1.6434,1.6474,1.6377,1.6075,1.659,1.663,1.5301,1.5075,1.5148,1.538,1.541,1.541,1.541,1.5512,1.5665,1.5877,1.6016,1.6228,1.6543,1.6587,1.6616,1.6726,1.6931,1.7049,1.7049,1.72,1.7302,1.7302,1.7302,1.7302,1.7302,1.7302,1.7302,1.7302,1.7302,1.7302,1.7302,1.7302,1.7302,1.7302,1.7302,1.7302,1.7302,1.7302,1.7302,1.7302,1.7302,1.7302,1.7302,0.0,0.0,0.0,0.0,0.0,0.0,0.0,0.0,0.0,0.0,0.0,0.0,0.0,0.0,0.0,0.0,0.0,0.0,0.0,0.0,0.0,0.0,0.0,0.0,0.0,0.0,0.0,0.0,0.0,0.0,0.0,1.2554,1.3337,1.4335,1.4929,1.5757,0.0,0.0,0.0,1.4739,0.0,0.0,1.4406,0.0,1.4451,0.0,0.0,0.0,0.0,0.0,0.0,0.0,0.0,0.9264,0.8992,0.861,0.8757,0.0,0.8837,0.0,0.0,0.0,0.0,1.2538,1.2713,1.3966,1.5105,1.5152,1.5285,1.536,1.5252,1.5677,1.5732,1.4805,1.4734,1.4892,1.5192,1.5337,1.541,1.541,1.541,1.549,1.5709,1.5731,1.5884,1.6213,1.6235,1.6287,1.6382,1.6617,1.6785,1.6895,1.7165,1.7302,1.7302,1.7302,1.7302,1.7302,1.7302,1.7302,1.7302,1.7302,1.7302,1.7302,1.7302,1.7302,1.7302,1.7302,1.7302,1.7302,1.7302,1.7302,1.7302,1.7302,1.7302,1.7302,0.0,0.0,0.0,0.0,0.0,0.0,0.0,0.0,0.0,1.1593,0.0,0.0,0.0,0.0,0.0,0.0,0.0,0.0,1.0619,0.0,0.0,0.0,0.0,0.0,0.0,0.0,0.0,0.0,0.0,0.0,0.0,0.0,1.2523,1.4219,1.3655,1.4387,1.6032,0.0,1.601,1.5946,0.0,1.5057,1.5159,0.0,0.0,0.0,1.5672,1.4943,0.0,1.275,0.0,0.0,0.0,0.9258,0.8619,0.8404,0.8628,0.0,0.0,0.0,0.0,0.0,0.0,0.0,1.2214,0.0,1.3921,1.4223,1.4828,1.5087,1.4404,1.4255,1.4219,1.4156,1.4394,1.4656,1.488,1.517,1.5395,1.541,1.541,1.541,1.541,1.541,1.5534,1.5855,1.5899,1.603,1.6345,1.6367,1.6551,1.6873,1.715,1.7288,1.7288,1.7302,1.7302,1.7302,1.7302,1.7302,1.7302,1.7302,1.7302,1.7302,1.7302,1.7302,1.7302,1.7302,1.7302,1.7302,1.7302,1.7302,1.7302,1.7302,1.7302,1.7302,0.0,0.0,0.0,0.0,0.0,0.0,1.0619,1.0938,1.1316,0.0,0.0,0.0,0.0,0.0,0.0,0.0,0.0,0.0,1.1031,1.1134,1.1136,1.0964,1.1519,1.1725,0.0,0.0,0.0,0.0,0.0,0.0,0.0,0.0,0.0,0.0,1.3281,1.3926,1.4748,1.3864,0.0,0.0,1.4852,1.5145,0.0,0.0,0.0,0.0,0.0,1.5689,1.4844,0.0,1.3765,1.327,0.0,0.0,0.0,0.943,0.9623,0.0,0.8892,0.0,0.0,0.0,0.0,0.0,0.0,0.0,1.2806,1.3573,1.3232,1.2994,1.3667,1.3115,1.2649,1.2929,1.3636,1.4328,1.4834,1.498,1.5126,1.538,1.541,1.541,1.541,1.541,1.5446,1.5534,1.5541,1.5578,1.5665,1.5913,1.6184,1.6536,1.6836,1.7005,1.7005,1.7193,1.7302,1.7302,1.7302,1.7302,1.7302,1.7302,1.7302,1.7302,1.7302,1.7302,1.7302,1.7302,1.7302,1.7302,1.7302,1.7302,1.7302,1.7302,1.7302,1.7302,0.0,0.0,0.0,0.0,0.0,1.2406,1.2244,1.2517,1.2736,0.0,0.0,0.0,0.0,0.0,0.0,0.0,0.0,0.0,1.2035,1.1748,1.1459,1.1236,1.1479,1.1512,1.1285,0.0,0.0,0.0,0.0,0.0,0.0,0.0,0.0,0.0,1.2007,1.2475,1.2753,0.0,0.0,0.0,1.5692,0.0,0.0,1.7203,1.7097,0.0,0.0,0.0,1.6098,1.5604,1.4721,0.0,0.0,1.1689,1.0886,1.0218,1.0264,0.0,0.0,0.0,0.0,0.0,0.0,0.0,1.0773,1.1361,1.1973,0.0,1.2313,1.2254,1.2515,1.231,1.2097,1.2087,1.2942,1.3755,1.4248,1.4438,1.4591,1.4781,1.5044,1.5185,1.5185,1.5329,1.541,1.541,1.541,1.541,1.541,1.5717,1.6001,1.6199,1.6529,1.6763,1.6903,1.7063,1.7201,1.7302,1.7302,1.7302,1.7302,1.7302,1.7302,1.7302,1.7302,1.7302,1.7302,1.7302,1.7302,1.7302,1.7302,1.7302,1.7302,1.7302,1.7302,1.7302,0.0,0.0,1.2432,1.3266,1.3413,1.3675,1.4441,1.4458,1.4423,0.0,0.0,0.0,0.0,0.0,0.0,0.0,0.0,0.0,1.3201,1.2514,1.1991,1.1725,1.1484,1.1273,1.1056,1.0819,0.0,0.0,0.0,0.0,0.0,0.0,0.0,0.9922,1.0462,1.0693,1.0706,0.0,0.0,1.5999,1.68,1.7318,0.0,0.0,1.7853,1.7514,1.8514,1.8173,1.7176,1.6711,1.5193,0.0,0.0,1.232,1.1502,1.088,1.0772,0.0,1.0022,1.0153,0.0,0.0,1.043,0.0,1.1059,1.1351,1.1352,0.0,1.1732,1.2114,1.1248,1.1689,1.2003,1.1548,1.221,1.2966,1.3433,1.3796,1.4015,1.4052,1.4489,1.4812,1.4849,1.5132,1.5315,1.533,1.5388,1.541,1.541,1.568,1.5841,1.5841,1.6184,1.6477,1.6793,1.6866,1.7019,1.7251,1.7288,1.7302,1.7302,1.7302,1.7302,1.7302,1.7302,1.7302,1.7302,1.7302,1.7302,1.7302,1.7302,1.7302,1.7302,1.7302,1.7302,1.7302,0.0,0.0,1.221,1.2761,1.2855,1.3196,1.4206,1.3945,1.3968,1.4941,0.0,0.0,0.0,0.0,0.0,0.0,0.0,0.0,1.3197,1.2171,1.1465,1.1253,1.119,1.1038,1.0777,1.0723,1.0638,0.0,0.0,0.0,0.0,0.0,0.0,0.0,1.0652,1.0693,1.0796,0.0,0.0,1.4891,1.4802,0.0,1.7795,1.809,1.7791,1.732,1.7898,1.7356,1.6343,1.6295,1.5834,1.5097,0.0,1.3665,1.333,1.1784,1.1819,1.2128,1.0984,1.1203,1.1605,1.1037,0.0,0.0,1.1077,1.1006,1.0976,0.0,1.0627,1.0565,1.0943,1.0859,1.0827,1.1202,1.1379,1.1952,1.3302,1.3796,1.4096,1.436,1.4272,1.4275,1.4558,1.4638,1.4765,1.498,1.5256,1.541,1.541,1.5468,1.5505,1.5505,1.5812,1.6038,1.6096,1.6624,1.6932,1.6975,1.7208,1.7302,1.7302,1.7302,1.7302,1.7302,1.7302,1.7302,1.7302,1.7302,1.7302,1.7302,1.7302,1.7302,1.7302,1.7302,1.7302,1.7302,0.0,1.1917,1.2395,1.2991,1.3351,1.3947,1.5162,1.5067,1.5154,0.0,0.0,0.0,0.0,0.0,0.0,0.0,0.0,0.0,0.0,1.2369,1.1623,1.1117,1.1097,1.0968,1.0705,1.0693,1.0693,1.0693,0.0,0.0,0.0,1.0389,1.0481,0.0,1.093,1.1024,0.0,0.0,1.3255,1.4297,1.5464,0.0,1.7832,1.8064,1.79,1.7581,1.7817,1.7448,1.6784,1.639,1.6136,0.0,0.0,1.4504,1.4221,0.0,1.2823,1.2653,1.1734,1.1788,1.2046,1.1846,0.0,0.0,0.0,1.1488,1.1226,1.1334,1.0995,1.0687,1.0611,1.0483,1.0392,1.0365,1.0721,1.1249,1.2006,1.2502,1.2875,1.3037,1.3319,1.3576,1.3744,1.4199,1.4558,1.4692,1.4986,1.5148,1.5148,1.5322,1.541,1.541,1.5563,1.5731,1.5892,1.6404,1.6734,1.6903,1.7179,1.7302,1.7302,1.7302,1.7302,1.7302,1.7302,1.7302,1.7302,1.7302,1.7302,1.7302,1.7302,1.7302,1.7302,1.7302,1.7302,1.7302,0.0,0.0,1.2495,1.3068,1.3869,1.4805,1.5991,1.6224,1.6488,0.0,0.0,0.0,0.0,0.0,0.0,0.0,0.0,0.0,0.0,0.0,1.2155,1.1567,1.1322,1.115,1.1051,1.0815,1.0693,1.0693,0.0,0.0,1.0693,1.0693,1.0855,1.1126,0.0,0.0,0.0,0.0,0.0,1.4252,0.0,1.7471,1.7613,1.7949,1.7944,1.7752,1.7785,1.7747,1.7552,1.6669,1.6334,1.6155,1.5375,1.4998,0.0,0.0,0.0,0.0,0.0,0.0,0.0,0.0,0.0,1.2153,0.0,0.0,0.0,1.1583,1.147,0.0,0.0,0.0,0.0,0.9742,0.0,0.0,0.0,1.0986,0.0,1.1545,1.2255,1.2782,1.2882,1.3708,1.4286,1.4496,1.4589,1.4703,1.4893,1.5155,1.5323,1.541,1.541,1.5534,1.5797,1.6147,1.647,1.6815,1.7084,1.7244,1.7302,1.7302,1.7302,1.7302,1.7302,1.7302,1.7302,1.7302,1.7302,1.7302,1.7302,1.7302,1.7302,1.7302,1.7302,1.7302,1.1149,1.1626,0.0,1.2007,1.3372,1.4683,1.5251,1.5784,0.0,0.0,0.0,0.0,0.0,0.0,0.0,0.0,0.0,0.0,1.65,0.0,0.0,1.3128,1.2109,1.1776,1.2278,1.1248,1.0693,1.0693,1.0693,0.0,1.0693,1.0693,1.0874,1.1207,1.1688,0.0,0.0,0.0,1.4132,0.0,1.5695,1.6255,0.0,1.7695,1.7673,1.7209,1.7396,1.7665,1.7818,0.0,1.6645,1.6429,0.0,1.5066,1.5117,1.406,0.0,0.0,0.0,0.0,0.0,0.0,1.3438,0.0,0.0,0.0,1.1722,1.0623,0.0,0.0,0.0,0.0,0.0,0.0,0.0,0.0,1.0275,1.0098,1.0286,1.1295,1.1615,1.1964,1.2502,1.2925,1.3536,1.4426,1.3986,1.4014,1.4856,1.4936,1.509,1.5402,1.541,1.5424,1.5468,1.5782,1.6118,1.6448,1.68,1.7078,1.7302,1.7302,1.7302,1.7302,1.7302,1.7302,1.7302,1.7302,1.7302,1.7302,1.7302,1.7302,1.7302,1.7302,1.7302,1.7302,1.0968,1.1747,0.0,1.1766,1.3181,1.4564,1.5113,1.6598,1.7813,0.0,0.0,0.0,0.0,0.0,0.0,0.0,0.0,1.6593,0.0,0.0,0.0,1.3918,1.3106,1.2604,1.2494,1.1661,1.1051,1.0693,1.0693,1.0632,0.0,0.0,1.1134,1.2224,1.1827,0.0,1.3881,0.0,1.4006,0.0,0.0,0.0,0.0,1.7055,1.7358,1.7312,1.7632,1.7861,1.7881,0.0,1.6697,0.0,0.0,0.0,0.0,0.0,0.0,0.0,0.0,0.0,0.0,0.0,0.0,0.0,1.2466,0.0,1.2015,0.0,0.0,0.0,0.0,0.0,0.0,0.0,1.0045,0.0,0.0,0.0,0.9833,1.0358,0.0,0.0,1.2127,1.2348,1.2677,1.3294,1.3258,1.3477,1.4051,1.4594,1.4966,1.5104,1.5287,1.541,1.541,1.5731,1.6067,1.6396,1.6749,1.7041,1.7302,1.7302,1.7302,1.7302,1.7302,1.7302,1.7302,1.7302,1.7302,1.7302,1.7302,1.7302,1.7302,1.7302,1.7302,1.7302,1.0992,0.0,0.0,0.0,1.3236,1.4819,1.558,1.7318,1.8605,0.0,0.0,0.0,2.0626,2.0278,0.0,0.0,1.9243,1.81,0.0,0.0,1.5229,1.4999,1.4103,1.3424,1.2999,1.2108,1.1342,1.0742,1.0614,1.0534,0.0,0.0,1.112,1.2534,1.2051,1.2826,1.4461,0.0,1.4226,1.4796,1.5333,1.578,1.6167,1.6867,1.7313,1.7598,1.79,1.7991,1.7883,1.7142,1.6898,0.0,1.6736,0.0,0.0,0.0,0.0,0.0,1.4086,0.0,0.0,0.0,0.0,0.0,0.0,0.0,0.0,0.0,0.0,0.0,0.0,0.0,0.0,0.0,0.0,1.018,0.0,0.9222,0.0,0.0,0.0,0.0,1.1668,1.1676,1.1813,1.2334,1.2445,1.2775,1.3455,1.4226,1.4737,1.49,1.5242,1.541,1.541,1.5644,1.5979,1.6396,1.6653,1.6961,1.7302,1.7302,1.7302,1.7302,1.7302,1.7302,1.7302,1.7302,1.7302,1.7302,1.7302,1.7302,1.7302,1.7302,1.7302,1.7302,1.1289,1.1951,0.0,0.0,0.0,1.5566,1.6756,1.7498,1.8133,0.0,0.0,0.0,0.0,0.0,0.0,0.0,0.0,1.9594,1.9927,0.0,1.6852,1.6725,1.5085,1.4199,0.0,1.2571,1.1422,1.0891,1.0366,1.0379,1.0871,0.0,1.0584,1.1498,1.2501,1.3131,1.3519,1.445,1.5351,1.6092,1.5608,1.6186,1.7347,0.0,1.769,1.7971,1.8008,0.0,0.0,1.7526,1.738,0.0,0.0,0.0,0.0,0.0,0.0,0.0,0.0,0.0,0.0,1.3746,0.0,0.0,0.0,0.0,1.303,0.0,0.0,0.0,0.0,0.0,0.0,0.0,0.0,0.0,0.0,0.0,0.0,0.0,0.0,0.0,0.0,1.0836,1.1026,1.1945,1.148,1.1855,1.3411,1.384,1.4296,1.4878,1.5242,1.541,1.541,1.5417,1.5752,1.6389,1.6404,1.6741,1.7302,1.7302,1.7302,1.7302,1.7302,1.7302,1.7302,1.7302,1.7302,1.7302,1.7302,1.7302,1.7302,1.7302,1.7302,1.7302,0.0,0.0,0.0,0.0,0.0,1.5743,1.7349,1.7911,1.8622,0.0,0.0,0.0,0.0,2.1755,2.172,0.0,0.0,2.0563,2.0242,1.8908,0.0,0.0,0.0,1.5738,0.0,1.4043,1.2896,1.1956,1.1774,1.1524,1.1237,1.1057,0.0,1.2275,1.2638,1.3367,0.0,0.0,0.0,0.0,0.0,1.6872,1.78,0.0,1.7905,1.7991,1.7991,1.7991,0.0,1.7842,1.7607,1.7419,1.7539,1.7155,1.6724,1.6851,1.6703,1.6421,0.0,0.0,1.6351,1.4816,0.0,0.0,0.0,0.0,0.0,0.0,0.0,0.0,0.0,0.0,0.0,0.0,0.0,0.0,0.0,0.0,0.0,0.0,0.0,0.0,0.0,1.0213,1.0492,1.1033,1.0872,1.1363,1.2757,1.3162,1.3733,1.4604,1.492,1.5191,1.5402,1.541,1.5745,1.6389,1.6389,1.6726,1.7302,1.7302,1.7302,1.7302,1.7302,1.7302,1.7302,1.7302,1.7302,1.7302,1.7302,1.7302,1.7302,1.7302,1.7302,1.7302,1.2713,0.0,0.0,0.0,0.0,0.0,1.7505,0.0,0.0,0.0,2.0579,0.0,2.3069,0.0,2.2585,0.0,2.2476,2.1751,2.0758,2.0049,0.0,1.9145,1.8136,0.0,0.0,0.0,1.4138,1.2867,1.2469,1.204,1.1564,1.1388,0.0,0.0,0.0,1.3462,1.4339,0.0,1.5854,0.0,0.0,1.749,0.0,0.0,1.7991,1.7991,0.0,1.7991,1.7991,1.7991,1.7832,1.7656,1.793,1.761,1.7204,1.7377,1.7244,1.697,1.6603,1.6798,0.0,1.5524,1.5209,0.0,1.3521,0.0,1.3599,0.0,0.0,0.0,0.0,0.0,0.0,0.0,0.0,0.0,0.0,0.8911,0.0,0.0,0.0,0.0,0.0,0.9709,0.9964,1.0396,1.0425,1.0946,1.2116,1.2709,1.3404,1.4286,1.4694,1.5061,1.5402,1.541,1.5673,1.6228,1.6338,1.6668,1.7165,1.7251,1.7302,1.7302,1.7302,1.7302,1.7302,1.7302,1.7302,1.7302,1.7302,1.7302,1.7302,1.7302,1.7302,1.7302,0.0,0.0,0.0,0.0,1.5617,0.0,0.0,0.0,2.0603,0.0,2.1851,2.294,2.4147,2.3879,2.3834,2.4418,2.4058,2.3151,2.162,2.1476,0.0,0.0,1.9084,1.8554,1.7508,0.0,0.0,0.0,1.2535,1.2005,1.1969,1.1431,0.0,0.0,1.3059,0.0,1.3467,1.5463,1.6471,1.6804,1.7659,1.7991,1.7991,1.7991,1.7991,1.7991,1.7991,1.7991,1.7991,1.7991,1.7991,1.7991,1.7991,1.7991,1.7991,1.7991,1.7991,1.7869,1.7321,1.7165,1.6949,1.5939,1.5656,0.0,0.0,0.0,1.4513,0.0,0.0,0.0,0.0,0.0,0.0,0.0,0.0,0.0,0.0,0.0,0.0,0.0,0.0,0.0,0.0,0.9341,0.9436,1.0009,1.0068,1.0528,0.0,1.2455,1.3258,1.3979,1.4569,1.5046,1.5402,1.541,1.557,1.5899,1.6243,1.6587,1.691,1.7179,1.7302,1.7302,1.7302,1.7302,1.7302,1.7302,1.7302,1.7302,1.7302,1.7302,1.7302,1.7302,1.7302,1.7302,1.406,1.4927,1.5777,0.0,1.616,1.6832,0.0,0.0,0.0,0.0,2.2041,2.2704,2.381,2.3818,2.3814,2.3964,2.3872,0.0,0.0,0.0,0.0,2.1407,2.0227,1.9277,1.8602,1.7532,0.0,1.5213,0.0,1.3481,1.3083,0.0,0.0,0.0,0.0,0.0,1.4006,1.5629,1.6657,1.7266,1.7793,1.7991,1.7991,0.0,1.7991,1.7991,1.7991,1.7991,1.7991,1.7991,1.7991,1.7991,1.7991,1.7991,1.7991,1.7991,1.7991,1.804,1.8183,1.8214,1.801,1.7151,1.6421,1.5579,0.0,0.0,0.0,0.0,0.0,0.0,0.0,0.0,0.0,0.0,0.0,0.0,0.0,0.0,0.0,0.9226,0.0,0.0,0.0,0.9092,0.9266,0.9414,0.9614,1.0286,1.1525,1.1833,1.2596,1.3957,1.4396,1.486,1.5382,1.541,1.557,1.5899,1.6243,1.6587,1.691,1.7179,1.7302,1.7302,1.7302,1.7302,1.7302,1.7302,1.7302,1.7302,1.7302,1.7302,1.7302,1.7302,1.7302,1.7302,1.4959,0.0,0.0,1.7372,0.0,0.0,1.9459,1.9769,0.0,2.1888,2.2558,0.0,2.3734,2.4186,2.4463,2.4463,2.4463,0.0,2.383,0.0,0.0,2.2221,2.1563,2.0684,1.9597,1.8575,0.0,1.6057,0.0,0.0,1.3493,0.0,0.0,0.0,0.0,1.4113,1.3898,1.5522,1.6658,1.7438,1.7842,1.7991,0.0,1.7991,1.7991,1.7991,1.7991,1.7991,1.7991,1.7991,1.7991,1.7991,1.7991,1.7991,1.803,1.8215,1.8264,1.8361,1.8791,1.862,1.8232,1.7788,1.6974,1.5983,1.4723,1.4421,1.4131,0.0,1.3172,1.3148,0.0,0.0,0.0,0.0,0.0,0.0,0.0,0.0,0.0,0.0,0.9398,0.0,0.0,0.909,0.9141,0.8994,0.9365,0.9936,1.0682,1.1385,1.2314,1.3521,1.4169,1.4799,1.5402,1.541,1.557,1.5899,1.6243,1.6587,1.691,1.7179,1.7302,1.7302,1.7302,1.7302,1.7302,1.7302,1.7302,1.7302,1.7302,1.7302,1.7302,1.7302,1.7302,1.7302,1.5899,0.0,0.0,0.0,0.0,0.0,0.0,2.0811,0.0,2.2012,0.0,2.3696,2.3696,2.4481,2.4998,2.4998,0.0,2.4618,2.3744,2.4012,2.3603,2.2262,2.257,2.1987,2.0276,1.9324,1.8043,0.0,0.0,0.0,0.0,0.0,0.0,0.0,0.0,0.0,0.0,1.5413,1.6604,1.7438,1.7842,1.7991,1.7991,1.7991,1.803,1.8069,1.8069,1.804,1.7991,1.7991,1.8047,1.8069,1.8069,1.8118,1.8252,1.8578,1.8685,1.8783,1.9248,1.8739,1.8062,1.8014,1.73,1.6321,1.5164,1.484,1.4511,1.3575,1.2941,1.2703,0.0,0.0,0.0,0.0,0.0,0.0,0.0,0.0,0.0,0.0,0.0,0.0,0.0,0.0,0.0,0.0,0.9226,0.9579,0.9659,1.0982,1.2127,1.2969,1.3898,1.467,1.5337,1.5388,1.557,1.5899,1.6243,1.6587,1.691,1.7179,1.7302,1.7302,1.7302,1.7302,1.7302,1.7302,1.7302,1.7302,1.7302,1.7302,1.7302,1.7302,1.7209,1.7115,0.0,0.0,0.0,0.0,0.0,1.9632,2.0711,2.078,2.0914,2.1467,2.2473,2.3145,2.3145,2.3301,2.339,2.339,2.339,0.0,0.0,0.0,0.0,2.2211,2.1866,2.1134,1.9992,1.9056,1.7853,0.0,0.0,0.0,0.0,0.0,0.0,0.0,0.0,0.0,1.5169,1.582,0.0,1.7438,1.7842,1.7991,1.7991,1.7991,1.8205,1.849,1.849,1.8283,1.7991,1.7991,1.8225,1.849,1.849,1.8752,1.91,1.915,1.918,1.9268,1.9669,1.9156,1.843,1.8079,1.7147,1.6039,1.5118,1.4504,1.4108,1.3918,1.3563,1.3183,1.2745,0.0,0.0,0.0,0.0,0.0,0.0,0.0,0.0,0.0,0.0,0.9833,0.0,0.0,0.0,0.0,0.0,0.9488,0.9987,1.0287,1.1224,1.2958,1.3433,1.4106,1.498,1.525,1.557,1.5899,1.6243,1.6587,1.691,1.7179,1.7302,1.7302,1.7302,1.7302,1.7302,1.7302,1.7302,1.7302,1.7302,1.7302,1.7302,1.7302,1.6772,1.6177,0.0,0.0,0.0,0.0,0.0,0.0,0.0,2.0586,2.078,2.1332,2.186,2.2179,2.2179,2.267,2.2995,2.2995,2.2995,2.2995,2.2995,2.2757,2.2499,2.2212,2.1947,2.128,2.0126,1.9218,1.8048,1.6616,0.0,0.0,1.3177,0.0,0.0,0.0,0.0,1.4061,0.0,0.0,0.0,1.7458,1.8059,1.8313,1.8342,1.8584,1.8799,1.8957,1.8957,1.8848,1.8672,1.8672,1.8809,1.8957,1.8957,1.9121,1.9336,1.9551,1.9609,1.9707,2.0137,1.9291,1.825,1.8055,1.6875,1.564,1.5038,1.4575,1.4206,1.4037,1.3718,1.3294,1.2626,1.2008,0.0,0.0,0.0,0.0,0.0,0.0,0.0,0.0,0.0,0.0,0.0,0.0,0.0,0.0,0.0,0.9209,0.9806,1.017,1.1092,1.2684,1.3404,1.4136,1.4893,1.5228,1.5651,1.6148,1.6323,1.6646,1.7106,1.7236,1.7302,1.7302,1.7302,1.7302,1.7302,1.7302,1.7302,1.7302,1.7302,1.7302,1.7302,1.7302,1.6655,1.5869,0.0,1.9726,0.0,0.0,2.0021,0.0,2.036,2.0633,2.0972,2.1194,2.1229,2.1229,2.1229,2.1968,2.2491,2.2491,2.2491,2.2491,2.2491,2.2491,2.2301,2.1883,2.1862,2.134,2.0231,1.9362,1.8208,0.0,0.0,0.0,0.0,0.0,0.0,0.0,0.0,0.0,0.0,0.0,1.6936,1.7859,1.8488,1.8752,1.8801,1.916,1.9346,1.9442,1.9442,1.9501,1.9579,1.9579,1.9382,1.9175,1.9369,1.9372,1.9396,1.9895,2.0049,2.0089,2.0275,1.9184,1.7957,1.7775,1.655,1.5337,1.5061,1.4743,1.4438,1.4162,1.377,1.3294,1.2626,1.2235,0.0,0.0,0.0,0.0,0.0,0.0,0.0,0.0,0.0,0.0,0.9623,0.0,0.0,0.0,0.0,0.9041,0.9572,1.0104,1.1004,1.2339,1.3301,1.4084,1.4688,1.5176,1.5745,1.6389,1.6389,1.6726,1.7302,1.7302,1.7302,1.7302,1.7302,1.7302,1.7302,1.7302,1.7302,1.7302,1.7302,1.7302,1.7302,1.7302,1.6537,1.549,0.0,0.0,0.0,0.0,0.0,0.0,2.0753,2.1322,2.1506,2.077,2.0671,2.0671,2.0671,2.0759,2.0828,2.0828,2.0828,2.0828,2.0828,2.0828,2.0808,2.0749,2.0749,2.0484,1.9957,1.9085,1.8,0.0,0.0,1.4269,1.3439,1.2627,0.0,0.0,0.0,0.0,0.0,1.7077,1.7995,1.9129,1.9189,1.9228,1.9247,1.9286,1.9531,1.9835,1.9835,2.0107,2.0478,2.0478,1.9678,1.8804,1.959,1.9583,1.9447,2.0294,2.0527,2.0372,1.9628,1.8727,1.7816,1.7025,1.6105,1.5402,1.5366,1.4911,1.4477,1.4467,1.3949,1.3294,1.2626,1.2958,1.2946,0.0,0.0,0.0,0.0,0.0,1.0953,1.0601,0.0,0.0,0.0,0.8826,0.0,0.0,0.9156,0.9283,0.9586,0.9659,1.0419,1.1996,1.2728,1.3411,1.4089,1.4957,1.5745,1.6389,1.6389,1.6726,1.7302,1.7302,1.7302,1.7302,1.7302,1.7302,1.7302,1.7302,1.7302,1.7302,1.7302,1.7302,1.7302,1.7302,1.6082,1.4435,0.0,0.0,0.0,0.0,0.0,0.0,0.0,2.1706,2.1778,2.1426,2.1378,2.1378,2.1378,2.1378,2.127,2.0986,2.0967,2.0859,2.0625,2.0605,2.0605,2.0605,2.0605,2.0498,2.0332,1.9698,1.8762,0.0,0.0,1.5206,1.3854,1.378,1.4139,0.0,0.0,1.6518,1.7513,1.7942,1.8584,1.9325,1.9561,1.9668,1.9697,1.997,2.0175,2.0245,1.9725,1.9654,1.9736,1.9224,1.9379,1.986,2.0207,2.0207,2.005,1.9873,1.9814,1.9628,1.8767,1.7876,1.7147,1.6801,1.6044,1.541,1.541,1.4933,1.4511,1.4511,1.3971,1.3411,1.3155,1.2984,1.287,1.2763,0.0,0.0,0.0,0.0,0.0,1.066,0.0,0.9813,0.0,0.0,0.0,0.0,0.0,0.889,0.9564,0.9784,1.047,1.173,1.276,1.3539,1.4001,1.492,1.5745,1.6389,1.6389,1.6726,1.7302,1.7302,1.7302,1.7302,1.7302,1.7302,1.7302,1.7302,1.7302,1.7302,1.7302,1.7302,1.7232,1.6615,1.5514,1.422,2.1043,0.0,2.1621,0.0,2.161,2.185,2.2056,2.2178,2.2256,2.2256,2.2256,2.2158,2.1935,2.1905,2.1768,2.1435,2.1405,2.1289,2.0996,2.0977,2.0977,2.0977,2.085,0.0,2.0781,2.0205,1.9396,1.8389,1.7513,1.6385,1.5083,1.541,0.0,0.0,1.7025,1.7688,1.8418,1.881,1.924,1.9706,1.998,2.0107,2.0137,2.0468,2.045,2.0128,1.9519,1.9143,1.8816,1.8198,1.8818,1.9844,1.9844,1.9658,1.9373,1.9026,1.8915,1.8727,1.7856,1.7159,1.6637,1.6378,1.5865,1.541,1.541,1.4933,1.4433,1.4243,1.3832,1.3492,1.3492,1.3119,1.2874,1.317,0.0,0.0,0.0,1.1781,0.0,0.0,1.0154,0.9775,0.9616,0.9356,0.0,0.0,0.0,0.9197,0.9863,1.0207,1.085,0.0,0.0,0.0,1.414,1.4971,1.5745,1.6389,1.6389,1.6726,1.7302,1.7302,1.7302,1.7302,1.7302,1.7302,1.7302,1.7302,1.7302,1.7302,1.7302,1.7302,1.7185,1.6183,1.5151,1.4148,2.1113,2.1201,2.1357,2.1817,2.2217,2.249,2.2479,2.284,2.3081,2.3081,2.3081,2.2791,2.2003,2.1905,2.1905,2.1896,2.1896,2.1896,2.1886,2.1886,2.1886,0.0,0.0,2.119,2.119,2.0342,1.9707,1.9286,0.0,0.0,1.736,1.737,1.738,1.7419,1.8225,1.884,1.9315,1.9717,2.0156,2.0586,2.0595,2.0595,2.0595,2.0605,2.0069,1.9321,1.9301,1.8756,1.8017,1.7997,1.8017,1.8037,1.8037,1.7452,1.6923,1.7775,1.8017,1.7836,1.6956,1.6719,1.6501,1.5631,1.541,1.541,1.541,1.4933,1.4308,1.3638,1.3517,1.3492,1.3492,1.3484,1.3272,1.2619,0.0,0.0,0.0,1.132,0.0,1.0645,0.9773,0.9312,0.9572,0.9356,0.0,0.0,0.0,0.0,0.0,0.0,0.0,1.2458,1.3462,0.0,1.4477,1.5109,1.5745,1.6389,1.6389,1.6726,1.7302,1.7302,1.7302,1.7302,1.7302,1.7302,1.7302,1.7302,1.7302,1.7302,1.7302,1.7302,1.7185,1.6183,1.5151,1.4148,2.2059,2.2313,2.2535,2.2693,2.283,2.2918,2.2918,2.3013,2.3091,2.3091,2.3091,2.2994,2.2752,2.2723,2.2606,0.0,2.2314,2.2197,0.0,2.1905,2.1905,2.1905,2.1758,2.168,2.168,2.1406,2.0918,2.0194,0.0,0.0,0.0,1.8225,1.8537,1.9121,1.9366,1.9746,2.0185,2.0322,2.0459,2.0605,2.0605,2.0245,1.9716,1.9716,1.9173,1.8339,1.7735,1.735,1.7025,1.6435,1.6237,1.6237,1.6237,1.6858,1.7533,1.7208,1.7107,1.6923,1.6044,1.5803,1.5748,1.5465,1.541,1.541,1.541,1.4933,1.4367,1.3935,1.3671,1.3492,1.3492,1.3492,1.3426,1.3221,1.2882,0.0,1.2255,0.0,1.1063,1.0946,1.0484,1.0191,1.0265,1.0206,0.0,0.0,0.0,0.0,0.0,0.0,0.0,0.0,1.336,0.0,1.4504,1.5328,1.5965,1.6396,1.6639,1.6946,1.7302,1.7302,1.7302,1.7302,1.7302,1.7302,1.7302,1.7302,1.7302,1.7302,1.7302,1.6873,1.6153,1.5151,1.4118,1.3065,2.2723,2.2937,2.3091,2.3091,2.2806,2.2577,2.2577,2.2249,2.2138,2.2533,2.2577,2.2709,2.3047,2.3091,0.0,2.2752,2.2723,2.2615,2.2373,2.2353,2.2353,2.2353,2.2207,2.2119,2.2119,2.1984,0.0,2.1104,2.0781,2.0362,1.9835,1.9835,2.0118,2.0654,2.0654,2.0801,2.1104,2.1104,2.1104,2.1064,2.0686,2.0195,1.967,1.9315,1.866,1.7825,1.7284,1.6865,1.6494,1.5966,1.5782,1.5782,1.5782,1.6523,1.7228,1.6464,1.6201,1.6085,1.5548,1.541,1.541,1.541,1.541,1.5373,1.5236,1.4913,1.4523,1.4096,1.384,1.3638,1.3521,1.3492,1.3492,1.3492,1.295,1.2502,1.2502,0.0,1.1107,0.0,0.0,0.0,0.0,1.0989,1.1128,0.0,0.0,0.0,0.0,0.0,1.2222,1.2735,1.3773,1.4501,1.4823,1.5534,1.6067,1.6419,1.6843,1.7135,1.7302,1.7302,1.7302,1.7302,1.7302,1.7302,1.7302,1.7302,1.7084,1.6732,1.6732,1.6129,1.5103,1.407,1.3282,1.2562,2.2894,2.2894,2.2894,0.0,2.217,2.1606,2.1606,2.0804,2.0525,2.1472,2.1606,2.1939,2.2796,2.2894,2.2894,2.2894,0.0,0.0,2.3091,2.3091,2.3091,2.3091,2.2742,2.2537,2.2537,2.2168,2.1963,2.1934,2.1904,2.1905,2.1905,2.1905,2.1905,2.1905,2.1905,2.1905,2.1905,2.1843,2.1802,2.1709,2.0713,2.0262,2.0114,1.9243,1.8383,1.7603,1.7603,1.7086,1.6389,1.6389,1.6389,1.6389,1.6389,1.6389,1.6279,1.5644,1.5454,1.5439,1.5439,1.5424,1.541,1.541,1.541,1.5329,1.5002,1.4922,1.4732,1.4172,1.403,1.3905,1.3587,1.3514,1.3484,1.347,1.2911,1.2494,1.2489,1.173,1.1188,0.0,0.0,0.0,1.124,1.1767,1.2094,0.0,0.0,0.0,0.0,0.0,1.2741,1.3964,1.4584,1.5068,1.5439,1.5768,1.6111,1.6462,1.704,1.7302,1.7302,1.7302,1.7302,1.7302,1.7302,1.7255,1.7209,1.7209,1.6608,1.5697,1.5697,1.508,1.4076,1.3065,1.2654,1.2465,0.0,0.0,2.0894,2.0894,2.0706,2.0548,2.0548,2.0345,2.0277,2.0525,2.0548,2.0638,2.0863,2.0894,2.0894,2.0894,2.2249,2.3091,2.3091,2.3091,2.3091,2.3091,2.3003,2.2967,2.2967,2.2847,2.2664,2.2363,2.2041,2.1905,2.1905,2.1905,2.1905,2.1905,2.1905,2.1905,2.1843,2.1078,2.0755,2.0671,1.9712,1.8935,1.831,1.8102,1.7472,1.672,1.672,1.6588,1.6389,1.6389,1.6389,1.6389,1.6389,1.6389,1.636,1.6213,1.5979,1.5782,1.5782,1.56,1.541,1.541,1.541,1.5388,1.5287,1.5082,1.4856,1.473,1.4326,1.3979,1.3898,1.366,1.3411,1.3162,1.2765,1.2455,1.2354,1.2156,1.2071,0.0,1.2473,1.264,1.264,1.2995,1.3123,0.0,0.0,1.3633,1.3793,1.3924,1.3984,1.3993,1.4584,1.5177,1.5775,1.6104,1.6543,1.7083,1.7229,1.7302,1.7302,1.7302,1.7302,1.7302,1.7302,1.685,1.6153,1.6153,1.5555,1.4651,1.4651,1.4004,1.3041,1.2799,1.2204,1.1531,2.0209,2.0209,2.0209,2.0209,1.9855,1.9559,1.9559,1.917,1.9032,1.949,1.9559,1.9718,2.0141,2.0209,2.0209,2.0209,2.1596,2.2467,2.2467,2.2872,2.3091,2.3091,2.3091,2.3091,2.3091,2.3091,2.2984,2.2771,2.2547,2.244,2.244,2.244,2.244,2.244,2.244,2.2217,2.1781,2.1225,2.0732,2.0232,1.9289,1.8633,1.8157,1.7694,1.7229,1.6806,1.6806,1.6806,1.6806,1.6806,1.6806,1.6806,1.6806,1.6806,1.6806,1.6806,1.6484,1.6118,1.6118,1.587,1.5592,1.5446,1.541,1.541,1.541,1.525,1.5123,1.5091,1.4813,1.4538,1.4309,1.4126,1.3832,1.3311,1.3105,1.2925,1.2695,1.2666,1.2716,1.2814,1.3267,1.3558,1.3558,1.3991,1.4216,1.4024,1.4323,0.0,1.4605,1.5034,1.5077,1.4615,1.5185,1.5673,1.6078,1.6544,1.6956,1.7302,1.7426,1.7426,1.7302,1.7426,1.7162,1.6608,1.6608,1.6035,1.5103,1.5103,1.4507,1.3572,1.3572,1.292,1.2009,1.2009,1.1673,1.1194,1.9755,1.9755,1.9755,1.9755,1.9101,1.8565,1.8565,1.7855,1.7606,1.8473,1.8565,1.888,1.9687,1.9755,1.9755,1.9755,2.0692,2.1329,2.1463,2.2214,2.2731,2.2872,2.2894,2.296,2.3091,2.3091,2.3091,2.3091,2.3091,2.3091,2.3091,2.3091,2.3091,2.3091,2.296,2.2444,2.1672,2.1396,2.0759,1.9923,1.8972,1.8565,1.8473,1.7629,1.7302,1.7302,1.7302,1.7302,1.7302,1.7302,1.7302,1.7302,1.7302,1.7302,1.7302,1.7302,1.6938,1.6528,1.6499,1.6221,1.5906,1.5598,1.5517,1.5531,1.55,1.5514,1.5495,1.543,1.5385,1.5222,1.482,1.4675,1.4347,1.3588,1.3549,1.3472,1.3074,0.0,1.3256,1.332,1.3873,1.4284,1.4337,1.4861,1.5211,1.5265,1.5534,1.5596,1.5357,1.5875,1.5993,1.5567,1.6006,1.6329,1.6499,1.7041,1.7369,1.7419,1.7644,1.7644,1.7419,1.7551,1.6951,1.5869,1.5829,1.5134,1.4052,1.4148,1.3499,1.2465,1.2465,1.1941,1.1194,1.1194,1.1194,1.1194,1.7761,1.7761,1.7761,1.7761,1.7622,1.7536,1.7536,1.7396,1.7349,1.7512,1.7536,1.7598,1.7738,1.7761,1.7761,1.7761,1.8673,1.9581,2.0376,2.057,2.1029,2.1872,2.1917,2.228,2.3069,2.3091,2.3091,2.3091,2.3091,2.3091,2.3091,2.3091,2.3091,2.3079,2.228,2.1828,2.1583,1.9946,1.9155,1.8926,1.7917,1.7536,1.7512,1.7349,1.7302,1.7302,1.7302,1.7302,1.7302,1.7302,1.7302,1.7302,1.7302,1.7302,1.7302,1.7302,1.7229,1.7121,1.6873,1.6587,1.6286,1.6113,1.6074,1.6063,1.6003,1.5984,1.5997,1.5977,1.5741,1.5533,1.5466,1.4977,1.4329,1.3472,1.3479,1.338,1.2753,0.0,1.3923,1.4318,1.4756,1.513,1.5426,1.5561,1.5723,1.6004,1.6075,1.6217,1.6434,1.6552,1.6614,1.666,1.6572,1.6815,1.74,1.7766,1.7964,1.797,1.8017,1.8017,1.7963,1.7372,1.6763,1.6143,1.5889,1.4711,1.2969,1.3433,1.2762,1.1433,1.1433,1.134,1.1194,1.1194,1.1194,1.1194,1.7302,1.7302,1.7302,1.7302,1.7302,1.7302,1.7302,1.7302,1.7302,1.7302,1.7302,1.7302,1.7302,1.7302,1.7302,1.7302,1.7715,1.8172,1.8603,1.9619,2.0413,2.0872,2.0894,2.1096,2.153,2.1543,2.1797,2.2347,2.2347,2.2599,2.3091,2.3091,2.2818,2.2325,2.1895,2.1127,2.0082,1.9178,1.8496,1.7948,1.7489,1.7302,1.7302,1.7302,1.7302,1.7302,1.7302,1.7302,1.7302,1.7302,1.7302,1.7302,1.7302,1.7302,1.7302,1.7302,1.7403,1.7453,1.7151,1.7064,1.6996,1.6752,1.6541,1.6417,1.6379,1.6224,1.6128,1.6245,1.6134,1.6012,1.5947,1.5514,1.4995,1.4413,1.4216,1.4036,1.3726,1.4212,1.468,1.4901,1.5411,1.5793,1.5944,1.6134,1.6297,1.6456,1.6472,1.6543,1.6681,1.69,1.7062,1.7114,1.7268,1.7525,1.7865,1.818,1.8234,1.811,1.8257,1.8234,1.8087,1.7442,1.6655,1.5751,1.5218,1.4148,1.2772,1.302,1.2705,1.2029,1.1731,1.1634,1.1609,1.1316,1.1194,1.1194,1.7302,1.7302,1.7302,1.7302,1.7302,1.7302,1.7302,1.7302,1.7326,1.738,1.738,1.7426,1.7466,1.7426,1.738,1.738,1.7333,1.7302,1.7302,1.8696,1.9619,1.9846,2.0073,2.0209,2.0209,2.0209,2.057,2.1351,2.1351,2.1717,2.2435,2.2435,2.2028,2.1329,2.1127,2.0204,1.8788,1.8542,1.8017,1.7302,1.7302,1.7302,1.7302,1.7302,1.7302,1.7302,1.7302,1.7302,1.7302,1.7302,1.7302,1.7309,1.738,1.738,1.7403,1.7473,1.7691,1.7809,1.7507,1.7561,1.7659,1.7366,1.7098,1.6875,1.6778,1.6561,1.6386,1.6458,1.6476,1.6439,1.6341,1.6039,1.569,1.5299,0.0,1.4819,1.4685,1.5033,1.5351,1.5411,1.5888,1.6238,1.6297,1.6551,1.6689,1.6689,1.6689,1.6749,1.6837,1.7127,1.7286,1.728,1.779,1.8138,1.8265,1.8473,1.8473,1.8272,1.8303,1.821,1.7986,1.7209,1.6278,1.5199,1.4573,1.3721,1.2813,1.291,1.291,1.2764,1.2346,1.2102,1.1956,1.1541,1.1316,1.1223,1.7302,1.7302,1.7302,1.7302,1.7302,1.7302,1.7302,1.7302,1.738,1.7628,1.7675,1.7768,1.8017,1.7807,1.7675,1.7675,1.745,1.7302,1.7302,1.7419,1.7917,1.8857,1.9741,2.0209,2.0209,2.0209,2.0232,2.03,2.03,2.0345,2.0413,2.0413,2.0376,2.0277,1.9399,1.8926,1.875,1.7808,1.7372,1.7302,1.7302,1.7302,1.7302,1.7302,1.7302,1.7302,1.7302,1.7302,1.7302,1.7302,1.7302,1.7333,1.7581,1.7675,1.7721,1.797,1.8234,1.8381,1.811,1.8048,1.8034,1.7885,1.7822,1.771,1.7336,1.7241,1.7101,1.674,1.6677,1.6661,1.6657,1.6384,1.5996,1.5463,0.0,0.0,1.4958,1.5333,1.578,1.6087,1.6174,1.6313,1.6626,1.6681,1.6689,1.6689,1.6689,1.686,1.7244,1.7284,1.727,1.7206,1.789,1.8425,1.875,1.8758,1.8758,1.8735,1.8071,1.7738,1.7692,1.6214,1.5259,1.4728,1.4436,1.3721,1.2837,1.3273,1.3201,1.2813,1.2764,1.2443,1.2005,1.1956,1.1634,1.1267,1.7302,1.7302,1.7302,1.7302,1.7302,1.7356,1.7527,1.7551,1.7644,1.79,1.7955,1.7994,1.8087,1.7861,1.7698,1.7698,1.745,1.7302,1.7302,1.7302,1.7466,1.7855,1.8211,1.8396,1.8396,1.8396,1.8719,1.933,1.933,1.9627,2.0209,2.0209,1.99,1.9307,1.8972,1.845,1.7831,1.7466,1.7302,1.7302,1.7302,1.7302,1.7302,1.7302,1.7302,1.7302,1.7302,1.7302,1.7326,1.7504,1.7551,1.7597,1.7854,1.7955,1.8001,1.8264,1.8435,1.8504,1.8535,1.8527,1.8519,1.8478,1.8311,1.8098,1.7947,1.7761,1.757,1.7405,1.7215,1.7072,1.7072,1.6595,1.6198,1.6205,0.0,1.5694,1.5704,1.5881,1.6055,1.619,1.6376,1.6567,1.6681,1.6689,1.6689,1.6689,1.6924,1.7135,1.7292,1.7271,1.7109,1.6841,1.7104,1.7526,1.8118,1.7652,1.7676,1.8118,1.7372,1.7021,1.6974,1.5883,1.5289,1.5099,1.4532,1.4082,1.3745,1.3913,1.3889,1.3697,1.337,1.3104,1.288,1.2589,1.237,1.2224,1.7302,1.7302,1.7302,1.7302,1.738,1.7504,1.7675,1.7768,1.7931,1.8187,1.8234,1.8249,1.8319,1.8094,1.7908,1.7838,1.7667,1.7466,1.7309,1.7302,1.7302,1.7302,1.7302,1.7302,1.7302,1.7302,1.7645,1.8334,1.8334,1.865,1.9285,1.9285,1.8941,1.8334,1.8334,1.7948,1.7302,1.7302,1.7302,1.7302,1.7302,1.7302,1.7302,1.7302,1.7302,1.7309,1.7403,1.7426,1.7481,1.7745,1.7838,1.7861,1.8141,1.8272,1.8365,1.8543,1.8589,1.8612,1.8758,1.8804,1.8804,1.8804,1.8622,1.8438,1.8327,1.8112,1.7928,1.7816,1.761,1.7459,1.7459,1.7045,1.6738,1.686,1.65,1.6242,1.6329,1.6353,1.6353,1.6353,1.6567,1.6689,1.6689,1.6821,1.6884,1.6884,1.7231,1.7399,1.7272,1.7101,1.6759,1.6244,1.5991,1.6244,1.696,1.6723,1.6857,1.7342,1.6598,1.6228,1.6197,1.5415,1.5057,1.5034,1.4508,1.4298,1.4298,1.4298,1.4298,1.425,1.3702,1.3418,1.3225,1.2735,1.254,1.257,1.7302,1.7302,1.7302,1.7302,1.7527,1.7698,1.7706,1.7924,1.8203,1.8458,1.8504,1.8574,1.8781,1.8612,1.8381,1.8133,1.811,1.787,1.7349,1.7309,1.7309,1.7309,1.7302,1.7302,1.7302,1.7302,1.7302,1.7302,1.7302,1.7302,1.7302,1.7302,1.7302,1.7302,1.7302,1.7302,1.7302,1.7302,1.7302,1.7302,1.7302,1.7302,1.7302,1.7302,1.7302,1.7333,1.7605,1.7698,1.7745,1.8017,1.811,1.8156,1.8435,1.8635,1.8804,1.8804,1.8804,1.8804,1.8804,1.8804,1.8804,1.8804,1.8804,1.8709,1.8383,1.8303,1.82,1.7872,1.7822,1.7793,1.7793,1.7793,1.7681,1.7355,1.7307,1.7159,1.6753,1.6705,1.6705,1.6705,1.6705,1.6705,1.6705,1.7072,1.7307,1.7307,1.761,1.7622,1.7213,1.6816,1.6228,1.5408,1.4675,1.4651,1.5391,1.618,1.6588,1.6588,1.5771,1.5384,1.5361,1.4627,1.4298,1.4298,1.4298,1.4298,1.4298,1.4298,1.4298,1.425,1.3702,1.3225,1.2735,1.22,1.2005,1.2078,1.7302,1.745,1.7574,1.7574,1.7807,1.8048,1.8218,1.8342,1.845,1.8674,1.872,1.8735,1.8781,1.8612,1.8458,1.8381,1.821,1.804,1.787,1.7846,1.7846,1.7846,1.7691,1.7574,1.7574,1.7574,1.7504,1.7302,1.7302,1.7302,1.7302,1.7302,1.7302,1.7302,1.7302,1.7302,1.7302,1.7302,1.7302,1.7302,1.7302,1.7302,1.7326,1.7504,1.7574,1.7621,1.7877,1.797,1.8024,1.8288,1.8381,1.8427,1.8627,1.8758,1.8804,1.8804,1.8804,1.8804,1.8804,1.8804,1.8804,1.8804,1.8804,1.8781,1.8669,1.8646,1.8614,1.8511,1.8311,1.8144,1.8144,1.796,1.7761,1.7665,1.7641,1.761,1.7498,1.7461,1.7461,1.7461,1.7461,1.7461,1.7461,1.7578,1.7641,1.7641,1.7483,1.7191,1.68,1.6126,1.5415,1.4651,1.4418,1.4418,1.4627,1.4867,1.5248,1.5747,1.4986,1.4627,1.4627,1.4388,1.4298,1.4298,1.4298,1.4298,1.4298,1.4298,1.4298,1.425,1.3702,1.3418,1.3273,1.3098,1.2832,1.2686,1.7457,1.7667,1.7861,1.7861,1.8071,1.8311,1.8481,1.8566,1.8651,1.8781,1.8804,1.8804,1.8804,1.8697,1.8589,1.8504,1.8257,1.8179,1.8365,1.8203,1.8179,1.8365,1.8141,1.7978,1.7861,1.7861,1.7745,1.7457,1.7457,1.7403,1.7302,1.7302,1.7302,1.7302,1.7302,1.7302,1.7302,1.7302,1.7302,1.7302,1.7302,1.7356,1.7481,1.7628,1.7768,1.7885,1.8164,1.8257,1.8311,1.8543,1.8612,1.8635,1.8766,1.8804,1.8804,1.8804,1.8804,1.8804,1.8804,1.8804,1.8804,1.8804,1.8804,1.8804,1.8804,1.8804,1.8804,1.8804,1.863,1.851,1.851,1.8335,1.8144,1.8023,1.7999,1.7952,1.7809,1.7793,1.7793,1.7793,1.7793,1.7793,1.7793,1.792,1.7922,1.7767,1.7546,1.7028,1.6167,1.5652,1.5057,1.4322,1.4298,1.4298,1.4298,1.4298,1.4508,1.4962,1.4508,1.4298,1.4298,1.4298,1.4298,1.4298,1.4298,1.4298,1.4298,1.4298,1.4178,1.3919,1.3413,1.3104,1.288,1.2662,1.254,1.2589,1.7745,1.7955,1.8133,1.8133,1.8357,1.8527,1.8527,1.8674,1.8804,1.8804,1.8804,1.8804,1.8804,1.8804,1.872,1.8551,1.8303,1.8342,1.8781,1.8411,1.8342,1.8781,1.8612,1.8404,1.8179,1.8133,1.7994,1.7698,1.7698,1.7551,1.7302,1.7302,1.7302,1.7302,1.7302,1.7302,1.7302,1.7302,1.7302,1.7302,1.7326,1.7473,1.7706,1.7745,1.7931,1.8156,1.8427,1.8527,1.8543,1.8743,1.8804,1.8804,1.8804,1.8804,1.8804,1.8804,1.8804,1.8804,1.8804,1.8804,1.8804,1.8804,1.8804,1.8804,1.8804,1.8804,1.8804,1.8804,1.8804,1.8804,1.8804,1.8804,1.8701,1.8398,1.8343,1.8232,1.7936,1.7888,1.7888,1.7888,1.7888,1.7888,1.7888,1.8116,1.8084,1.7739,1.7568,1.6889,1.548,1.5337,1.4986,1.4322,1.4298,1.4298,1.4298,1.4298,1.4298,1.4298,1.4298,1.4298,1.4298,1.4298,1.4298,1.4298,1.4298,1.4298,1.4298,1.4298,1.3992,1.3443,1.2983,1.2467,1.1927,1.1438,1.1561,1.2005,1.8017,1.8234,1.8404,1.8404,1.8581,1.8735,1.8735,1.8758,1.8804,1.8804,1.8804,1.8804,1.8804,1.8804,1.8781,1.8743,1.8666,1.8689,1.8781,1.8712,1.8689,1.8804,1.8766,1.872,1.8643,1.8496,1.8172,1.7698,1.7698,1.7551,1.7302,1.7302,1.7302,1.7302,1.7302,1.7302,1.7302,1.7302,1.7302,1.7333,1.7527,1.7651,1.7745,1.8179,1.8365,1.8427,1.8651,1.8735,1.8743,1.8781,1.8804,1.8804,1.8804,1.8804,1.8804,1.8804,1.8804,1.8804,1.8804,1.8804,1.8804,1.8804,1.8804,1.8804,1.8804,1.8804,1.8804,1.8804,1.8804,1.8804,1.8804,1.8804,1.8781,1.8701,1.8693,1.8662,1.8582,1.8574,1.8574,1.8574,1.8574,1.8574,1.8574,1.8126,1.7802,1.7707,1.6584,1.5741,1.5408,1.4843,1.4466,1.4322,1.4298,1.4298,1.4298,1.4298,1.4298,1.4298,1.4298,1.4298,1.4298,1.4298,1.4298,1.4298,1.4298,1.4298,1.4298,1.4298,1.3992,1.3443,1.2983,1.2467,1.198,1.1878,1.1634,1.1512,1.828,1.8465,1.8627,1.8627,1.872,1.8804,1.8804,1.8804,1.8804,1.8804,1.8804,1.8804,1.8804,1.8804,1.8804,1.8804,1.8804,1.8804,1.8804,1.8804,1.8804,1.8804,1.8804,1.8804,1.8804,1.8697,1.845,1.8079,1.7955,1.7737,1.7504,1.7356,1.7302,1.7302,1.7302,1.7302,1.7309,1.7434,1.7504,1.7504,1.7784,1.7978,1.8102,1.8388,1.8574,1.8658,1.8766,1.8804,1.8804,1.8804,1.8804,1.8804,1.8804,1.8804,1.8804,1.8804,1.8804,1.8804,1.8804,1.8804,1.8804,1.8804,1.8804,1.8804,1.8804,1.8804,1.8804,1.8804,1.8804,1.8804,1.8804,1.8804,1.8804,1.8804,1.8804,1.8804,1.8804,1.8804,1.8804,1.8804,1.8804,1.8658,1.8303,1.7924,1.7381,1.6655,1.5859,1.5248,1.489,1.4508,1.4298,1.4298,1.4298,1.4298,1.4298,1.4298,1.4298,1.4298,1.4298,1.4298,1.4298,1.4298,1.4298,1.4298,1.4298,1.4298,1.4298,1.4298,1.3847,1.3152,1.291,1.2322,1.1614,1.1614,1.1756,1.2078,1.8551,1.8697,1.8804,1.8804,1.8804,1.8804,1.8804,1.8804,1.8804,1.8804,1.8804,1.8804,1.8804,1.8804,1.8804,1.8804,1.8804,1.8804,1.8804,1.8804,1.8804,1.8804,1.8804,1.8804,1.8804,1.8804,1.8697,1.8504,1.8234,1.7994,1.7768,1.7504,1.7403,1.745,1.745,1.7403,1.738,1.7644,1.7745,1.7721,1.8048,1.8311,1.8504,1.8551,1.8658,1.8804,1.8804,1.8804,1.8804,1.8804,1.8804,1.8804,1.8804,1.8804,1.8804,1.8804,1.8804,1.8804,1.8804,1.8804,1.8804,1.8804,1.8804,1.8804,1.8804,1.8804,1.8804,1.8804,1.8804,1.8804,1.8804,1.8804,1.8804,1.8804,1.8804,1.8804,1.8804,1.8804,1.8804,1.8804,1.8804,1.8519,1.7761,1.7598,1.6913,1.5503,1.5289,1.4938,1.4322,1.4298,1.4298,1.4298,1.4298,1.4298,1.4298,1.4298,1.4298,1.4298,1.4298,1.4298,1.4298,1.4298,1.4298,1.4298,1.4298,1.4298,1.4298,1.4298,1.3745,1.291,1.2837,1.22,1.1345,1.1345,1.1956,1.2861,1.8766,1.8781,1.8804,1.8804,1.8804,1.8804,1.8804,1.8804,1.8804,1.8804,1.8804,1.8804,1.8804,1.8804,1.8804,1.8804,1.8804,1.8804,1.8804,1.8804,1.8804,1.8804,1.8804,1.8804,1.8804,1.8804,1.8697,1.8504,1.8234,1.8087,1.804,1.7768,1.7761,1.7994,1.7994,1.7854,1.7651,1.7924,1.79,1.7745,1.8241,1.8458,1.8527,1.8697,1.8789,1.8804,1.8804,1.8804,1.8804,1.8804,1.8804,1.8804,1.8804,1.8804,1.8804,1.8804,1.8804,1.8804,1.8804,1.8804,1.8804,1.8804,1.8804,1.8804,1.8804,1.8804,1.8804,1.8804,1.8804,1.8804,1.8804,1.8804,1.8804,1.8804,1.8804,1.8804,1.8804,1.8804,1.8804,1.8804,1.8804,1.8519,1.7761,1.7115,1.6362,1.5462,1.4819,1.4418,1.4322,1.4298,1.4298,1.4298,1.4298,1.4298,1.4298,1.4298,1.4298,1.4298,1.4298,1.4298,1.4298,1.4298,1.4298,1.4298,1.4298,1.4298,1.4298,1.4298,1.3943,1.337,1.2958,1.2419,1.1883,1.1883,1.2273,1.2861,1.8804,1.8804,1.8804,1.8804,1.8804,1.8804,1.8804,1.8804,1.8804,1.8804,1.8804,1.8804,1.8804,1.8804,1.8804,1.8804,1.8804,1.8804,1.8804,1.8804,1.8804,1.8804,1.8804,1.8804,1.8804,1.8804,1.8766,1.8682,1.845,1.8326,1.8311,1.8048,1.7994,1.811,1.811,1.804,1.7947,1.8218,1.8264,1.8172,1.8535,1.8682,1.8674,1.8758,1.8804,1.8804,1.8804,1.8804,1.8804,1.8804,1.8804,1.8804,1.8804,1.8804,1.8804,1.8804,1.8804,1.8804,1.8804,1.8804,1.8804,1.8804,1.8804,1.8804,1.8804,1.8804,1.8804,1.8804,1.8804,1.8804,1.8804,1.8804,1.8804,1.8804,1.8804,1.8804,1.8804,1.8804,1.8804,1.8804,1.845,1.7909,1.7162,1.6386,1.5605,1.4843,1.4484,1.4298,1.4298,1.4298,1.4298,1.4298,1.4298,1.4298,1.4298,1.4298,1.4298,1.4298,1.4298,1.4298,1.4298,1.4298,1.4298,1.4298,1.4298,1.4298,1.4274,1.3992,1.3558,1.3055,1.254,1.2029,1.1634,1.2224,1.2589,1.2905]},{"header":{"parameterUnit":"m.s-1","parameterCategory":1,"la1":30.6,"la2":28.766,"lo1":-90.7593,"lo2":-88.6598,"dy":0.0162,"dx":0.0183,"nx":116,"ny":114,"refTime":"2024-06-09T00:00:00:Z","depth":0,"parameterNumber":3,"parameterNumberName":"V-component_of_WINDS"},"data":[0.0,0.0,0.0,0.0,0.0,0.0,0.0,0.0,0.0,0.0,0.0,0.0,0.0,0.0,0.0,0.0,0.0,0.0,0.0,0.0,0.0,0.0,0.0,0.0,0.0,0.0,0.0,0.0,0.0,0.0,0.0,0.0,0.0,0.0,0.0,0.0,0.0,0.0,0.0,0.0,0.0,0.0,0.0,0.0,0.0,0.0,0.0,0.0,0.0,0.0,0.0,0.0,0.0,0.0,0.0,0.0,0.0,0.0,0.0,0.0,0.0,0.0,0.0,0.0,0.0,0.0,0.0,0.0,0.0,0.0,0.0,0.0,0.0,0.0,0.0,0.0,0.0,0.0,0.0,0.0,0.0,0.0,0.0,0.0,0.0,0.0,0.0,0.0,0.0,0.0,0.0,0.0,0.0,0.0,0.0,0.0,0.0,0.0,0.0,0.0,0.0,0.0,0.0,0.0,0.0,0.0,0.0,0.0,0.0,0.0,0.0,0.0,0.0,0.0,0.0,0.0,0.0,0.0,0.0,0.0,0.0,0.0,0.0,0.0,0.0,0.0,0.0,0.0,0.0,0.0,0.0,0.0,0.0,0.0,0.0,0.0,0.0,0.0,0.0,0.0,0.0,0.0,0.0,0.0,0.0,0.0,0.0,0.0,0.0,0.0,0.0,0.0,0.0,0.0,0.0,0.0,0.0,0.0,0.0,0.0,0.0,0.0,0.0,0.0,0.0,0.0,0.0,0.0,0.0,0.0,0.0,0.0,0.0,0.0,0.0,0.0,0.0,0.0,0.0,0.0,0.0,0.0,0.0,0.0,0.0,0.0,0.0,0.0,0.0,0.0,0.0,0.0,0.0,0.0,0.0,0.0,0.0,0.0,0.0,0.0,0.0,0.0,0.0,0.0,0.0,0.0,0.0,0.0,0.0,0.0,0.0,0.0,0.0,0.0,0.0,0.0,0.0,0.0,0.0,0.0,0.0,0.0,0.0,0.0,0.0,0.0,0.0,0.0,0.0,0.0,0.0,0.0,0.0,0.0,0.0,0.0,0.0,0.0,0.0,0.0,0.0,0.0,0.0,0.0,0.0,0.0,0.0,0.0,0.0,0.0,0.0,0.0,0.0,0.0,0.0,0.0,0.0,0.0,0.0,0.0,0.0,0.0,0.0,0.0,0.0,0.0,0.0,0.0,0.0,0.0,0.0,0.0,0.0,0.0,0.0,0.0,0.0,0.0,0.0,0.0,0.0,0.0,0.0,0.0,0.0,0.0,0.0,0.0,0.0,0.0,0.0,0.0,0.0,0.0,0.0,0.0,0.0,0.0,0.0,0.0,0.0,0.0,0.0,0.0,0.0,0.0,0.0,0.0,0.0,0.0,0.0,0.0,0.0,0.0,0.0,0.0,0.0,0.0,0.0,0.0,0.0,0.0,0.0,0.0,0.0,0.0,0.0,0.0,0.0,0.0,0.0,0.0,0.0,0.0,0.0,0.0,0.0,0.0,0.0,0.0,0.0,0.0,0.0,0.0,0.0,0.0,0.0,0.0,0.0,0.0,0.0,0.0,0.0,0.0,0.0,0.0,0.0,0.0,0.0,0.0,0.0,0.0,0.0,0.0,0.0,0.0,0.0,0.0,0.0,0.0,0.0,0.0,0.0,0.0,0.0,0.0,0.0,0.0,0.0,0.0,0.0,0.0,0.0,0.0,0.0,0.0,0.0,0.0,0.0,0.0,0.0,0.0,0.0,0.0,0.0,0.0,0.0,0.0,0.0,0.0,0.0,0.0,0.0,0.0,0.0,0.0,0.0,0.0,0.0,0.0,0.0,0.0,0.0,0.0,0.0,0.0,0.0,0.0,0.0,0.0,0.0,0.0,0.0,0.0,0.0,0.0,0.0,0.0,0.0,0.0,0.0,0.0,0.0,0.0,0.0,0.0,0.0,0.0,0.0,0.0,0.0,0.0,0.0,0.0,0.0,0.0,0.0,0.0,0.0,0.0,0.0,0.0,0.0,0.0,0.0,0.0,0.0,0.0,0.0,0.0,0.0,0.0,0.0,0.0,0.0,0.0,0.0,0.0,0.0,0.0,0.0,0.0,0.0,0.0,0.0,0.0,0.0,0.0,0.0,0.0,0.0,0.0,0.0,0.0,0.0,0.0,0.0,0.0,0.0,0.0,0.0,0.0,0.0,0.0,0.0,0.0,0.0,0.0,0.0,0.0,0.0,0.0,0.0,0.0,0.0,0.0,0.0,0.0,0.0,0.0,0.0,0.0,0.0,0.0,0.0,0.0,0.0,0.0,0.0,0.0,0.0,0.0,0.0,0.0,0.0,0.0,0.0,0.0,0.0,0.0,0.0,0.0,0.0,0.0,0.0,0.0,0.0,0.0,0.0,0.0,0.0,0.0,0.0,0.0,0.0,0.0,0.0,0.0,0.0,0.0,0.0,0.0,0.0,0.0,0.0,0.0,0.0,0.0,0.0,0.0,0.0,0.0,0.0,0.0,0.0,0.0,0.0,0.0,0.0,0.0,0.0,0.0,0.0,0.0,0.0,0.0,0.0,0.0,0.0,0.0,0.0,0.0,0.0,0.0,0.0,0.0,0.0,0.0,0.0,0.0,0.0,0.0,0.0,0.0,0.0,0.0,0.0,0.0,0.0,0.0,0.0,0.0,0.0,0.0,0.0,0.0,0.0,0.0,0.0,0.0,0.0,0.0,0.0,0.0,0.0,0.0,0.0,0.0,0.0,0.0,0.0,0.0,0.0,0.0,0.0,0.0,0.0,0.0,0.0,0.0,0.0,0.0,0.0,0.0,0.0,0.0,0.0,0.0,0.0,0.0,0.0,0.0,0.0,0.0,0.0,0.0,0.0,0.0,0.0,0.0,0.0,0.0,0.0,0.0,0.0,0.0,0.0,0.0,0.0,0.0,0.0,0.0,0.0,0.0,0.0,0.0,0.0,0.0,0.0,0.0,0.0,0.0,0.0,0.0,0.0,0.0,0.0,0.0,0.0,0.0,0.0,0.0,0.0,0.0,0.0,0.0,0.0,0.0,0.0,0.0,0.0,0.0,0.0,0.0,0.0,0.0,0.0,0.0,0.0,0.0,0.0,0.0,0.0,0.0,0.0,0.0,0.0,0.0,0.0,0.0,0.0,0.0,0.0,0.0,0.0,0.0,0.0,0.0,0.0,0.0,0.0,0.0,0.0,0.0,0.0,0.0,0.0,0.0,0.0,0.0,0.0,0.0,0.0,0.0,0.0,0.0,0.0,0.0,0.0,0.0,0.0,0.0,0.0,0.0,0.0,0.0,0.0,0.0,0.0,0.0,0.0,0.0,0.0,0.0,0.0,0.0,0.0,0.0,0.0,0.0,0.0,0.0,0.0,0.0,0.0,0.0,0.0,0.0,0.0,0.0,0.0,0.0,0.0,0.0,0.0,0.0,0.0,0.0,0.0,0.0,0.0,0.0,0.0,0.0,0.0,0.0,0.0,0.0,0.0,0.0,0.0,0.0,0.0,0.0,0.0,0.0,0.0,0.0,0.0,0.0,0.0,0.0,0.0,0.0,0.0,0.0,0.0,0.0,0.0,0.0,0.0,0.0,0.0,0.0,0.0,0.0,0.0,0.0,0.0,0.0,0.0,0.0,0.0,0.0,0.0,0.0,0.0,0.0,0.0,0.0,0.0,0.0,0.0,0.0,0.0,0.0,0.0,0.0,0.0,0.0,0.0,0.0,0.0,0.0,0.0,0.0,0.0,0.0,0.0,0.0,0.0,0.0,0.0,0.0,0.0,0.0,0.0,0.0,0.0,0.0,0.0,0.0,0.0,0.0,0.0,0.0,0.0,0.0,0.0,0.0,0.0,0.0,0.0,0.0,0.0,0.0,0.0,0.0,0.0,0.0,0.0,0.0,0.0,0.0,0.0,0.0,0.0,0.0,0.0,0.0,0.0,0.0,0.0,0.0,0.0,0.0,0.0,0.0,0.0,0.0,0.0,0.0,0.0,0.0,0.0,0.0,0.0,0.0,0.0,0.0,0.0,0.0,0.0,0.0,0.0,0.0,0.0,0.0,0.0,0.0,0.0,0.0,0.0,0.0,0.0,0.0,0.0,0.0,0.0,0.0,0.0,0.0,0.0,0.0,0.0,0.0,0.0,0.0,0.0,0.0,0.0,0.0,0.0,0.0,0.0,0.0,0.0,0.0,0.0,0.0,0.0,0.0,0.0,0.0,0.0,0.0,0.0,0.0,0.0,0.0,0.0,0.0,0.0,0.0,0.0,0.0,0.0,0.0,0.0,0.0,0.0,0.0,0.0,0.0,0.0,0.0,0.0,0.0,0.0,0.0,0.0,0.0,0.0,0.0,0.0,0.0,0.0,0.0,0.0,0.0,0.0,0.0,0.0,0.0,0.0,0.0,0.0,0.0,0.0,0.0,0.0,0.0,0.0,0.0,0.0,0.0,0.0,0.0,0.0,0.0,0.0,0.0,0.0,0.0,0.0,0.0,0.0,0.0,0.0,0.0,0.0,0.0,0.0,0.0,0.0,0.0,0.0,0.0,0.0,0.0,0.0,0.0,0.0,0.0,0.0,0.0,0.0,0.0,0.0,0.0,0.0,0.0,0.0,0.0,0.0,0.0,0.0,0.0,0.0,0.0,0.0,0.0,0.0,0.0,0.0,0.0,0.0,0.0,0.0,0.0,0.0,0.0,0.0,0.0,0.0,0.0,0.0,0.0,0.0,0.0,0.0,0.0,0.0,0.0,0.0,0.0,0.0,0.0,0.0,0.0,0.0,0.0,0.0,0.0,0.0,0.0,0.0,0.0,0.0,0.0,0.0,0.0,0.0,0.0,0.0,0.0,0.0,0.0,0.0,0.0,0.0,0.0,0.0,0.0,0.0,0.0,0.0,0.0,0.0,0.0,0.0,0.0,0.0,0.0,0.0,0.0,0.0,0.0,0.0,0.0,0.0,0.0,0.0,0.0,0.0,0.0,0.0,0.0,0.0,0.0,0.0,0.0,0.0,0.0,0.0,0.0,0.0,0.0,0.0,0.0,0.0,0.0,0.0,0.0,0.0,0.0,0.0,0.0,0.0,0.0,0.0,0.0,0.0,0.0,0.0,0.0,0.0,0.0,0.0,0.0,0.0,0.0,0.0,0.0,0.0,0.0,0.0,0.0,0.0,0.0,0.0,0.0,0.0,0.0,0.0,0.0,0.0,0.0,0.0,0.0,0.0,0.0,0.0,0.0,0.0,0.0,0.0,0.0,0.0,0.0,0.0,0.0,0.0,0.0,0.0,0.0,0.0,0.0,0.0,0.0,0.0,0.0,0.0,0.0,0.0,0.0,0.0,0.0,0.0,0.0,0.0,0.0,0.0,0.0,0.0,0.0,0.0,0.0,0.0,0.0,0.0,0.0,0.0,0.0,0.0,0.0,0.0,0.0,0.0,0.0,0.0,0.0,0.0,0.0,0.0,0.0,0.0,0.0,0.0,0.0,0.0,0.0,0.0,0.0,0.0,0.0,0.0,0.0,0.0,0.0,0.0,0.0,0.0,0.0,0.0,0.0,0.0,0.0,0.0,0.0,0.0,0.0,0.0,0.0,0.0,0.0,0.0,0.0,0.0,0.0,0.0,0.0,0.0,0.0,0.0,0.0,0.0,0.0,0.0,0.0,0.0,0.0,0.0,0.0,0.0,0.0,0.0,0.0,0.0,0.0,0.0,0.0,0.0,0.0,0.0,0.0,0.0,0.0,0.0,0.0,0.0,0.0,0.0,0.0,0.0,0.0,0.0,0.0,0.0,0.0,0.0,0.0,0.0,0.0,0.0,0.0,0.0,0.0,0.0,0.0,0.0,0.0,0.0,0.0,0.0,0.0,0.0,0.0,0.0,0.0,0.0,0.0,0.0,0.0,0.0,0.0,0.0,0.0,0.0,0.0,0.0,0.0,0.0,0.0,0.0,0.0,0.0,0.0,0.0,0.0,0.0,0.0,0.0,0.0,0.0,0.0,0.0,0.0,0.0,0.0,0.0,0.0,0.0,0.0,0.0,0.0,0.0,0.0,0.0,0.0,0.0,0.0,0.0,0.0,0.0,0.0,0.0,0.0,0.0,0.0,1.5673,1.4872,0.0,0.0,0.0,0.0,0.0,0.0,0.0,0.0,0.0,0.0,0.0,0.0,0.0,0.0,0.0,0.0,0.0,0.0,0.0,0.0,0.0,0.0,0.0,0.6276,0.6295,0.6295,0.6295,0.6295,0.6295,0.0,0.0,0.0,0.0,0.0,0.6544,0.6831,0.7208,0.7654,0.8192,0.8738,0.9276,0.9047,0.8678,0.8165,0.0,0.0,0.0,0.0,0.0,0.0,0.0,0.0,0.0,0.0,0.0,0.0,0.0,0.0,0.0,0.0,0.0,0.0,0.0,0.0,0.0,0.0,0.0,0.0,0.0,0.0,0.0,0.0,0.0,0.0,0.0,0.0,0.0,0.0,0.0,0.0,0.0,0.0,0.0,0.0,0.0,0.0,0.0,0.0,0.0,0.0,0.0,0.0,0.0,0.0,0.0,0.0,0.0,0.0,0.0,0.0,0.0,0.0,0.0,0.0,0.0,0.0,0.0,0.0,0.0,0.0,0.0,0.0,0.0,0.0,1.8345,1.7387,0.0,0.0,0.0,0.0,0.0,0.0,0.0,0.0,0.0,0.0,0.0,0.0,0.0,0.0,0.0,0.0,0.0,0.0,0.0,0.0,0.0,0.6236,0.6348,0.6403,0.648,0.6576,0.6576,0.6544,0.6465,0.6522,0.0,0.0,0.0,0.6585,0.6715,0.7335,0.8036,0.883,0.9583,1.0654,1.198,1.2077,1.1744,1.1037,1.0054,0.0,0.0,0.0,0.0,0.0,0.0,0.0,0.0,0.0,0.0,0.0,0.0,0.0,0.0,0.0,0.0,0.0,0.0,0.0,0.0,0.0,0.0,0.0,0.0,0.0,0.0,0.0,0.0,0.0,0.0,0.0,0.0,0.0,0.0,0.0,0.0,0.0,0.0,0.0,0.0,0.0,0.0,0.0,0.0,0.0,0.0,0.0,0.0,0.0,0.0,0.0,0.0,0.0,0.0,0.0,0.0,0.0,0.0,0.0,0.0,0.0,0.0,0.0,2.1272,2.2033,2.2752,2.3302,2.3578,2.3469,2.1255,2.0316,2.0292,1.9077,0.0,0.0,0.0,0.0,0.0,0.0,0.0,0.0,0.0,0.0,0.0,0.0,0.0,0.0,0.0,0.0,0.0,0.0,0.0,0.6405,0.6921,0.6984,0.7186,0.7648,0.7684,0.7519,0.7103,0.7147,0.0,0.0,0.6556,0.6784,0.7202,0.8137,0.8727,0.8976,1.0563,1.2487,1.4675,1.4365,1.4633,1.5264,1.2514,1.1145,1.0851,0.0,0.0,0.0,0.0,0.0,0.0,0.0,0.0,0.0,0.0,0.0,0.0,0.0,0.0,0.0,0.0,0.0,0.0,0.0,0.0,0.0,0.0,0.0,0.0,0.0,0.0,0.0,0.0,0.0,0.0,0.0,0.0,0.0,0.0,0.0,0.0,0.0,0.0,0.0,0.0,0.0,1.1317,1.3329,0.0,0.0,0.0,0.0,0.0,0.0,0.0,0.0,0.0,0.0,0.0,0.0,0.0,2.043,2.0587,2.2723,2.3861,2.3966,2.5214,2.6153,2.6821,2.6911,2.7017,2.7115,2.6754,0.0,2.2992,2.1788,0.0,0.0,0.0,0.0,0.0,0.0,0.0,0.0,0.0,0.0,0.0,0.0,0.0,0.0,0.0,0.0,0.0,0.0,0.0,0.0,0.0,0.7574,0.8002,0.8263,0.85,0.8447,0.8012,0.8015,0.769,0.6925,0.7242,0.7483,0.7581,0.8754,1.0091,1.1584,1.3443,1.4923,1.605,1.6254,1.6591,1.6992,1.5663,1.4496,1.3414,1.2177,0.0,0.0,0.0,0.0,0.0,0.0,0.0,0.0,0.0,0.0,0.0,0.0,0.0,0.0,0.0,0.0,0.0,0.0,0.0,0.0,0.0,0.0,0.0,0.0,0.0,0.0,0.0,0.0,0.0,0.0,0.0,0.0,0.0,0.0,0.0,0.0,0.0,0.0,0.0,1.1571,1.3319,1.4404,1.431,1.4041,0.0,0.0,0.0,0.0,0.0,0.0,0.0,0.0,0.0,2.1653,2.2418,2.3282,2.4336,2.5706,2.6639,2.7085,2.7672,2.8306,2.894,2.894,2.8979,2.9046,2.9046,2.8339,2.707,2.5367,2.3661,2.212,0.0,0.0,0.0,0.0,2.217,2.2659,0.0,0.0,0.0,0.0,0.0,0.0,0.0,0.0,0.0,0.0,0.0,0.0,0.7606,0.8287,0.8827,0.9142,0.944,0.9446,0.904,0.8882,0.8448,0.7646,0.799,0.8214,0.8237,0.9887,1.1931,1.435,1.584,1.6755,1.712,1.7611,1.7922,1.8032,1.8082,1.7265,1.5774,1.4401,1.3417,1.2592,0.0,0.0,0.0,0.0,0.0,0.0,0.0,0.0,0.0,0.0,0.0,0.0,0.0,0.0,0.0,0.0,0.0,0.0,0.0,0.0,0.0,0.0,0.0,0.0,0.0,0.0,0.0,0.0,0.0,0.0,0.0,0.0,0.0,0.0,0.0,0.0,0.0,1.3612,1.5041,1.5517,1.5943,1.5985,0.0,0.0,0.0,0.0,0.0,0.0,2.1647,2.1309,2.2341,2.518,2.5278,2.5956,2.7346,2.8016,2.8657,2.9257,2.944,2.9852,3.0519,3.0519,3.0532,3.0557,3.0702,3.0808,3.0687,2.8537,2.6671,2.5241,2.5609,2.5662,2.5568,2.5764,2.6138,2.6701,0.0,0.0,0.0,0.0,0.0,0.0,0.0,0.0,0.0,0.0,0.0,0.7491,0.9019,0.9224,0.9646,1.0614,1.0712,1.0555,0.0,0.9646,0.916,0.873,0.8562,0.8765,0.9405,1.1986,1.4314,1.6348,1.6644,1.7281,1.8224,1.8252,1.8509,1.8936,1.8946,1.8356,1.7334,1.6422,1.54,1.4205,0.0,0.0,0.0,0.0,0.0,0.0,0.0,0.0,0.0,0.0,0.0,0.0,0.0,0.0,0.0,0.0,0.0,0.0,0.0,0.0,0.0,0.0,0.0,0.0,0.0,0.0,0.0,0.0,0.0,0.0,0.0,0.0,0.0,0.0,0.0,0.0,0.0,0.0,0.0,1.754,1.8221,0.0,0.0,0.0,0.0,2.0242,2.0462,2.181,2.4814,2.4935,2.6101,2.8662,2.8748,2.8794,2.888,2.9561,2.9911,2.9957,3.0598,3.1253,3.1904,3.1904,3.1975,3.2112,3.2627,3.2958,3.2942,3.0625,2.9293,2.8726,2.8624,2.8272,2.7932,2.8834,2.9178,2.9357,0.0,0.0,0.0,0.0,0.0,0.5998,0.5998,0.5998,0.6096,0.6348,0.7212,0.8056,0.872,1.0173,1.1262,1.1664,1.1986,1.1987,1.1581,1.0778,1.0286,1.0278,1.0206,1.0928,1.2558,1.4288,1.5643,1.6637,1.7263,1.7991,1.8819,1.9071,1.9522,2.0087,2.0087,1.9707,1.8985,1.7922,1.6998,1.6082,1.4457,1.2921,0.0,0.0,0.0,0.0,0.0,0.0,0.0,0.0,0.0,0.0,0.0,0.0,0.0,0.0,0.0,0.0,0.0,0.0,0.0,0.0,0.0,0.0,0.0,0.0,0.0,0.0,0.0,0.0,0.0,0.0,0.0,0.0,0.0,0.0,0.0,0.0,0.0,2.0016,2.1055,0.0,2.0356,2.1324,2.2286,2.2939,2.4118,2.5652,2.7532,2.7241,2.8009,3.0219,3.0291,3.0742,3.1692,3.2364,3.2772,3.29,3.3147,3.3378,3.3622,3.3622,3.3621,3.3708,3.4285,3.4589,3.4648,3.4535,3.355,3.2065,3.1861,3.164,3.1518,3.1852,3.1973,3.2024,0.0,0.0,0.0,0.0,0.6027,0.5998,0.5998,0.5998,0.6149,0.6555,0.7588,0.8591,0.9364,1.1029,1.2252,1.2639,1.2804,1.2806,1.2579,1.163,1.116,1.1363,1.1672,1.273,1.4624,1.5859,1.6794,1.7433,1.8248,1.8982,1.9649,1.9908,2.0253,2.0635,2.0635,2.0459,2.0118,1.9392,1.8475,1.7421,1.6133,1.485,1.3531,0.0,0.0,0.0,0.0,0.0,0.0,0.0,0.0,0.0,0.0,0.0,0.0,0.0,0.0,0.0,0.0,0.0,0.0,0.0,0.0,0.0,0.0,0.0,0.0,0.0,0.0,0.0,0.0,0.0,0.0,0.0,0.0,0.0,0.0,0.0,2.1269,2.1988,2.3221,2.3769,2.3146,2.4271,2.527,2.5844,2.7061,2.8346,2.9674,2.9535,3.0142,3.1755,3.2042,3.2648,3.3623,3.4083,3.4372,3.4505,3.4505,3.4505,3.4505,3.4708,3.4794,3.4837,3.5637,3.612,3.6394,3.7088,3.6651,3.5507,3.5077,3.4917,3.4917,3.4917,3.4917,3.4906,0.0,0.0,0.0,0.5998,0.5998,0.5998,0.5998,0.5998,0.6373,0.7438,0.8008,0.9076,1.1039,1.1787,1.2532,1.3488,1.3176,1.2977,1.3086,1.216,1.1717,1.1953,1.2897,1.4082,1.5485,1.6673,1.7826,1.8961,1.961,2.0196,2.0726,2.0726,2.0677,2.0553,2.0564,2.0624,2.0737,2.0803,1.9839,1.8185,1.727,1.6525,1.5707,0.0,0.0,0.0,0.0,0.0,0.0,0.0,0.0,0.0,0.0,0.0,0.0,0.0,0.0,0.0,0.0,0.0,0.0,0.0,0.0,0.0,0.0,0.0,0.0,0.0,0.0,0.0,0.0,0.0,0.0,0.0,0.0,0.0,1.8869,2.0843,2.2629,2.3414,2.4708,2.5723,2.6215,2.6621,2.7462,2.896,2.9177,2.9849,3.123,3.1914,3.2627,3.3413,3.4151,3.4536,3.4536,3.4551,3.4566,3.4566,3.4566,3.4566,3.461,3.5199,3.548,3.5548,3.6679,3.7567,3.8229,3.8037,3.8396,3.8954,3.821,3.7893,3.7893,3.7893,3.7893,3.7882,0.0,0.0,0.5998,0.5998,0.5998,0.5998,0.5998,0.5998,0.6238,0.6929,0.8111,0.9225,1.011,1.1985,1.3165,1.3096,1.3372,1.3417,1.311,1.2204,1.2218,1.3433,1.5194,1.6675,1.7841,1.8577,1.9365,2.0217,2.0489,2.0871,2.1347,2.1347,2.1491,2.1736,2.1826,2.1687,2.1358,2.1478,2.0833,1.9686,1.9343,1.8479,1.7259,0.0,0.0,0.0,0.0,0.0,0.0,0.0,0.0,0.0,0.0,0.0,0.0,0.0,0.0,0.0,0.0,0.0,0.0,0.0,0.0,0.0,0.0,0.0,0.0,0.0,0.0,0.0,0.0,0.0,0.0,0.0,0.0,2.1854,2.1303,2.3629,2.5559,2.6029,2.7571,2.838,2.7853,2.9105,3.0189,3.0697,3.1667,3.262,3.354,3.377,3.3968,3.4182,3.486,3.5229,3.5229,3.5706,3.5953,3.5953,3.5953,3.6181,3.6598,3.6775,3.7093,3.7544,3.8301,3.8738,3.8957,3.9333,3.9609,3.966,3.8396,3.7893,3.7893,3.7893,3.7893,3.7893,0.0,0.5998,0.5998,0.5998,0.5998,0.5998,0.5998,0.5998,0.6277,0.7037,0.8283,0.9444,1.0336,1.2155,1.3279,1.3199,1.3574,1.3598,1.3131,1.2845,1.3325,1.4711,1.6559,1.7951,1.8821,1.9642,2.0413,2.1158,2.1301,2.16,2.2012,2.2085,2.217,2.2289,2.2417,2.2346,2.2108,2.22,2.1782,2.106,2.0709,1.9662,1.8221,1.7122,1.6108,1.5157,1.452,1.4109,1.3818,1.3572,0.0,0.0,0.0,0.0,0.0,0.0,0.0,0.0,0.0,0.0,0.0,0.0,0.0,0.0,0.0,0.0,0.0,0.0,0.0,0.0,0.0,0.0,0.0,0.0,2.3252,2.4808,2.5018,2.6489,2.7807,2.8552,2.9503,3.0191,3.039,3.1275,3.2071,3.2653,3.3412,3.4044,3.4474,3.4767,3.4921,3.4921,3.5568,3.5922,3.5922,3.6307,3.6507,3.6507,3.6754,3.7058,3.7432,3.7926,3.8353,3.8712,3.9325,3.9592,3.9588,3.9956,4.0096,4.0011,0.0,0.0,0.0,0.0,3.8819,3.8819,0.0,0.5998,0.5998,0.5998,0.5998,0.5998,0.5998,0.5998,0.6385,0.7461,0.848,0.9639,1.1073,1.2224,1.3038,1.3396,1.3657,1.3651,1.3261,1.3883,1.4733,1.5747,1.725,1.8392,1.9068,2.0204,2.1166,2.1906,2.204,2.2282,2.2615,2.2663,2.2595,2.2428,2.2483,2.2581,2.2715,2.2727,2.2457,2.1976,2.1392,2.0263,1.8824,1.7881,1.7218,1.6701,1.5947,1.529,1.4783,1.4853,0.0,0.0,0.0,0.0,0.0,0.0,0.0,0.0,0.0,0.0,0.0,0.0,0.0,0.0,0.0,0.0,0.0,0.0,0.0,0.0,0.0,0.0,0.0,0.0,2.624,2.7783,2.9045,2.92,2.9577,3.0638,3.0781,3.1407,3.2991,3.2998,3.3376,3.4537,3.4613,3.4659,3.472,0.0,0.0,0.0,0.0,3.6507,3.6507,3.6507,3.6538,3.66,3.7133,3.746,3.7637,3.8714,3.9246,3.9325,3.988,4.0096,4.0096,4.0096,4.0096,4.0096,4.0096,4.0096,4.0096,4.0096,4.0096,4.0096,0.0,0.5998,0.5998,0.5998,0.5998,0.5998,0.5998,0.5998,0.6385,0.7461,0.848,0.9524,1.0623,1.2029,1.276,1.2417,1.3298,1.3932,1.4065,1.4901,1.5657,1.6247,1.7789,1.9123,2.0168,2.1008,2.1813,2.2611,2.2695,2.2741,2.2746,2.2226,2.2195,2.254,2.2141,2.203,2.2149,2.228,2.1769,2.0907,2.0885,2.043,1.9704,1.9074,1.8271,1.7506,1.7443,1.6989,1.644,1.6509,1.6174,1.5669,1.5285,0.0,0.0,0.0,0.0,0.0,0.0,0.0,0.0,0.0,0.0,0.0,0.0,0.0,0.0,0.0,0.0,0.0,0.0,0.0,0.0,2.6005,2.8054,2.9698,3.0492,3.1151,3.1297,3.065,3.1807,3.2708,3.279,3.3615,3.4463,3.5245,3.5306,3.5537,3.6091,3.6245,3.6322,3.6322,3.643,3.6507,3.6507,3.6507,3.6739,3.7223,3.7343,0.0,3.8865,3.9082,3.9474,3.9931,4.0045,4.0096,4.0096,4.0096,4.0096,4.0096,4.0096,4.0096,4.0096,4.0096,4.0096,4.0096,0.5998,0.5998,0.5998,0.5998,0.5998,0.5998,0.5998,0.5998,0.6385,0.7461,0.8238,0.9088,1.0083,1.1133,1.1638,1.1374,1.2453,1.3579,1.4588,1.5532,1.6276,1.6775,1.8595,1.9879,2.0483,2.1491,2.2232,2.2701,2.2729,2.2729,2.2698,2.243,2.2445,2.2701,2.2489,2.2289,2.2105,2.2245,2.168,2.0709,2.0845,2.0637,2.0188,1.9612,1.8922,1.8232,1.807,1.7739,1.7366,1.7167,1.6923,1.6657,1.6421,1.6031,1.5502,0.0,0.0,0.0,0.0,0.0,0.0,0.0,0.0,0.0,0.0,0.0,0.0,0.0,0.0,2.1898,0.0,0.0,2.6943,2.8761,2.9979,3.0934,3.1608,3.2046,3.2053,3.1426,3.2501,3.338,3.3585,3.4449,3.5275,3.5953,3.5999,3.6153,3.6476,3.6507,3.6507,3.6507,3.68,3.6952,3.6952,3.7252,3.7548,3.7838,3.8155,3.8618,3.9219,3.951,3.9812,4.0096,4.0096,4.0096,4.0096,4.0096,4.0096,4.0096,4.0096,4.0096,4.0096,4.0096,4.0096,4.0096,0.5998,0.5998,0.5998,0.5998,0.5998,0.5998,0.5998,0.5998,0.635,0.7318,0.7951,0.8651,0.9563,1.0221,1.0685,1.0929,1.1902,1.3217,1.4884,1.5875,1.6632,1.7182,1.9076,2.0244,2.0537,2.1668,2.237,2.2638,2.2509,2.2463,2.2486,2.2464,2.2456,2.2509,2.2713,2.2547,2.2093,2.2292,2.1781,2.0845,2.098,2.0822,2.0447,1.9993,1.9397,1.877,1.8394,1.8046,1.7707,1.7324,1.723,1.7261,1.7261,1.7106,1.684,1.6393,1.6053,0.0,0.0,0.0,0.0,0.0,0.0,0.0,0.0,0.0,1.9827,2.1733,2.3422,2.5126,2.7051,2.8042,2.9208,3.1094,3.1503,3.178,3.2321,3.2398,3.2356,3.2261,3.305,3.3859,3.4443,3.5214,3.5922,3.6445,3.6507,3.6507,3.6507,3.6507,3.6554,3.6662,3.7149,3.7461,3.7578,3.8082,3.8376,3.849,3.8984,3.9299,3.9391,3.9876,4.0096,4.0096,4.0096,4.0096,4.0096,4.0096,4.0096,4.0096,4.0096,4.0096,4.0096,4.0096,4.0096,4.0096,0.0,0.5998,0.5998,0.5998,0.5998,0.5998,0.5998,0.5998,0.6215,0.6815,0.7715,0.8531,0.9117,1.0022,1.1037,1.2113,1.2649,1.3521,1.4908,1.5816,1.6604,1.7269,1.8436,1.9571,2.0649,2.1344,2.2058,2.2772,2.2182,2.195,2.2044,2.1475,2.1266,2.1395,2.1886,2.1948,2.1706,2.213,2.1797,2.0993,2.1127,2.0921,2.0511,2.0559,1.9865,1.8875,1.8821,1.8155,1.728,1.7225,1.7323,1.7465,1.7465,1.7602,1.7685,1.7269,0.0,1.7006,1.6605,1.6939,1.7637,1.8712,1.8993,1.9837,0.0,0.0,2.3748,2.5743,2.729,2.8452,2.901,3.0145,3.1094,3.1364,3.1903,3.2305,3.2396,3.2398,3.2398,3.2384,3.3552,3.4412,3.4489,3.5645,3.6415,3.6492,3.6507,3.6507,3.6507,3.6507,3.6754,3.7283,3.7372,3.7666,3.8179,3.8376,3.8698,3.9095,3.9295,3.9597,4.0007,4.0058,4.0096,4.0096,4.0096,4.0096,4.0096,4.0096,4.0096,4.0096,4.0096,4.0096,4.0096,4.0096,4.0096,4.0096,0.0,0.5998,0.5998,0.5998,0.5998,0.5998,0.5998,0.5998,0.6192,0.673,0.7164,0.7738,0.8543,0.9283,1.0179,1.1307,1.2212,1.3212,1.4404,1.5696,1.6545,1.6815,1.8156,1.9142,1.9646,2.0636,2.1299,2.1638,2.1356,2.1288,2.1418,2.1051,2.1168,2.1681,2.1983,2.2076,2.1988,2.1754,2.1252,2.0582,2.044,2.0261,2.0116,2.0274,1.9844,1.9129,1.9129,1.8601,0.0,0.0,1.7666,1.7737,1.7737,1.7889,1.8038,1.7869,1.8167,0.0,1.922,1.9549,2.0045,0.0,2.1847,2.268,2.4797,2.5531,2.6216,2.7705,2.9268,3.0394,3.0553,3.1349,3.198,0.0,3.2536,3.2844,3.2444,3.2736,3.2844,3.2444,3.3274,3.4028,3.4459,3.5352,3.6076,3.6461,3.6507,3.6647,3.7013,3.7028,3.7327,3.801,3.8376,3.8723,3.9049,3.9463,3.9752,3.9965,3.994,4.0033,4.0213,4.0138,4.0096,4.0096,4.0096,4.0096,4.0096,4.0096,4.0096,4.0096,4.0096,4.0096,4.0096,4.0096,4.0096,4.0096,0.0,0.5952,0.5934,0.5988,0.5952,0.5934,0.5988,0.5952,0.6075,0.6519,0.6786,0.7343,0.841,0.8884,0.95,1.0433,1.1564,1.2709,1.3838,1.5261,1.6208,1.6506,1.7637,1.8475,1.8923,1.9834,2.0477,2.0857,2.0666,2.0658,2.0796,2.0709,2.0879,2.1266,2.1718,2.1885,2.1818,2.1637,2.1234,2.0719,2.0514,2.03,2.0096,2.0096,1.9701,1.9137,1.9137,1.8633,0.0,0.0,1.7664,1.7737,1.7737,1.7985,1.8319,1.8476,1.9064,1.9905,2.0939,2.1607,0.0,2.349,2.4511,2.5486,2.6431,2.7437,2.8463,2.9405,3.0562,3.1395,3.1395,3.1796,3.2119,3.2119,3.2844,3.3167,3.249,3.2982,3.3152,3.2488,3.2829,3.3398,3.4121,3.4983,3.5783,3.6461,3.6693,3.6997,3.7431,3.765,3.8082,3.8778,3.9239,3.9581,3.9859,4.0333,4.0534,4.051,4.0399,4.0342,4.0305,4.0163,4.0096,4.0096,4.0096,4.0096,4.0096,4.0096,4.0096,4.0108,4.0241,4.0291,4.0303,4.0446,4.0397,4.0291,0.0,0.0,0.5769,0.5961,0.5838,0.5774,0.5966,0.5834,0.5789,0.5993,0.6766,0.7747,0.8948,0.9144,0.9419,0.9973,1.0949,1.2075,1.3335,1.4378,1.5438,1.6546,1.6642,1.7408,1.8969,1.9032,1.9693,2.0993,2.0335,2.0136,2.0318,2.0315,1.9978,1.9442,2.0676,2.1002,2.073,2.1951,2.2221,2.1859,2.1976,2.1567,2.0804,2.0296,1.9525,1.8719,1.8719,0.0,1.6942,1.6929,1.7105,1.7323,1.7323,1.7858,0.0,1.9193,1.9845,2.0468,2.0897,0.0,2.4008,2.5211,2.6805,2.8237,2.8862,2.9886,3.082,3.124,3.1351,3.1395,3.1395,3.1411,3.1426,3.1426,3.2536,3.3167,3.249,3.2982,3.3152,3.2488,3.2427,3.269,0.0,3.469,3.5783,3.6461,3.7162,3.7575,3.7589,3.8274,3.8951,3.9542,3.9581,3.9885,4.0473,4.0624,4.0636,4.051,4.0497,4.0424,4.0305,4.0163,4.0096,4.0096,4.0096,4.0096,4.0096,4.0096,4.0096,4.0146,4.0604,4.0778,4.082,4.1298,4.1162,4.0778,0.0,0.0,0.0,0.5588,0.5546,0.5522,0.5593,0.5658,0.5771,0.5979,0.6993,0.0,0.0,0.0,0.0,0.0,1.1001,1.197,1.2752,1.4161,1.5147,1.5516,1.6223,1.6845,1.7397,1.7932,1.8779,1.9949,1.9797,2.0122,2.0898,2.0812,2.0878,2.1115,2.1636,2.2063,2.236,2.1801,2.1492,2.1315,2.0684,2.0252,1.9933,1.9666,1.918,1.8579,0.0,1.7613,1.7118,1.6858,1.7088,1.7502,1.7502,0.0,0.0,1.9757,2.0436,2.1257,2.3047,0.0,2.5867,2.7564,2.8732,2.971,3.0616,3.077,3.0855,3.1301,3.0689,3.0212,3.0645,3.0381,3.0366,3.1257,3.2535,3.3463,3.3642,3.4303,3.4656,3.4293,3.4352,0.0,0.0,0.0,0.0,3.6465,3.7134,3.7885,3.8881,3.9169,3.9607,4.0308,4.0333,4.0468,4.0764,4.0817,4.0769,4.0636,4.0448,4.03,4.0175,4.0125,4.0266,4.0568,4.0568,4.0754,4.1024,4.1024,4.1024,4.1047,4.1208,4.1247,4.1269,4.1437,4.1609,4.1685,0.0,0.0,0.0,0.0,0.0,0.0,0.0,0.0,0.0,0.0,0.0,0.0,0.0,0.0,0.0,0.0,0.0,1.1385,1.1926,1.3354,1.4265,1.4457,1.5329,1.5905,1.6098,1.6629,1.7467,1.8607,1.87,1.9184,2.0047,1.9966,2.0224,2.0779,2.0758,2.1096,2.1668,2.0844,2.0557,2.0577,1.9985,1.9686,1.9547,1.9055,1.8617,0.0,1.7243,1.6867,1.6754,1.6454,1.6761,1.7276,1.7312,1.8224,1.9464,2.0375,2.1362,2.2648,2.4923,2.6367,2.7643,2.9324,3.0317,3.0996,3.1276,3.1143,3.0896,3.0729,2.9612,2.8815,2.9245,2.8769,2.8842,3.0428,3.2013,3.3346,3.4182,3.5177,3.5761,3.5599,3.5675,3.5853,0.0,0.0,0.0,3.7108,3.7774,3.8553,3.9551,3.9842,4.0229,4.0757,4.0769,4.0817,4.0912,4.0912,4.0817,4.0636,4.0416,4.0325,4.0353,4.0353,4.0599,4.1053,4.1053,4.1219,4.1492,4.1492,4.1492,4.1514,4.1678,4.176,4.1771,4.1941,4.218,4.2388,0.0,0.0,0.0,0.0,0.0,0.0,0.0,0.0,0.0,0.0,0.0,0.0,0.0,0.0,0.0,0.0,0.0,0.0,1.088,1.1981,1.2857,1.3405,1.4012,1.4594,1.5148,1.5232,1.5876,1.7154,1.7166,1.747,1.8048,1.807,1.8292,1.8647,1.838,1.8537,1.9018,1.9349,1.9606,1.9782,1.9901,1.9838,1.9575,1.8464,1.783,1.7369,1.6157,1.5808,1.5888,1.5769,0.0,0.0,0.0,0.0,2.0881,2.1239,2.2695,2.4613,2.6575,2.805,2.9358,3.0541,3.1618,3.21,3.1005,3.1009,3.0887,2.9569,2.8211,2.7242,0.0,0.0,2.7041,2.9064,3.1125,3.293,3.4261,3.5619,3.648,0.0,0.0,0.0,0.0,0.0,0.0,3.8351,0.0,3.9469,3.9662,4.0333,4.0757,4.09,4.0912,4.0912,4.0912,4.09,4.074,4.0497,4.0375,4.0493,4.0802,4.0825,4.1099,4.1536,4.1536,4.1547,4.1569,4.1569,4.1569,4.1613,4.2056,4.2246,4.2297,4.2749,4.2892,4.2835,0.0,0.0,0.0,0.0,0.0,0.0,0.0,0.0,0.0,0.0,0.0,0.0,0.0,0.0,0.0,0.0,0.0,0.0,0.9788,1.0828,1.1759,1.2494,1.3066,1.374,1.459,1.4714,1.5347,1.653,1.6638,1.7357,1.8681,1.9031,1.9332,1.9607,2.0206,2.0367,2.0192,2.0471,2.0205,1.955,1.9295,1.8805,1.8163,1.7521,1.6978,1.6491,0.0,0.0,0.0,0.0,0.0,0.0,0.0,2.1038,2.2642,0.0,0.0,2.7323,2.9218,3.0569,3.164,3.2435,3.2295,3.188,3.1588,3.0307,2.8935,2.8088,2.6411,2.5087,0.0,0.0,0.0,2.89,3.1685,0.0,3.6113,3.721,0.0,3.8279,0.0,3.8528,3.8334,3.9112,0.0,0.0,3.9463,3.9644,4.0519,4.0643,4.0757,4.09,4.0912,4.0912,4.0912,4.0704,4.0522,4.035,4.0573,4.0724,4.0814,4.1162,4.1587,4.2032,4.2032,4.2218,4.2547,4.2547,4.2547,4.2557,4.2673,4.2721,4.2749,4.2854,4.2892,4.2873,0.0,0.0,0.0,0.0,0.0,0.0,0.0,0.0,0.0,0.0,0.0,0.0,0.0,0.0,0.0,0.0,0.0,0.0,0.0,0.9861,1.0544,1.0997,1.1773,1.2541,1.3243,1.3562,1.4253,1.5337,1.5446,1.6074,1.7203,1.752,1.7833,1.8173,1.8662,1.8891,1.8896,1.9022,1.8813,0.0,0.0,1.7789,1.7482,1.6716,1.6323,0.0,0.0,0.0,0.0,0.0,0.0,1.9865,2.1197,2.2854,2.4626,2.6247,0.0,2.9536,3.0999,3.2069,3.2832,3.3198,3.2641,3.1742,3.082,2.938,2.7744,2.6072,2.4565,0.0,2.3445,2.4081,0.0,0.0,0.0,0.0,3.6237,3.7538,3.853,0.0,3.9623,0.0,3.95,3.9983,4.0325,0.0,3.9975,4.0058,4.0698,4.0709,4.0733,4.0817,4.0876,4.0876,4.0817,4.0546,4.0468,4.0609,4.0748,4.1019,4.1421,4.1696,4.2056,4.2508,4.2508,4.2663,4.2892,4.2892,4.2892,4.2892,4.2892,4.2892,4.2892,4.2892,4.2892,4.2892,0.0,0.0,0.0,0.0,0.0,0.0,0.0,0.0,0.0,0.0,0.0,0.0,0.0,0.0,0.0,0.0,0.0,0.0,0.0,0.0,0.9314,0.9432,1.0449,1.1261,1.1778,1.2318,1.3054,1.4008,1.4071,1.4377,1.4904,1.5091,1.5408,1.5814,1.5896,1.6181,1.6627,1.67,1.6804,1.6908,1.6784,1.6908,1.7043,0.0,0.0,0.0,0.0,0.0,0.0,0.0,2.0666,2.0956,2.2442,2.4535,2.6679,2.7991,2.9647,3.1262,3.226,3.2951,3.3382,3.3287,3.263,3.1457,2.9461,2.8266,2.6807,2.4035,0.0,2.2372,2.2143,2.2577,2.3927,2.6817,0.0,3.2235,3.575,3.7394,3.8692,3.9948,4.0125,4.0125,4.0096,4.0121,4.0201,4.0275,4.0424,4.051,4.0534,4.0595,4.0648,4.0673,4.0793,4.0776,4.0648,4.0473,4.0585,4.0961,4.0972,4.141,4.2198,4.2259,4.2508,4.2892,4.2892,4.2892,4.2892,4.2892,4.2892,4.2892,4.2892,4.2892,4.2892,4.2892,4.2892,4.2892,0.0,0.0,0.0,0.0,0.0,0.0,0.0,0.0,0.0,0.0,0.6831,0.6852,0.0,0.0,0.0,0.0,0.0,0.0,0.0,0.0,0.0,0.9054,0.9708,1.0573,1.1687,1.2304,1.2897,1.3514,1.3591,1.3898,1.443,1.4839,1.5165,1.544,1.6203,1.6417,1.6258,1.7083,1.7066,1.6531,1.6767,1.6455,1.5816,0.0,0.0,0.0,0.0,0.0,0.0,0.0,2.1876,2.3543,2.512,2.676,2.8462,3.0389,3.137,3.2104,3.343,3.3865,3.3833,3.3269,3.1999,3.0456,2.8881,2.692,0.0,0.0,2.2191,2.1557,2.1141,2.2335,2.4454,2.7726,3.0386,3.3322,3.7049,3.8308,3.9172,0.0,4.0201,4.0213,4.0108,4.0296,0.0,0.0,4.0424,4.0546,4.066,4.0478,4.0429,4.0534,4.0558,4.0497,4.0379,4.0717,4.0861,4.0849,4.1598,4.2043,4.2208,4.2604,4.2825,4.2892,4.2892,4.2892,4.2892,4.2892,4.2892,4.2892,4.2892,4.2892,4.2892,4.2892,4.2892,4.2892,0.0,0.0,0.0,0.0,0.0,0.0,0.0,0.0,0.6827,0.7801,0.7756,0.7613,0.7525,0.7442,0.0,0.0,0.0,0.0,0.0,0.0,0.0,0.0,0.9046,0.982,1.0846,1.1391,0.0,0.0,0.0,0.0,0.0,0.0,0.0,0.0,0.0,0.0,0.0,0.0,0.0,0.0,0.0,0.0,0.0,0.0,0.0,0.0,0.0,0.0,0.0,0.0,2.1955,2.402,2.524,2.7016,2.8998,3.0731,3.1869,3.2805,3.3825,3.4101,3.3939,3.3271,3.1929,3.0196,2.8007,0.0,0.0,0.0,2.0825,2.0505,2.0304,2.1729,0.0,2.5808,2.7966,3.0693,3.4466,3.5955,0.0,3.9305,3.9913,4.0175,0.0,4.0226,4.0275,4.0201,4.0263,4.035,4.049,4.0379,4.035,4.0497,4.0669,4.0724,4.0652,4.1065,4.1343,4.1532,4.199,4.2328,4.2567,4.2806,4.2892,4.2892,4.2892,4.2892,4.2892,4.2892,4.2892,4.2892,4.2892,4.2892,4.2892,4.2892,4.2892,4.2892,0.0,0.0,0.0,0.0,0.0,0.0,0.0,0.6824,0.735,0.8607,0.8691,0.8479,0.8047,0.773,0.7534,0.0,0.0,0.0,0.0,0.0,0.0,0.0,0.0,0.9264,1.012,0.0,0.0,0.0,0.0,0.0,0.0,0.0,0.0,0.0,0.0,0.0,0.0,0.0,0.0,0.0,0.0,0.0,0.0,0.0,0.0,0.0,0.0,0.0,0.0,0.0,2.1232,2.298,2.4117,2.6257,2.8623,2.9924,3.1419,3.2805,3.3663,3.3987,3.389,3.3076,3.1769,2.9944,2.7106,2.4799,0.0,0.0,1.9837,1.9844,1.9968,0.0,2.2727,0.0,2.5673,2.807,3.1989,3.3806,3.5791,0.0,3.9643,0.0,4.0096,4.0096,0.0,4.0096,4.0196,4.0296,4.0395,4.0431,4.0529,4.0717,4.0978,4.1111,4.1111,4.1477,4.1835,4.2198,4.229,4.2537,4.2892,4.2892,4.2892,4.2892,4.2892,4.2892,4.2892,4.2892,4.2892,4.2892,4.2892,4.2892,4.2892,4.2892,4.2892,4.2892,0.0,0.0,0.0,0.0,0.0,0.0,0.0,0.6851,0.7486,0.9109,0.9002,0.8746,0.8629,0.8269,0.7897,0.0,0.0,0.0,0.0,0.0,0.0,0.0,0.0,0.0,0.0,0.0,0.0,0.0,0.0,0.0,0.0,0.0,0.0,0.0,0.0,0.0,0.0,0.0,0.0,0.0,0.0,0.0,0.0,0.0,0.0,0.0,0.0,0.0,0.0,0.0,0.0,2.0157,2.2187,2.4693,2.7104,2.8136,0.0,0.0,3.2805,3.3631,3.3777,3.2449,3.1035,2.9248,2.6361,0.0,0.0,2.0487,2.0156,2.0252,2.0564,2.1301,2.2636,2.5056,0.0,2.823,3.2679,3.4579,3.6372,3.873,0.0,0.0,4.0096,4.0096,4.0096,4.0096,4.0495,4.0731,4.0742,4.0873,4.1076,4.1393,4.1444,4.1448,4.1448,4.1909,4.2157,4.2216,4.2634,4.2854,4.2892,4.2892,4.2892,4.2892,4.2892,4.2892,4.2892,4.2892,4.2892,4.2892,4.2892,4.2892,4.2892,4.2892,4.2892,4.2892,0.0,0.0,0.0,0.0,0.0,0.0,0.0,0.6953,0.751,0.8866,0.8903,0.8694,0.8422,0.8254,0.7998,0.0,0.0,0.0,0.0,0.0,0.0,0.0,0.0,0.0,0.0,0.0,0.0,0.0,0.0,0.0,0.0,0.0,0.0,0.0,0.0,0.0,0.0,0.0,0.0,0.0,0.0,0.0,0.0,0.0,0.0,0.0,0.0,0.0,0.0,0.0,0.0,0.0,1.9476,2.1373,0.0,0.0,2.8409,2.9955,3.1385,3.2291,3.2583,3.1595,2.9955,2.8045,2.606,0.0,2.0915,2.0127,1.9766,1.9773,2.0352,2.1191,2.2199,2.3418,2.3859,2.5144,2.8272,3.0395,3.278,3.5921,3.7753,0.0,0.0,0.0,4.0221,4.0495,4.0683,4.1042,4.1609,4.1421,4.1348,4.1492,4.1764,4.192,4.192,4.2398,4.2624,4.2624,4.2816,4.2892,4.2892,4.2892,4.2892,4.2892,4.2892,4.2892,4.2892,4.2892,4.2892,4.2892,4.2892,4.2892,4.2892,4.2892,4.2892,4.2892,0.0,0.0,0.0,0.0,0.0,0.5495,0.6742,0.6936,0.738,0.8558,0.863,0.8455,0.8142,0.8114,0.7942,0.7523,0.0,0.0,0.0,0.0,0.0,0.0,0.0,0.0,0.0,0.0,0.0,0.0,0.0,0.0,0.0,0.0,0.0,0.0,0.0,0.0,0.0,0.0,0.0,0.0,0.0,0.0,0.0,0.0,0.0,0.0,0.0,0.0,0.0,0.0,0.0,0.0,0.0,0.0,0.0,0.0,2.6638,2.8492,2.9896,3.0964,3.1498,3.0786,2.9135,2.7274,0.0,2.2906,2.0562,2.0024,1.9835,1.989,2.0335,2.1259,2.2027,2.2268,2.2489,2.347,2.5914,2.8027,3.0608,0.0,0.0,3.8058,0.0,3.9979,4.0507,4.0972,4.1145,4.1565,4.2368,4.2087,4.1902,4.1902,4.2239,4.2408,4.2408,4.2731,4.2892,4.2892,4.2892,4.2892,4.2892,4.2892,4.2892,4.2892,4.2892,4.2892,4.2892,4.2892,4.2892,4.2892,4.2892,4.2892,4.2892,4.2892,4.2892,4.2892,0.0,0.0,0.0,0.0,0.0,0.0,0.0,0.6774,0.7062,0.8339,0.821,0.7982,0.7912,0.7904,0.771,0.7246,0.0,0.0,0.0,0.0,0.0,0.0,0.0,0.0,0.0,0.0,0.0,0.0,0.0,0.0,0.0,0.0,0.0,0.0,0.0,0.0,0.0,0.0,0.0,0.0,0.0,0.0,0.0,0.0,0.0,0.0,0.0,0.0,0.0,0.0,0.0,0.0,0.0,0.0,0.0,0.0,2.4154,2.7035,2.8444,2.9847,3.0742,3.0075,2.88,2.7144,2.4994,2.3055,2.1396,2.0401,2.0667,2.1002,2.0742,2.157,2.2296,2.2296,2.2919,2.4425,2.7367,2.9108,3.1181,0.0,0.0,3.7105,3.7843,3.9663,4.0984,4.1459,4.192,0.0,4.2863,4.2882,4.2882,4.2882,4.2882,4.2882,4.2882,4.291,4.2892,4.2892,4.2892,4.2892,4.2892,4.2892,4.2892,4.2892,4.2892,4.2892,4.2892,4.2892,4.2892,4.2892,4.2892,4.2892,4.2892,4.2892,4.2892,4.2892,0.0,0.0,0.0,0.0,0.0,0.0,0.0,0.612,0.6378,0.7111,0.7148,0.7107,0.7088,0.7076,0.7115,0.7189,0.0,0.0,0.0,0.0,0.0,0.0,0.0,0.0,0.0,0.0,0.0,0.0,0.0,0.0,0.0,0.0,0.0,0.0,0.0,0.0,0.0,0.0,0.0,0.0,0.0,0.0,0.0,0.0,0.0,0.0,0.0,0.0,0.0,0.0,0.0,0.0,0.0,0.0,0.0,1.9108,2.1408,0.0,2.548,2.6545,2.7231,2.6998,2.5901,2.4653,2.3966,2.2336,2.0944,2.0951,2.1038,2.1177,2.1418,2.1919,2.2624,2.3637,2.4,2.4821,2.6776,0.0,0.0,3.3525,3.6885,3.9265,0.0,0.0,4.1134,4.1909,4.2115,4.2408,4.2873,4.2892,4.2892,4.2892,4.2892,4.2892,4.2892,4.2892,4.2892,4.2892,4.2892,4.2892,4.2892,4.2892,4.2892,4.2892,4.2892,4.2892,4.2892,4.2892,4.2892,4.2892,4.2892,4.2892,4.2892,4.2892,4.2892,4.2892,0.0,0.0,0.0,0.0,0.0,0.0,0.0,0.57,0.5803,0.6179,0.6256,0.6305,0.6361,0.6472,0.6633,0.6843,0.0,0.0,0.0,0.0,0.0,0.0,0.0,0.0,0.0,0.0,0.0,0.0,0.0,0.0,0.0,0.0,0.0,0.0,0.0,0.0,0.0,0.0,0.0,0.0,0.0,0.0,0.0,0.0,0.0,0.0,0.0,0.0,0.0,0.0,0.0,0.0,0.0,0.0,0.0,0.0,1.9366,2.1203,0.0,2.4434,2.5186,2.5186,2.4329,2.335,2.2799,2.1662,2.0676,2.0504,2.0879,2.1258,2.1358,2.1886,2.2591,2.3519,2.3898,2.4694,0.0,0.0,0.0,3.4631,0.0,0.0,0.0,4.1062,4.1565,4.2157,4.2368,4.2595,4.2882,4.2892,4.2892,4.2892,4.2892,4.2892,4.2892,4.2892,4.2892,4.2892,4.2892,4.2892,4.2892,4.2892,4.2892,4.2892,4.2892,4.2892,0.0,4.2892,4.2892,4.2892,4.2892,4.2892,4.2892,4.2892,4.2892,4.2892,0.0,0.0,0.0,0.0,0.0,0.0,0.0,0.0,0.0,0.5535,0.5579,0.564,0.5753,0.606,0.6277,0.6305,0.0,0.0,0.0,0.0,0.0,0.0,0.0,0.0,0.0,0.0,0.0,1.2607,1.2836,1.3199,1.367,0.0,0.0,0.0,0.0,0.0,0.0,0.0,0.0,0.0,0.0,0.0,0.0,0.0,0.0,0.0,0.0,0.0,0.0,0.0,0.0,0.0,0.0,0.0,0.0,0.0,0.0,0.0,0.0,2.3082,2.4128,2.4128,2.3658,2.2848,2.1463,2.0971,0.0,1.9362,2.0334,2.1284,2.0888,2.1642,2.2347,2.2506,2.3156,0.0,0.0,2.8994,0.0,0.0,3.8383,0.0,4.0418,4.1543,4.2208,4.2257,4.2653,4.2892,4.2892,4.2892,4.2892,4.2892,4.2892,4.2892,4.2892,4.2892,4.2892,4.2892,4.2892,4.2892,4.2892,4.2892,4.2892,4.2892,4.2892,4.2892,4.2892,4.2892,4.2892,4.2892,4.2892,4.2892,4.2892,4.2892,4.2892,4.2892,0.0,0.0,0.0,0.0,0.0,0.0,0.0,0.0,0.0,0.0,0.5408,0.5549,0.5429,0.5717,0.6059,0.0,0.0,0.0,0.0,0.0,0.0,0.0,0.0,0.0,0.0,0.0,0.0,1.2607,1.3157,1.3695,1.4222,1.466,0.0,0.0,0.0,0.0,0.0,0.0,0.0,0.0,0.0,0.0,0.0,0.0,0.0,0.0,1.4163,1.4407,0.0,0.0,0.0,0.0,0.0,0.0,0.0,0.0,1.7704,1.8255,1.8936,0.0,2.0457,2.0457,2.0327,2.0117,0.0,1.988,1.9957,1.9557,2.0515,2.1513,2.1862,2.2136,2.2854,2.4552,0.0,2.6513,2.8231,0.0,0.0,4.0097,4.0718,4.1068,4.1709,4.2029,4.2358,4.2702,4.2844,4.2892,4.2892,4.2892,4.2892,4.2892,4.2892,4.2892,4.2892,4.2892,4.2892,4.2892,4.2892,4.2892,4.2892,4.2892,4.2892,4.2892,4.2892,4.2892,4.2892,4.2892,4.2892,4.2892,4.2892,4.2892,4.2892,4.2892,4.2892,4.2892,0.0,0.0,0.0,0.0,0.0,0.0,0.0,0.0,0.0,0.0,0.0,0.0,0.0,0.0,0.0,0.0,0.0,0.0,0.0,0.0,0.0,0.0,0.0,0.0,0.0,0.0,0.0,0.0,0.0,1.3982,0.0,0.0,0.0,0.0,0.0,0.0,0.0,0.0,0.0,0.0,0.0,0.0,0.0,0.0,0.0,0.0,1.3576,1.3926,0.0,1.5044,1.5695,1.6251,0.0,0.0,0.0,0.0,1.7354,1.764,1.764,1.8644,1.9697,1.9697,1.994,2.0115,1.9889,2.006,2.0181,0.0,0.0,0.0,0.0,0.0,0.0,0.0,2.6006,0.0,0.0,0.0,3.7773,4.111,4.1492,4.1764,0.0,4.2518,4.2624,4.2873,4.2892,4.2892,4.2892,4.2892,4.2892,4.2892,4.2892,4.2892,4.2892,4.2892,4.2892,4.2892,4.2892,4.2892,4.2892,4.2892,4.2892,4.2892,4.2892,4.2892,4.2892,4.2892,4.2892,4.2892,4.2892,4.2892,4.2892,4.2892,4.2892,4.2892,0.0,0.0,0.0,0.0,0.0,0.0,0.0,0.0,0.0,0.0,0.0,0.0,0.0,0.0,0.0,0.0,0.0,0.0,0.0,0.0,0.0,0.0,0.0,0.0,0.0,0.0,0.0,0.0,0.0,0.0,0.0,0.0,1.4926,0.0,0.0,0.0,0.0,0.0,0.0,0.0,0.0,0.0,0.0,0.0,0.0,0.0,0.0,0.0,0.0,1.4437,1.5233,1.609,1.6311,0.0,0.0,0.0,0.0,0.0,1.7225,1.8762,2.0277,2.0037,2.0483,2.0877,2.0515,0.0,0.0,0.0,0.0,0.0,0.0,2.2646,0.0,0.0,0.0,0.0,3.4378,3.6352,3.8387,4.1349,4.171,0.0,4.2825,4.2892,4.2892,4.2892,4.2892,4.2892,4.2892,4.2892,4.2892,4.2892,4.2892,4.2892,4.2892,4.2892,4.2892,4.2892,4.2892,4.2892,4.2892,4.2892,4.2892,4.2892,4.2892,4.2892,4.2892,4.2892,4.2892,4.2892,4.2892,4.2892,4.2892,4.2892,4.2892,4.2892,0.0,0.0,0.0,0.0,0.0,0.0,0.0,0.0,0.0,0.0,0.0,0.0,0.0,0.0,0.0,0.0,0.0,0.0,0.0,0.0,0.0,0.0,0.0,0.0,0.0,0.0,0.0,0.0,0.0,0.0,1.4522,1.4947,1.4721,0.0,0.0,0.0,0.0,0.0,0.0,0.0,0.0,0.0,0.0,0.0,0.0,0.0,0.0,0.0,0.0,1.3396,1.4388,1.5359,1.5398,0.0,0.0,0.0,0.0,0.0,1.7785,1.9183,2.0135,1.8782,1.8984,1.9558,1.965,1.976,0.0,0.0,0.0,0.0,0.0,2.3763,2.4974,0.0,0.0,3.3334,0.0,0.0,4.0305,4.2427,0.0,4.274,4.2882,4.2892,4.2892,4.2892,4.2892,4.2892,4.2892,4.2892,4.2892,4.2892,4.2892,4.2892,4.2892,4.2892,4.2892,4.2892,4.2892,4.2892,4.2892,4.2892,4.2892,4.2892,4.2892,4.2892,4.2892,4.2892,4.2892,4.2892,4.2892,4.2892,4.2892,4.2892,4.2892,4.2892,0.0,0.0,0.0,0.0,0.0,0.0,0.0,0.0,0.0,0.0,0.0,0.0,0.0,0.0,0.0,0.0,0.0,0.0,0.0,0.0,0.0,0.0,0.0,0.0,0.0,0.0,0.0,0.0,0.0,1.4292,1.4775,1.455,1.425,1.3862,0.0,0.0,0.0,0.0,0.0,0.0,0.0,0.0,0.0,0.0,0.0,0.0,0.0,0.0,0.0,0.0,1.3868,1.5199,1.5199,0.0,0.0,0.0,0.0,0.0,1.7484,1.8647,1.9719,1.9456,2.059,2.1759,2.1592,2.1881,0.0,0.0,0.0,0.0,0.0,0.0,2.6691,2.9736,0.0,3.5639,3.8073,3.9461,4.0783,0.0,0.0,4.2624,4.2873,4.2892,4.2892,4.2892,4.2892,4.2892,4.2892,4.2892,4.2892,4.2892,4.2892,4.2892,4.2892,4.2892,4.2892,4.2892,4.2892,4.2892,4.2892,4.2892,4.2892,4.2892,4.2892,4.2892,4.2892,4.2892,4.2892,4.2892,4.2892,4.2892,4.2892,4.2892,4.2892,4.2892,0.0,0.0,0.0,0.0,0.0,0.0,0.0,0.0,0.0,0.0,0.0,0.0,0.0,0.0,0.0,0.0,0.0,0.0,0.0,0.0,0.0,0.0,0.0,0.0,0.0,0.0,1.2247,1.3165,1.3985,1.458,1.4924,1.4355,1.3897,0.0,0.0,0.0,0.0,0.0,0.0,0.0,0.0,0.0,0.0,0.0,0.0,0.0,0.0,0.0,0.0,0.0,0.0,0.0,0.0,0.0,0.0,1.7076,1.6982,1.6917,1.7241,1.8286,1.947,2.0293,0.0,2.3502,2.3759,2.406,0.0,0.0,0.0,0.0,0.0,2.6767,0.0,3.2293,3.5177,3.7477,3.8833,4.0158,4.1326,4.2238,4.2368,4.2516,4.2863,4.2892,4.2892,4.2892,4.2892,4.2892,4.2892,4.2892,4.2892,4.2892,4.2892,4.2892,4.2892,4.2892,4.2892,4.2892,4.2892,4.2892,4.2892,4.2892,4.2892,4.2892,4.2892,4.2892,4.2892,4.2892,4.2892,4.2892,4.2892,4.2892,4.2892,4.2892,4.2892,4.2892,0.0,0.0,0.0,0.0,0.0,0.0,0.0,0.0,0.0,0.0,0.0,0.0,0.0,0.0,0.0,0.0,0.0,0.0,0.0,0.0,0.0,0.0,0.0,0.0,0.0,1.1869,1.2509,1.3913,1.4242,1.4418,1.4453,1.4574,1.385,1.2422,0.0,0.0,0.0,0.0,0.0,0.0,0.0,0.0,0.0,0.0,0.0,0.0,0.0,0.0,0.0,0.0,0.0,0.0,0.0,0.0,1.6695,1.7003,1.6625,1.637,1.7672,1.8741,1.9639,2.0333,2.1137,2.2401,2.4801,2.4799,0.0,2.6325,0.0,0.0,0.0,2.9939,3.2418,3.4077,3.7015,3.935,4.0165,0.0,4.2743,4.2844,4.2844,4.2863,4.291,4.2892,4.2892,4.2892,4.2892,4.2892,4.2892,4.2892,4.2892,4.2892,4.2892,4.2892,4.2892,4.2892,4.2892,4.2892,4.2892,4.2892,4.2892,4.2892,4.2892,4.2892,4.2892,4.2892,4.2892,4.2892,4.2892,4.2892,4.2892,4.2892,4.2892,4.2892,4.2892,4.2892,0.0,0.0,0.0,0.0,0.0,0.0,0.0,0.0,0.0,0.0,0.0,0.0,0.0,0.0,0.0,0.0,0.0,0.0,0.0,0.0,0.0,0.0,0.0,1.0285,1.1315,1.2246,1.3221,1.4243,1.4352,1.4407,1.4384,1.3914,0.0,0.0,0.0,0.0,0.0,0.0,0.0,0.0,0.0,0.0,0.0,0.0,0.0,0.0,0.0,0.0,0.0,0.0,1.2929,1.4111,1.4136,1.5413,1.686,1.6508,1.6224,1.6224,1.7202,1.8467,1.9687,2.0489,2.1984,0.0,0.0,2.6042,2.7029,2.8537,2.9196,0.0,0.0,0.0,3.3064,3.4306,3.7415,3.983,4.0327,4.1847,4.2892,4.2892,4.2892,4.2892,4.2892,4.2892,4.2892,4.2892,4.2892,4.2892,4.2892,4.2892,4.2892,4.2892,4.2892,4.2892,4.2892,4.2892,4.2892,4.2892,4.2892,4.2892,4.2892,4.2892,4.2892,4.2892,4.2892,4.2892,4.2892,4.2892,4.2892,4.2892,4.2892,4.2892,4.2892,4.2892,4.2892,4.2892,0.0,0.0,0.0,0.0,0.0,0.0,0.0,0.0,0.0,0.0,0.0,0.0,0.0,0.0,0.0,0.0,0.0,0.0,0.0,0.0,0.0,0.0,0.0,1.0127,1.1085,1.2307,1.3322,1.4143,1.4326,1.4235,1.3912,0.0,0.0,0.0,0.0,0.0,0.0,0.0,0.0,0.0,0.0,0.0,0.0,0.0,0.0,0.0,0.0,0.0,0.0,0.0,1.2772,1.3753,1.4066,1.5237,1.6437,1.6096,1.6195,1.6519,1.703,1.8342,1.9805,2.0853,0.0,0.0,2.6109,2.74,2.8793,3.0439,3.12,3.1623,3.185,0.0,0.0,0.0,3.7955,4.0157,4.0873,4.2087,4.2892,4.2892,4.2892,4.2892,4.2892,4.2892,4.2892,4.2892,4.2892,4.2892,4.2892,4.2892,4.2892,4.2892,4.2892,4.2892,4.2892,4.2892,4.2892,4.2892,4.2892,4.2892,4.2892,4.2892,4.2892,4.2892,4.2892,4.2892,4.2892,4.2892,4.2892,4.2892,4.2892,4.2892,4.2892,4.2892,4.2892,4.2892,0.0,0.0,0.0,0.0,0.0,0.0,0.0,0.0,0.0,0.0,0.0,0.0,0.0,0.0,0.0,0.0,0.0,0.0,0.0,0.0,0.0,0.0,0.0,1.0149,1.1736,1.1982,1.259,1.3603,1.4131,1.3889,1.2898,1.3029,0.0,0.0,0.0,0.0,0.0,0.0,0.0,0.0,0.0,0.0,0.0,0.0,0.0,0.0,0.0,0.0,0.0,0.0,1.2618,1.2775,1.4909,1.5414,1.5316,1.5855,1.6626,1.7293,1.7315,1.8474,2.004,0.0,0.0,0.0,2.8057,2.8874,2.9653,3.187,3.2327,3.2547,3.3288,3.3737,0.0,3.7113,3.8858,4.0451,4.1966,4.2596,4.2892,4.2892,4.2892,4.2892,4.2892,4.2892,4.2892,4.2892,4.2892,4.2892,4.2892,4.2892,4.2892,4.2892,4.2892,4.2892,4.2892,4.2892,4.2892,4.2892,4.2892,4.2892,4.2892,4.2892,4.2892,4.2892,4.2892,4.2892,4.2892,4.2892,4.2892,4.2892,4.2892,4.2892,4.2892,4.2892,4.2892,4.2892,0.0,0.0,0.0,0.0,0.0,0.0,0.0,0.0,0.0,0.0,0.0,0.0,0.0,0.0,0.0,0.0,0.0,0.0,0.0,0.0,0.0,0.0,0.0,0.0,0.0,0.0,1.2206,1.3603,1.3429,1.3187,0.0,0.0,0.0,1.2401,0.0,0.0,0.0,0.0,0.0,0.0,0.0,0.0,0.0,0.0,0.0,0.0,0.0,0.0,0.0,0.0,0.0,0.0,1.3888,1.5227,1.6466,1.6118,1.6552,1.7289,1.7955,1.8918,0.0,2.2336,0.0,0.0,0.0,3.0168,0.0,0.0,3.4201,3.3907,3.4134,3.4552,0.0,3.6523,3.8508,4.0255,4.1282,4.2282,4.2892,4.2892,4.2892,4.2892,4.2892,4.2892,4.2892,4.2892,4.2892,4.2892,4.2892,4.2892,4.2892,4.2892,4.2892,4.2892,4.2892,4.2892,4.2892,4.2892,4.2892,4.2892,4.2892,4.2892,4.2892,4.2892,4.2892,4.2892,4.2892,4.2892,4.2892,4.2892,4.2892,4.2892,4.2892,4.2892,4.2892,4.2892,0.0,0.0,0.0,0.0,0.0,0.0,0.0,0.0,0.0,0.0,0.0,0.0,0.0,0.0,0.0,0.0,0.0,0.0,0.0,0.0,0.0,0.0,0.0,0.0,0.0,1.0948,1.1882,0.0,0.0,0.0,0.0,0.0,0.0,1.2763,0.0,1.299,0.0,0.0,0.0,0.0,0.0,1.1638,1.1903,0.0,0.0,0.0,0.0,0.0,0.0,0.0,0.0,0.0,1.3314,1.4503,1.5726,1.6002,1.6856,1.7892,1.8811,2.0084,0.0,2.3697,2.5686,2.7892,3.0758,0.0,0.0,0.0,3.5002,3.4655,3.5128,3.5342,0.0,3.7109,3.8896,4.0423,4.1231,4.2234,4.2892,4.2892,4.2892,4.2892,4.2892,4.2892,4.2892,4.2892,4.2892,4.2892,4.2892,4.2892,4.2892,4.2892,4.2892,4.2892,4.2892,4.2892,4.2892,4.2892,4.2892,4.2892,4.2892,4.2892,4.2892,4.2892,4.2892,4.2892,4.2892,4.2892,4.2892,4.2892,4.2892,4.2892,4.2892,4.2892,4.2892,4.2892,0.0,0.0,0.0,0.0,0.0,0.0,0.0,0.0,0.0,0.0,0.0,0.0,0.0,0.0,0.0,0.0,0.0,0.0,0.0,0.0,0.0,0.0,0.0,0.0,0.0,0.0,0.0,0.0,0.0,0.0,0.0,0.0,1.2629,1.3303,0.0,1.3536,0.0,0.0,0.0,0.0,1.1916,1.1926,1.2219,1.2281,0.0,0.0,0.0,0.0,0.0,0.0,0.0,0.0,1.3124,1.3542,1.3951,1.568,1.7316,1.8786,1.9724,2.1602,0.0,2.5389,2.7072,0.0,3.2618,3.4015,3.4793,3.5459,0.0,3.4946,3.6079,3.605,3.6471,3.8395,3.9616,4.0655,4.1578,4.2339,4.2819,4.2892,4.2892,4.2892,4.2892,4.2892,4.2892,4.2892,4.2892,4.2892,4.2892,4.2892,4.2892,4.2892,4.2892,4.2892,4.2892,4.2892,4.2892,4.2892,4.2892,4.2892,4.2892,4.2892,4.2892,4.2892,4.2892,4.2892,4.2892,4.2892,4.2892,4.2892,4.2892,4.2892,4.2892,4.2892,4.2892,4.2892,0.0,0.0,0.0,0.0,0.0,0.0,0.0,0.0,0.0,0.0,0.0,0.0,0.0,0.0,0.0,0.0,0.0,0.0,0.0,0.0,0.0,0.0,0.0,0.0,0.0,0.0,0.0,0.0,0.0,0.0,0.0,0.0,0.0,1.3131,0.0,1.2625,0.0,0.0,0.0,1.2169,1.2112,1.2161,1.2287,1.2343,1.2006,0.0,0.0,0.0,0.0,0.0,0.0,0.0,1.3005,1.3873,1.4798,1.5762,1.7181,1.8765,2.0271,2.1514,0.0,0.0,2.9858,3.2415,3.322,3.4427,3.5408,3.5566,3.5464,3.5552,3.6182,3.6236,3.6748,3.8419,3.8928,3.9695,4.1451,4.185,4.2185,4.2819,4.2892,4.2892,4.2892,4.2892,4.2892,4.2892,4.2892,4.2892,4.2892,4.2892,4.2892,4.2892,4.2892,4.2892,4.2892,4.2892,4.2892,4.2892,4.2892,4.2892,4.2892,4.2892,4.2892,4.2892,4.2892,4.2892,4.2892,4.2892,4.2892,4.2892,4.2892,4.2892,4.2892,4.2892,4.2892,4.2892,0.0,0.0,0.0,0.0,0.0,0.0,0.0,0.0,0.0,0.0,0.0,0.0,0.0,0.0,0.0,0.0,0.0,0.0,0.0,0.0,0.8463,0.8726,0.0,0.0,0.0,0.0,0.0,0.0,0.0,0.0,0.0,0.0,0.0,1.358,0.0,1.3338,0.0,0.0,0.0,1.2113,1.2169,1.2238,1.2306,1.2361,1.2033,1.1495,1.1495,0.0,0.0,0.0,0.0,0.0,0.0,0.0,1.4114,1.5283,1.6515,1.7927,1.9893,0.0,0.0,2.7521,0.0,3.2977,3.3311,3.4258,3.5171,3.5526,3.56,3.5805,3.6482,3.6587,3.6991,3.8259,3.878,3.9401,4.0456,4.1234,4.1859,4.2285,4.2674,4.2892,4.2892,4.2892,4.2892,4.2892,4.2892,4.2892,4.2892,4.2892,4.2892,4.2892,4.2892,4.2892,4.2892,4.2892,4.2892,4.2892,4.2892,4.2892,4.2892,4.2892,4.2892,4.2892,4.2892,4.2892,4.2892,4.2892,4.2892,4.2892,4.2892,4.2892,4.2892,4.2892,4.2892,4.2892,0.0,0.0,0.0,0.0,0.0,0.0,0.0,0.0,0.0,0.0,0.0,0.0,0.0,0.0,0.0,0.0,0.0,0.0,0.0,0.7824,0.8605,0.9131,0.0,0.0,0.0,0.0,0.0,0.0,0.0,0.0,0.0,0.0,0.0,1.4368,0.0,0.0,0.0,0.0,1.1986,1.1976,1.2025,1.2093,1.2172,1.2214,1.1937,1.1495,1.1495,1.1495,1.1528,1.1734,0.0,0.0,0.0,0.0,1.3094,1.4556,1.5664,1.6898,1.8949,0.0,2.4524,2.797,3.0492,0.0,3.3034,3.3778,3.4523,3.5256,3.5509,3.5865,3.6741,3.69,3.7188,3.8063,3.8762,3.9233,3.9378,4.0501,4.1343,4.1488,4.2212,4.2692,4.2692,4.2819,4.2892,4.2892,4.2892,4.2892,4.2892,4.2892,4.2892,4.2892,4.2892,4.2892,4.2892,4.2892,4.2892,4.2892,4.2892,4.2892,4.2892,4.2892,4.2892,4.2892,4.2892,4.2892,4.2892,4.2892,4.2892,4.2892,4.2892,4.2892,4.2892,4.2892,4.2892,4.2892,0.0,0.0,0.0,0.0,0.0,0.0,0.0,0.0,0.0,0.0,0.0,0.4285,0.4771,0.5009,0.0,0.0,0.0,0.0,0.6853,0.0,0.0,0.0,0.0,0.0,0.0,0.0,0.0,0.0,0.0,0.0,0.0,0.0,0.0,1.5293,0.0,0.0,0.0,0.0,0.0,1.1405,1.1416,1.15,1.1608,1.162,1.1576,1.1495,1.1495,1.1495,1.1528,1.1734,1.1929,0.0,0.0,0.0,1.2977,1.3819,1.5097,1.6479,0.0,0.0,2.5043,0.0,2.9758,3.1539,0.0,0.0,3.3761,0.0,3.5154,3.5865,3.6741,3.69,3.7188,3.8063,3.8291,3.8599,3.9305,3.9568,3.9948,4.0591,4.137,4.1859,4.1859,4.2484,4.2892,4.2892,4.2892,4.2892,4.2892,4.2892,4.2892,4.2892,4.2892,4.2892,4.2892,4.2892,4.2892,4.2892,4.2892,4.2892,4.2892,4.2892,4.2892,4.2892,4.2892,4.2892,4.2892,4.2892,4.2892,4.2892,4.2892,4.2892,4.2892,4.2892,4.2892,4.2892,0.0,0.0,0.0,0.0,0.0,0.0,0.0,0.0,0.0,0.0,0.0,0.4669,0.4981,0.5097,0.0,0.0,0.0,0.0,0.6951,0.7545,0.0,0.0,0.0,0.0,0.0,0.0,0.0,0.0,0.0,0.0,0.0,1.3439,1.4435,0.0,0.0,0.0,0.0,0.0,0.0,1.177,1.1404,1.1835,1.2644,1.1771,1.2056,1.2793,1.1963,1.174,0.0,0.0,1.2257,1.2368,1.2596,0.0,0.0,0.0,1.4111,1.5603,1.8285,2.1471,2.4592,0.0,2.8764,3.0387,3.1587,3.2427,3.3138,3.385,3.4247,3.4989,3.6604,3.69,3.7188,3.8063,3.82,3.8309,3.8671,3.9124,3.9523,3.9858,4.0555,4.1198,4.165,4.2022,4.2411,4.2873,4.2892,4.2892,4.2892,4.2892,4.2892,4.2892,4.2892,4.2892,4.2892,4.2892,4.2892,4.2892,4.2892,4.2892,4.2892,4.2892,4.2892,4.2892,4.2892,4.2892,4.2892,4.2892,4.2892,4.2892,4.2892,4.2892,4.2892,4.2892,4.2892,4.2892,0.0,0.0,0.0,0.0,0.0,0.0,0.0,0.0,0.0,0.0,0.0,0.0,0.5403,0.0,0.0,0.0,0.0,0.0,0.6604,0.0,0.0,0.0,0.0,0.0,0.0,0.0,0.0,0.0,0.0,0.0,1.3901,1.4238,1.5231,0.0,1.6344,0.0,0.0,0.0,0.0,0.0,0.0,1.2557,1.3621,1.2846,1.3355,1.4303,1.2865,0.0,0.0,0.0,0.0,0.0,0.0,0.0,0.0,0.0,0.0,0.0,0.0,0.0,2.3033,2.5538,2.7417,2.9048,0.0,0.0,3.2281,0.0,3.3322,3.3949,3.5978,3.6498,3.6967,3.8027,3.82,3.82,3.82,3.8726,3.9106,3.9106,3.9767,4.0465,4.1062,4.1298,4.1732,4.252,4.2592,4.2692,4.2892,4.2892,4.2892,4.2892,4.2892,4.2892,4.2892,4.2892,4.2892,4.2892,4.2892,4.2892,4.2892,4.2892,4.2892,4.2892,4.2892,4.2892,4.2892,4.2892,4.2892,4.2892,4.2892,4.2892,4.2892,4.2892,4.2892,4.2892,0.0,0.0,0.0,0.0,0.0,0.0,0.0,0.0,0.0,0.0,0.0,0.0,0.0,0.0,0.0,0.0,0.0,0.0,0.0,0.0,0.0,0.0,0.0,0.0,0.0,0.0,0.0,0.0,0.0,0.0,1.3357,1.4067,1.5592,1.772,1.7565,1.6508,1.48,0.0,0.0,0.0,0.0,0.0,1.384,1.5168,1.5727,1.5627,0.0,0.0,0.0,0.0,0.0,0.0,0.0,1.2806,1.2806,0.0,0.0,0.0,0.0,1.8521,0.0,2.3106,2.551,2.7511,0.0,0.0,3.0917,3.2352,3.2596,3.3017,3.4546,3.5385,3.6367,3.7946,3.82,3.82,3.82,3.8237,3.8255,3.8255,3.8961,3.9468,3.9523,4.0139,4.0899,4.1705,4.1759,4.2094,4.2855,4.2892,4.2892,4.2892,4.2892,4.2892,4.2892,4.2892,4.2892,4.2892,4.2892,4.2892,4.2892,4.2892,4.2892,4.2892,4.2892,4.2892,4.2892,4.2892,4.2892,4.2892,4.2892,4.2892,4.2892,4.2892,4.2892,4.2892,0.0,0.0,0.0,0.0,0.0,0.0,0.0,0.0,0.0,0.0,0.0,0.0,0.0,0.0,0.0,0.0,0.0,0.0,0.0,0.0,0.0,0.0,0.0,0.0,0.0,0.0,0.0,0.0,0.0,1.0338,1.2234,1.3493,1.4719,1.5912,1.6685,1.6859,1.648,1.4675,0.0,0.0,0.0,0.0,0.0,1.5784,1.6529,1.7323,0.0,0.0,0.0,0.0,0.0,0.0,1.3763,1.3518,1.3415,1.294,1.3656,0.0,0.0,0.0,0.0,2.1182,2.368,2.6037,2.7253,2.8719,3.0143,3.1277,3.1521,3.2055,3.375,3.4586,3.5561,3.7169,3.743,3.7611,3.8128,3.82,3.82,3.82,3.8454,3.8834,3.936,3.9641,4.0103,4.0881,4.0926,4.1062,4.1334,4.1841,4.213,4.213,4.2638,4.2892,4.2892,4.2892,4.2892,4.2892,4.2892,4.2892,4.2892,4.2892,4.2892,4.2892,4.2892,4.2892,4.2892,4.2892,4.2892,4.2892,4.2892,4.2892,4.2892,4.2892,4.2892,4.2892,0.0,0.0,0.0,0.0,0.0,0.0,0.0,0.0,0.0,0.0,0.0,0.0,0.0,0.0,0.0,0.0,0.0,0.0,0.0,0.0,0.0,0.0,0.0,0.0,0.0,0.0,0.0,0.0,0.0,0.0,0.0,1.2747,1.3811,1.4829,1.5477,1.6334,0.0,0.0,0.0,1.5497,0.0,0.0,1.7054,0.0,1.8228,0.0,0.0,0.0,0.0,0.0,0.0,0.0,0.0,1.3964,1.3441,1.2992,1.3896,0.0,1.5173,0.0,0.0,0.0,0.0,2.3926,2.5743,2.7299,2.871,2.9939,3.0615,3.1406,3.2756,3.3571,3.4621,3.6359,3.6872,3.7209,3.772,3.8019,3.82,3.82,3.82,3.84,3.8943,3.8997,3.9315,4.0066,4.0121,4.0247,4.0483,4.0999,4.1415,4.1687,4.2484,4.2892,4.2892,4.2892,4.2892,4.2892,4.2892,4.2892,4.2892,4.2892,4.2892,4.2892,4.2892,4.2892,4.2892,4.2892,4.2892,4.2892,4.2892,4.2892,4.2892,4.2892,4.2892,4.2892,0.0,0.0,0.0,0.0,0.0,0.0,0.0,0.0,0.0,0.7856,0.0,0.0,0.0,0.0,0.0,0.0,0.0,0.0,0.7239,0.0,0.0,0.0,0.0,0.0,0.0,0.0,0.0,0.0,0.0,0.0,0.0,0.0,1.2968,1.4724,1.4155,1.4914,1.6638,0.0,1.6633,1.6748,0.0,1.7552,1.7926,0.0,0.0,0.0,2.0447,1.9651,0.0,1.823,0.0,0.0,0.0,1.4155,1.2915,1.3033,1.3609,0.0,0.0,0.0,0.0,0.0,0.0,0.0,2.4464,0.0,2.653,2.8373,2.9904,3.1018,3.147,3.235,3.3599,3.5483,3.6482,3.7029,3.7003,3.7665,3.8164,3.82,3.82,3.82,3.82,3.82,3.8508,3.9305,3.9351,3.9677,4.0392,4.0447,4.0836,4.1632,4.2448,4.2855,4.2855,4.2892,4.2892,4.2892,4.2892,4.2892,4.2892,4.2892,4.2892,4.2892,4.2892,4.2892,4.2892,4.2892,4.2892,4.2892,4.2892,4.2892,4.2892,4.2892,4.2892,4.2892,0.0,0.0,0.0,0.0,0.0,0.0,0.741,0.7704,0.8016,0.0,0.0,0.0,0.0,0.0,0.0,0.0,0.0,0.0,0.8209,0.8429,0.8651,0.8868,0.9516,0.997,0.0,0.0,0.0,0.0,0.0,0.0,0.0,0.0,0.0,0.0,1.3783,1.4437,1.5272,1.4388,0.0,0.0,1.6824,1.7733,0.0,0.0,0.0,0.0,0.0,2.2251,2.2216,0.0,2.0822,1.9673,0.0,0.0,0.0,1.4696,1.5589,0.0,1.5637,0.0,0.0,0.0,0.0,0.0,0.0,0.0,2.4469,2.7409,2.8095,2.8721,3.0474,3.1859,3.2844,3.3301,3.445,3.5688,3.6832,3.7194,3.7557,3.8128,3.82,3.82,3.82,3.82,3.8291,3.8508,3.8526,3.8617,3.8834,3.9387,4.0057,4.08,4.1605,4.2022,4.2022,4.262,4.2892,4.2892,4.2892,4.2892,4.2892,4.2892,4.2892,4.2892,4.2892,4.2892,4.2892,4.2892,4.2892,4.2892,4.2892,4.2892,4.2892,4.2892,4.2892,4.2892,0.0,0.0,0.0,0.0,0.0,0.8707,0.8733,0.9022,0.9253,0.0,0.0,0.0,0.0,0.0,0.0,0.0,0.0,0.0,0.9308,0.9137,0.9156,0.9428,0.9837,1.0185,1.0466,0.0,0.0,0.0,0.0,0.0,0.0,0.0,0.0,0.0,1.2461,1.2932,1.3207,0.0,0.0,0.0,1.7854,0.0,0.0,2.1579,2.2357,0.0,0.0,0.0,2.3205,2.3353,2.2321,0.0,0.0,1.7535,1.6427,1.6254,1.7188,0.0,0.0,0.0,0.0,0.0,0.0,0.0,2.1996,2.2357,2.3031,0.0,2.667,2.7362,2.8911,3.0374,3.1361,3.1386,3.2645,3.4045,3.532,3.5791,3.6172,3.6643,3.7295,3.7701,3.7701,3.8001,3.82,3.82,3.82,3.82,3.82,3.8961,3.9604,4.003,4.0782,4.1361,4.1705,4.2167,4.2574,4.2892,4.2892,4.2892,4.2892,4.2892,4.2892,4.2892,4.2892,4.2892,4.2892,4.2892,4.2892,4.2892,4.2892,4.2892,4.2892,4.2892,4.2892,4.2892,0.0,0.0,0.9529,0.985,0.9914,1.0119,1.0759,1.0833,1.088,0.0,0.0,0.0,0.0,0.0,0.0,0.0,0.0,0.0,1.0512,0.9932,0.971,0.997,1.0217,1.0478,1.0735,1.0974,0.0,0.0,0.0,0.0,0.0,0.0,0.0,1.032,1.0858,1.1097,1.1111,0.0,0.0,1.6859,1.922,2.0321,0.0,0.0,2.3031,2.2824,2.41,2.3845,2.308,2.423,2.3063,0.0,0.0,1.9455,1.7775,1.7843,1.8634,0.0,1.8627,1.9045,0.0,0.0,1.9539,0.0,2.2181,2.2099,2.2011,0.0,2.5195,2.6202,2.6946,2.8264,2.9339,2.9647,3.0898,3.2194,3.3248,3.4092,3.4635,3.4725,3.5918,3.6777,3.6868,3.7512,3.7965,3.8064,3.8146,3.82,3.82,3.8871,3.9269,3.9269,3.9994,4.0718,4.1433,4.1614,4.2058,4.2765,4.2855,4.2892,4.2892,4.2892,4.2892,4.2892,4.2892,4.2892,4.2892,4.2892,4.2892,4.2892,4.2892,4.2892,4.2892,4.2892,4.2892,4.2892,0.0,0.0,0.9843,1.0496,1.0597,1.1012,1.2267,1.2002,1.2035,1.3059,0.0,0.0,0.0,0.0,0.0,0.0,0.0,0.0,1.1818,1.0768,1.0267,1.0528,1.0595,1.0753,1.1015,1.1068,1.1041,0.0,0.0,0.0,0.0,0.0,0.0,0.0,1.1055,1.1097,1.1241,0.0,0.0,1.6448,1.7178,0.0,2.1805,2.2896,2.3961,2.4996,2.5831,2.6409,2.6636,2.6045,2.5619,2.4879,0.0,2.1631,2.1541,2.0056,2.06,2.1436,2.0283,2.0986,2.1768,2.0676,0.0,0.0,2.1053,2.0781,2.0973,0.0,2.2218,2.2658,2.476,2.6135,2.7139,2.7725,2.8748,3.039,3.3027,3.4092,3.4834,3.5486,3.5269,3.5331,3.5975,3.6174,3.6544,3.7194,3.782,3.82,3.82,3.8345,3.8436,3.8436,3.9197,3.9695,3.984,4.108,4.1777,4.1949,4.2592,4.2892,4.2892,4.2892,4.2892,4.2892,4.2892,4.2892,4.2892,4.2892,4.2892,4.2892,4.2892,4.2892,4.2892,4.2892,4.2892,4.2892,0.0,1.0257,1.0598,1.1194,1.1554,1.2178,1.3458,1.3389,1.3526,0.0,0.0,0.0,0.0,0.0,0.0,0.0,0.0,0.0,0.0,1.1248,1.0732,1.07,1.0693,1.0825,1.1085,1.1097,1.1097,1.1097,0.0,0.0,0.0,1.0793,1.1056,0.0,1.176,1.1992,0.0,0.0,1.5366,1.6814,1.8614,0.0,2.285,2.3756,2.4921,2.6095,2.6477,2.7257,2.7899,2.6584,2.6236,0.0,0.0,2.3525,2.3378,0.0,2.2636,2.2798,2.1809,2.2113,2.2595,2.2192,0.0,0.0,0.0,2.152,2.1394,2.2764,2.2082,2.1972,2.433,2.481,2.5165,2.6145,2.7349,2.8694,3.0285,3.1139,3.1767,3.2166,3.2915,3.3549,3.3965,3.5088,3.5975,3.6363,3.715,3.7611,3.7611,3.7983,3.82,3.82,3.8581,3.8997,3.9396,4.0537,4.1288,4.1705,4.252,4.2892,4.2892,4.2892,4.2892,4.2892,4.2892,4.2892,4.2892,4.2892,4.2892,4.2892,4.2892,4.2892,4.2892,4.2892,4.2892,4.2892,0.0,0.0,1.1313,1.1728,1.2501,1.3418,1.4494,1.4818,1.5108,0.0,0.0,0.0,0.0,0.0,0.0,0.0,0.0,0.0,0.0,0.0,1.1649,1.133,1.1078,1.1113,1.1456,1.1223,1.1097,1.1097,0.0,0.0,1.1097,1.1097,1.1589,1.2479,0.0,0.0,0.0,0.0,0.0,1.7937,0.0,2.2413,2.3215,2.4451,2.5537,2.6474,2.7062,2.7993,2.8712,2.7169,2.6687,2.659,2.5715,2.5053,0.0,0.0,0.0,0.0,0.0,0.0,0.0,0.0,0.0,2.2826,0.0,0.0,0.0,2.3295,2.2389,0.0,0.0,0.0,0.0,2.4732,0.0,0.0,0.0,2.758,0.0,2.8576,3.0333,3.1636,3.1933,3.3875,3.5305,3.5768,3.6109,3.6506,3.6977,3.7629,3.8046,3.82,3.82,3.8508,3.916,3.9903,4.07,4.1488,4.2285,4.2747,4.2892,4.2892,4.2892,4.2892,4.2892,4.2892,4.2892,4.2892,4.2892,4.2892,4.2892,4.2892,4.2892,4.2892,4.2892,4.2892,1.0638,1.1129,0.0,1.1774,1.3227,1.4651,1.5435,1.6062,0.0,0.0,0.0,0.0,0.0,0.0,0.0,0.0,0.0,0.0,1.6919,0.0,0.0,1.355,1.2444,1.2141,1.277,1.1673,1.1097,1.1097,1.1097,0.0,1.1097,1.1097,1.1572,1.2433,1.3024,0.0,0.0,0.0,1.8007,0.0,2.1454,2.1768,0.0,2.4105,2.5298,2.6061,2.8739,3.0215,3.0668,0.0,2.8685,2.8313,0.0,2.5965,2.6184,2.501,0.0,0.0,0.0,0.0,0.0,0.0,2.5239,0.0,0.0,0.0,2.228,2.1307,0.0,0.0,0.0,0.0,0.0,0.0,0.0,0.0,2.5234,2.5432,2.6365,2.8445,2.8885,2.9566,3.0991,3.2042,3.3502,3.5649,3.4562,3.4741,3.6886,3.7085,3.7466,3.8182,3.82,3.8237,3.8345,3.9124,3.9894,4.0646,4.1451,4.2203,4.2892,4.2892,4.2892,4.2892,4.2892,4.2892,4.2892,4.2892,4.2892,4.2892,4.2892,4.2892,4.2892,4.2892,4.2892,4.2892,1.0825,1.162,0.0,1.196,1.3472,1.4934,1.5598,1.715,1.8285,0.0,0.0,0.0,0.0,0.0,0.0,0.0,0.0,1.8068,0.0,0.0,0.0,1.4444,1.3572,1.308,1.2995,1.2089,1.1456,1.1097,1.1097,1.1155,0.0,0.0,1.2393,1.4423,1.4524,0.0,1.8275,0.0,1.8841,0.0,0.0,0.0,0.0,2.5107,2.7083,2.8424,3.0121,3.0937,3.097,0.0,2.8993,0.0,0.0,0.0,0.0,0.0,0.0,0.0,0.0,0.0,0.0,0.0,0.0,0.0,2.3323,0.0,2.2656,0.0,0.0,0.0,0.0,0.0,0.0,0.0,2.3956,0.0,0.0,0.0,2.4339,2.6421,0.0,0.0,3.011,3.0611,3.1426,3.2904,3.2814,3.3357,3.4831,3.6234,3.7158,3.7502,3.7955,3.82,3.82,3.8997,3.9767,4.0519,4.1325,4.2112,4.2892,4.2892,4.2892,4.2892,4.2892,4.2892,4.2892,4.2892,4.2892,4.2892,4.2892,4.2892,4.2892,4.2892,4.2892,4.2892,1.1296,0.0,0.0,0.0,1.3691,1.5312,1.6098,1.7894,1.9203,0.0,0.0,0.0,2.1406,2.1253,0.0,0.0,2.1465,2.0391,0.0,0.0,1.7063,1.6137,1.5157,1.4427,1.397,1.2984,1.215,1.1507,1.1333,1.1408,0.0,0.0,1.2848,1.5359,1.5494,1.7333,2.0273,0.0,2.02,2.1706,2.2546,2.3422,2.4455,2.6701,2.8743,3.048,3.1004,3.12,3.1014,2.9728,2.9305,0.0,2.9061,0.0,0.0,0.0,0.0,0.0,2.6044,0.0,0.0,0.0,0.0,0.0,0.0,0.0,0.0,0.0,0.0,0.0,0.0,0.0,0.0,0.0,0.0,2.3623,0.0,2.2753,0.0,0.0,0.0,0.0,2.8969,2.8945,2.9331,3.0575,3.0803,3.1618,3.3302,3.5266,3.6534,3.6995,3.7784,3.82,3.82,3.878,3.955,4.0519,4.1089,4.1913,4.2892,4.2892,4.2892,4.2892,4.2892,4.2892,4.2892,4.2892,4.2892,4.2892,4.2892,4.2892,4.2892,4.2892,4.2892,4.2892,1.2252,1.2649,0.0,0.0,0.0,1.6084,1.7351,1.81,1.8736,0.0,0.0,0.0,0.0,0.0,0.0,0.0,0.0,2.3612,2.3229,0.0,2.033,1.9389,1.7527,1.646,0.0,1.4589,1.3285,1.2556,1.1899,1.1914,1.2547,0.0,1.2433,1.4011,1.5386,1.7054,1.8954,2.0281,2.284,2.5941,2.5345,2.7005,2.9745,0.0,2.9587,3.1166,3.119,0.0,0.0,3.0318,3.0065,0.0,0.0,0.0,0.0,0.0,0.0,0.0,0.0,0.0,0.0,2.5717,0.0,0.0,0.0,0.0,2.4505,0.0,0.0,0.0,0.0,0.0,0.0,0.0,0.0,0.0,0.0,0.0,0.0,0.0,0.0,0.0,0.0,2.6777,2.729,2.9658,2.8413,2.9251,3.3194,3.42,3.5385,3.6941,3.7784,3.82,3.82,3.8218,3.8989,4.0501,4.0537,4.137,4.2892,4.2892,4.2892,4.2892,4.2892,4.2892,4.2892,4.2892,4.2892,4.2892,4.2892,4.2892,4.2892,4.2892,4.2892,4.2892,0.0,0.0,0.0,0.0,0.0,1.6266,1.7946,1.8895,1.9969,0.0,0.0,0.0,0.0,2.4616,2.4958,0.0,0.0,2.489,2.442,2.3039,0.0,0.0,0.0,1.8305,0.0,1.6388,1.5082,1.3984,1.3755,1.3582,1.3466,1.3235,0.0,1.5467,1.662,1.8654,0.0,0.0,0.0,0.0,0.0,2.8324,3.0792,0.0,3.0663,3.12,3.12,3.12,0.0,3.0903,3.0497,3.0132,3.0378,2.9788,2.9113,2.967,2.9484,2.906,0.0,0.0,2.9346,2.6936,0.0,0.0,0.0,0.0,0.0,0.0,0.0,0.0,0.0,0.0,0.0,0.0,0.0,0.0,0.0,0.0,0.0,0.0,0.0,0.0,0.0,2.5238,2.5968,2.7308,2.691,2.8123,3.1625,3.2578,3.3991,3.6146,3.6987,3.7657,3.8182,3.82,3.8971,4.0501,4.0501,4.1334,4.2892,4.2892,4.2892,4.2892,4.2892,4.2892,4.2892,4.2892,4.2892,4.2892,4.2892,4.2892,4.2892,4.2892,4.2892,4.2892,1.5134,0.0,0.0,0.0,0.0,0.0,1.8446,0.0,0.0,0.0,2.3595,0.0,2.6684,0.0,2.6916,0.0,2.7539,2.692,2.5864,2.4981,0.0,2.3122,2.1879,0.0,0.0,0.0,1.7151,1.5591,1.5109,1.4703,1.436,1.4126,0.0,0.0,0.0,1.9114,2.1871,0.0,2.4915,0.0,0.0,2.9729,0.0,0.0,3.12,3.12,0.0,3.12,3.12,3.12,3.0886,3.0581,3.1055,3.054,2.9873,3.0404,3.021,2.9804,2.9608,2.9879,0.0,2.7862,2.7366,0.0,2.455,0.0,2.5308,0.0,0.0,0.0,0.0,0.0,0.0,0.0,0.0,0.0,0.0,2.1614,0.0,0.0,0.0,0.0,0.0,2.4031,2.4623,2.5691,2.5763,2.7049,2.9989,3.1455,3.3176,3.5305,3.6425,3.7393,3.8182,3.82,3.8852,4.0103,4.0374,4.1189,4.2484,4.2765,4.2892,4.2892,4.2892,4.2892,4.2892,4.2892,4.2892,4.2892,4.2892,4.2892,4.2892,4.2892,4.2892,4.2892,0.0,0.0,0.0,0.0,1.6656,0.0,0.0,0.0,2.3288,0.0,2.567,2.6949,2.8179,2.8711,2.9204,2.9786,3.0177,2.9599,2.7673,2.7488,0.0,0.0,2.4399,2.3748,2.2434,0.0,0.0,0.0,1.6008,1.5332,1.5285,1.4615,0.0,0.0,1.664,0.0,2.0737,2.3446,2.6327,2.9179,3.0625,3.12,3.12,3.12,3.12,3.12,3.12,3.12,3.12,3.12,3.12,3.12,3.12,3.12,3.12,3.12,3.12,3.1067,3.0459,3.03,2.9996,2.8681,2.828,0.0,0.0,0.0,2.6835,0.0,0.0,0.0,0.0,0.0,0.0,0.0,0.0,0.0,0.0,0.0,0.0,0.0,0.0,0.0,0.0,2.3084,2.3319,2.4773,2.4918,2.6017,0.0,3.0779,3.2814,3.4544,3.6117,3.7357,3.8182,3.82,3.8599,3.9414,4.0139,4.0926,4.1723,4.252,4.2892,4.2892,4.2892,4.2892,4.2892,4.2892,4.2892,4.2892,4.2892,4.2892,4.2892,4.2892,4.2892,4.2892,1.7716,1.8372,1.8886,0.0,1.8326,1.8983,0.0,0.0,0.0,0.0,2.7188,2.8384,2.97,2.9944,3.0072,3.0228,3.035,0.0,0.0,0.0,0.0,2.7369,2.5861,2.4646,2.381,2.2465,0.0,1.9493,0.0,1.7178,1.6671,0.0,0.0,0.0,0.0,0.0,2.1388,2.3641,2.6625,2.9905,3.0818,3.12,3.12,0.0,3.12,3.12,3.12,3.12,3.12,3.12,3.12,3.12,3.12,3.12,3.12,3.12,3.12,3.1285,3.1653,3.1748,3.1752,3.167,3.0842,2.9807,0.0,0.0,0.0,0.0,0.0,0.0,0.0,0.0,0.0,0.0,0.0,0.0,0.0,0.0,0.0,2.3235,0.0,0.0,0.0,2.2468,2.2862,2.3265,2.3795,2.5419,2.8437,2.9197,3.1079,3.449,3.5576,3.6779,3.8191,3.82,3.8599,3.9414,4.0139,4.0926,4.1723,4.252,4.2892,4.2892,4.2892,4.2892,4.2892,4.2892,4.2892,4.2892,4.2892,4.2892,4.2892,4.2892,4.2892,4.2892,1.9146,0.0,0.0,2.1192,0.0,0.0,2.3267,2.3848,0.0,2.7211,2.855,0.0,3.0309,3.0922,3.1276,3.1276,3.1276,0.0,3.0432,0.0,0.0,2.8442,2.7569,2.6743,2.5976,2.4594,0.0,2.1478,0.0,0.0,1.7193,0.0,0.0,0.0,0.0,1.9248,2.1249,2.457,2.7587,3.0166,3.0903,3.12,0.0,3.12,3.12,3.12,3.12,3.12,3.12,3.12,3.12,3.12,3.12,3.12,3.1268,3.1589,3.1674,3.1843,3.2588,3.291,3.3104,3.3323,3.2912,3.2144,3.0954,3.0708,3.0434,0.0,2.9283,2.9315,0.0,0.0,0.0,0.0,0.0,0.0,0.0,0.0,0.0,0.0,2.3335,0.0,0.0,2.2427,2.2554,2.2192,2.318,2.4592,2.6397,2.8178,3.0477,3.3465,3.5015,3.6572,3.8182,3.82,3.8599,3.9414,4.0139,4.0926,4.1723,4.252,4.2892,4.2892,4.2892,4.2892,4.2892,4.2892,4.2892,4.2892,4.2892,4.2892,4.2892,4.2892,4.2892,4.2892,2.0419,0.0,0.0,0.0,0.0,0.0,0.0,2.6047,0.0,2.8654,0.0,3.0882,3.0882,3.1905,3.2615,3.2615,0.0,3.2119,3.0944,3.1329,3.083,2.9078,2.9481,2.931,2.8361,2.6904,2.5179,0.0,0.0,0.0,0.0,0.0,0.0,0.0,0.0,0.0,0.0,2.5874,2.8686,3.0166,3.0903,3.12,3.12,3.12,3.1268,3.1336,3.1336,3.1285,3.12,3.12,3.1258,3.1336,3.1336,3.142,3.1613,3.2259,3.2446,3.2615,3.3339,3.385,3.4195,3.433,3.4652,3.4411,3.2474,3.187,3.1614,3.1219,2.994,2.9745,0.0,0.0,0.0,0.0,0.0,0.0,0.0,0.0,0.0,0.0,0.0,0.0,0.0,0.0,0.0,0.0,2.2835,2.3746,2.3945,2.7266,3.011,3.2151,3.4345,3.6309,3.8019,3.8146,3.8599,3.9414,4.0139,4.0926,4.1723,4.252,4.2892,4.2892,4.2892,4.2892,4.2892,4.2892,4.2892,4.2892,4.2892,4.2892,4.2892,4.2892,4.2929,4.2967,0.0,0.0,0.0,0.0,0.0,2.7333,2.8311,2.9369,3.0394,3.127,3.2546,3.3363,3.3363,3.3588,3.3716,3.3716,3.3716,0.0,0.0,0.0,0.0,3.2204,3.1778,3.093,2.9604,2.8186,2.6406,0.0,0.0,0.0,0.0,0.0,0.0,0.0,0.0,0.0,2.4423,2.6791,0.0,3.0166,3.0903,3.12,3.12,3.12,3.1572,3.2107,3.2107,3.1708,3.12,3.12,3.1606,3.2107,3.2107,3.252,3.3041,3.3169,3.322,3.3372,3.411,3.4647,3.5215,3.6162,3.6203,3.6024,3.5997,3.4962,3.4006,3.3915,3.3153,3.2274,3.1546,0.0,0.0,0.0,0.0,0.0,0.0,0.0,0.0,0.0,0.0,2.4339,0.0,0.0,0.0,0.0,0.0,2.3446,2.4719,2.5461,2.7779,3.2071,3.3248,3.4914,3.7194,3.7865,3.8599,3.9414,4.0139,4.0926,4.1723,4.252,4.2892,4.2892,4.2892,4.2892,4.2892,4.2892,4.2892,4.2892,4.2892,4.2892,4.2892,4.2892,4.306,4.3266,0.0,0.0,0.0,0.0,0.0,0.0,0.0,3.2391,3.3054,3.2115,3.2562,3.2959,3.2959,3.357,3.4011,3.4011,3.4011,3.4011,3.4011,3.37,3.3356,3.3008,3.2691,3.215,3.1364,2.995,2.8125,2.5957,0.0,0.0,1.8884,0.0,0.0,0.0,0.0,2.2259,0.0,0.0,0.0,3.02,3.1319,3.1759,3.1809,3.2188,3.256,3.2875,3.2875,3.2645,3.2341,3.2341,3.2577,3.2875,3.2875,3.3119,3.3491,3.3863,3.3964,3.4134,3.4878,3.5575,3.6207,3.6763,3.7083,3.724,3.7045,3.6073,3.5106,3.4689,3.3954,3.2904,3.1299,2.9674,0.0,0.0,0.0,0.0,0.0,0.0,0.0,0.0,0.0,0.0,0.0,0.0,0.0,0.0,0.0,2.2758,2.4308,2.5172,2.7453,3.1444,3.3176,3.4987,3.6977,3.781,3.8798,3.9967,4.0338,4.1135,4.2339,4.2729,4.2892,4.2892,4.2892,4.2892,4.2892,4.2892,4.2892,4.2892,4.2892,4.2892,4.2892,4.2892,4.3105,4.338,0.0,2.6902,0.0,0.0,3.05,0.0,3.2901,3.4768,3.5294,3.3068,3.2767,3.2767,3.2767,3.3707,3.4346,3.4346,3.4346,3.4346,3.4346,3.4346,3.4096,3.3577,3.3544,3.3416,3.3095,3.1635,2.9822,0.0,0.0,0.0,0.0,0.0,0.0,0.0,0.0,0.0,0.0,0.0,2.9261,3.0893,3.2063,3.252,3.2605,3.3186,3.3508,3.3632,3.3632,3.3734,3.3869,3.3869,3.3825,3.3763,3.3675,3.3808,3.4109,3.4589,3.4726,3.4883,3.5564,3.6319,3.6919,3.7007,3.7613,3.8019,3.7393,3.649,3.5623,3.4997,3.4081,3.2904,3.1299,3.0235,0.0,0.0,0.0,0.0,0.0,0.0,0.0,0.0,0.0,0.0,2.3855,0.0,0.0,0.0,0.0,2.2342,2.3728,2.5009,2.7236,3.0636,3.2922,3.486,3.6469,3.7621,3.8971,4.0501,4.0501,4.1334,4.2892,4.2892,4.2892,4.2892,4.2892,4.2892,4.2892,4.2892,4.2892,4.2892,4.2892,4.2892,4.2892,4.2892,4.3151,4.3517,0.0,0.0,0.0,0.0,0.0,0.0,3.3783,3.6017,3.7109,3.5481,3.5268,3.5268,3.5268,3.5374,3.5447,3.5447,3.5447,3.5447,3.5447,3.5447,3.5413,3.5357,3.5357,3.5037,3.435,3.2891,3.1059,0.0,0.0,2.3257,2.1611,2.0207,0.0,0.0,0.0,0.0,0.0,2.954,3.113,3.3091,3.3237,3.3305,3.3294,3.3362,3.3829,3.4398,3.4398,3.4827,3.538,3.538,3.5228,3.495,3.4538,3.5147,3.5957,3.5598,3.5509,3.5599,3.6103,3.6557,3.6988,3.7358,3.7827,3.8182,3.8092,3.6906,3.5776,3.5695,3.4472,3.2904,3.1299,3.2071,3.1992,0.0,0.0,0.0,0.0,0.0,2.7067,2.6198,0.0,0.0,0.0,2.1881,0.0,0.0,2.259,2.2939,2.3764,2.3945,2.5829,2.9784,3.1553,3.3194,3.4816,3.7077,3.8971,4.0501,4.0501,4.1334,4.2892,4.2892,4.2892,4.2892,4.2892,4.2892,4.2892,4.2892,4.2892,4.2892,4.2892,4.2892,4.2892,4.2892,4.3301,4.3857,0.0,0.0,0.0,0.0,0.0,0.0,0.0,3.7219,3.7674,3.7065,3.698,3.698,3.698,3.698,3.6794,3.6349,3.6315,3.6129,3.5633,3.56,3.56,3.56,3.56,3.5459,3.5171,3.4161,3.2537,0.0,0.0,2.5815,2.3461,2.3278,2.4064,0.0,0.0,2.8645,3.0371,3.1116,3.2188,3.3429,3.388,3.4066,3.4117,3.4545,3.4901,3.5198,3.5493,3.5777,3.6067,3.6298,3.5971,3.5417,3.5221,3.549,3.5893,3.5991,3.6023,3.6103,3.6536,3.6958,3.7302,3.746,3.7854,3.82,3.82,3.6961,3.5804,3.5804,3.4526,3.3194,3.256,3.2187,3.1854,3.1539,0.0,0.0,0.0,0.0,0.0,2.6343,0.0,2.4326,0.0,0.0,0.0,0.0,0.0,2.2002,2.371,2.4253,2.5914,2.8986,3.1582,3.3458,3.4599,3.6987,3.8971,4.0501,4.0501,4.1334,4.2892,4.2892,4.2892,4.2892,4.2892,4.2892,4.2892,4.2892,4.2892,4.2892,4.2892,4.2892,4.292,4.3142,4.3508,4.3927,3.4636,0.0,3.4854,0.0,3.6596,3.6635,3.801,3.8413,3.8548,3.8548,3.8548,3.8379,3.7944,3.7893,3.7702,3.7173,3.7122,3.6874,3.6321,3.6287,3.6287,3.6287,3.6067,0.0,3.5949,3.4996,3.3637,3.185,3.0371,2.8451,2.6158,2.6691,0.0,0.0,2.9525,3.0676,3.1901,3.2621,3.3366,3.4089,3.4607,3.4827,3.4878,3.5408,3.5689,3.5849,3.6184,3.6385,3.6533,3.6801,3.6488,3.5985,3.5985,3.6065,3.6196,3.6402,3.6482,3.6557,3.6968,3.7275,3.7533,3.7667,3.795,3.82,3.82,3.6961,3.5667,3.5196,3.4182,3.3393,3.3393,3.2469,3.1915,3.2596,0.0,0.0,0.0,2.9113,0.0,0.0,2.5094,2.4194,2.3837,2.312,0.0,0.0,0.0,2.2763,2.4411,2.5262,2.6814,0.0,0.0,0.0,3.4943,3.7114,3.8971,4.0501,4.0501,4.1334,4.2892,4.2892,4.2892,4.2892,4.2892,4.2892,4.2892,4.2892,4.2892,4.2892,4.2892,4.2892,4.2939,4.3284,4.3615,4.3951,3.6615,3.6767,3.6992,3.7741,3.8481,3.8954,3.8983,3.9609,4.0079,4.0079,4.0079,3.9525,3.8063,3.7893,3.7893,3.7877,3.7877,3.7877,3.786,3.786,3.786,0.0,0.0,3.6795,3.6795,3.5278,3.4134,3.3362,0.0,0.0,3.0031,3.0048,3.0065,3.0132,3.1606,3.2672,3.3413,3.415,3.4912,3.5566,3.5583,3.5583,3.5583,3.56,3.5882,3.629,3.6301,3.6564,3.689,3.69,3.689,3.688,3.688,3.7161,3.7404,3.7007,3.689,3.6978,3.7368,3.7496,3.7614,3.8089,3.82,3.82,3.82,3.6961,3.5359,3.3755,3.3404,3.3393,3.3393,3.3375,3.285,3.1281,0.0,0.0,0.0,2.793,0.0,2.6307,2.4152,2.3011,2.3728,2.312,0.0,0.0,0.0,0.0,0.0,0.0,0.0,3.0883,3.3321,0.0,3.5776,3.7395,3.8971,4.0501,4.0501,4.1334,4.2892,4.2892,4.2892,4.2892,4.2892,4.2892,4.2892,4.2892,4.2892,4.2892,4.2892,4.2892,4.2939,4.3284,4.3615,4.3951,3.8256,3.8696,3.9131,3.9356,3.9592,3.9745,3.9745,3.996,4.0096,4.0096,4.0096,3.9926,3.9457,3.9406,3.9203,0.0,3.865,3.8447,0.0,3.7893,3.7893,3.7893,3.7686,3.755,3.755,3.7077,3.6186,3.489,0.0,0.0,0.0,3.1606,3.2148,3.3119,3.3586,3.4201,3.4917,3.5154,3.5391,3.56,3.56,3.5783,3.6077,3.6077,3.6346,3.6731,3.7026,3.7208,3.7358,3.7685,3.7792,3.7792,3.7792,3.7477,3.7122,3.7274,3.7321,3.7404,3.7854,3.7976,3.802,3.8157,3.82,3.82,3.82,3.6961,3.5504,3.4436,3.3784,3.3393,3.3393,3.3393,3.323,3.2723,3.1933,0.0,3.0333,0.0,2.7296,2.7049,2.5866,2.5184,2.5407,2.522,0.0,0.0,0.0,0.0,0.0,0.0,0.0,0.0,3.3067,0.0,3.5786,3.7938,3.9514,4.0519,4.1053,4.1877,4.2892,4.2892,4.2892,4.2892,4.2892,4.2892,4.2892,4.2892,4.2892,4.2892,4.2892,4.3041,4.3275,4.3615,4.394,4.4285,3.9406,3.9779,4.0096,4.0096,4.0258,4.0365,4.0365,4.0502,4.0563,4.039,4.0365,4.0291,4.0121,4.0096,0.0,3.9457,3.9406,3.922,3.8751,3.8717,3.8717,3.8717,3.8464,3.8311,3.8311,3.8029,0.0,3.6462,3.5994,3.5312,3.4398,3.4398,3.4889,3.5774,3.5774,3.6028,3.6462,3.6462,3.6462,3.6485,3.6656,3.6906,3.7189,3.7352,3.7684,3.8064,3.8313,3.8499,3.8681,3.8965,3.9061,3.9061,3.9061,3.869,3.8188,3.7864,3.7765,3.7836,3.8123,3.82,3.82,3.82,3.82,3.811,3.7828,3.6969,3.5946,3.4834,3.42,3.3755,3.3465,3.3393,3.3393,3.3393,3.2053,3.0991,3.0991,0.0,2.7405,0.0,0.0,0.0,0.0,2.72,2.7544,0.0,0.0,0.0,0.0,0.0,3.0346,3.1571,3.4143,3.5892,3.6689,3.8508,3.9767,4.051,4.1623,4.2411,4.2892,4.2892,4.2892,4.2892,4.2892,4.2892,4.2892,4.2892,4.2958,4.3096,4.3096,4.3284,4.3632,4.3955,4.422,4.445,4.0209,4.0209,4.0209,0.0,4.0568,4.0849,4.0849,4.1219,4.1337,4.0919,4.0849,4.0671,4.0241,4.0209,4.0209,4.0209,0.0,0.0,4.0096,4.0096,4.0096,4.0096,3.944,3.9085,3.9085,3.8396,3.8041,3.799,3.7939,3.7893,3.7893,3.7893,3.7893,3.7893,3.7893,3.7893,3.7893,3.7929,3.7953,3.7984,3.8447,3.8665,3.8742,3.9182,3.9593,3.9946,3.9946,4.0191,4.0501,4.0501,4.0501,4.0501,4.0501,4.0501,4.0229,3.878,3.8309,3.8273,3.8273,3.8237,3.82,3.82,3.82,3.8001,3.7249,3.7049,3.6578,3.5077,3.4671,3.4363,3.3628,3.3447,3.3375,3.3339,3.2006,3.0973,3.0912,2.8986,2.7562,0.0,0.0,0.0,2.7646,2.9034,2.9934,0.0,0.0,0.0,0.0,0.0,3.1485,3.4508,3.6154,3.7412,3.8273,3.9088,3.9876,4.0682,4.2176,4.2892,4.2892,4.2892,4.2892,4.2892,4.2892,4.291,4.2929,4.2929,4.3123,4.3422,4.3422,4.364,4.3974,4.4285,4.4404,4.4478,0.0,0.0,4.1174,4.1174,4.1247,4.1326,4.1326,4.1426,4.1459,4.1337,4.1326,4.1281,4.1168,4.1174,4.1174,4.1174,4.0502,4.0096,4.0096,4.0096,4.0096,4.0096,3.9943,3.9829,3.9829,3.9673,3.9305,3.8734,3.8176,3.7893,3.7893,3.7893,3.7893,3.7893,3.7893,3.7893,3.7929,3.8271,3.8425,3.847,3.8948,3.931,3.9605,3.9722,4.0003,4.0366,4.0366,4.042,4.0501,4.0501,4.0501,4.0501,4.0501,4.0501,4.0429,4.0066,3.955,3.9124,3.9124,3.8671,3.82,3.82,3.82,3.8146,3.7955,3.7448,3.6886,3.6516,3.5457,3.4544,3.4345,3.381,3.3194,3.2578,3.1643,3.0779,3.0103,2.9529,2.9142,0.0,2.9609,3.0005,3.0005,3.0894,3.12,0.0,0.0,3.2363,3.2592,3.3003,3.3656,3.4581,3.6154,3.7683,3.9106,3.9858,4.0944,4.2348,4.271,4.2892,4.2892,4.2892,4.2892,4.2892,4.2892,4.305,4.3275,4.3275,4.3473,4.3786,4.3786,4.3997,4.4292,4.4362,4.457,4.4789,4.1492,4.1492,4.1492,4.1492,4.1685,4.1825,4.1825,4.2004,4.2067,4.1856,4.1825,4.175,4.1525,4.1492,4.1492,4.1492,4.0832,4.0427,4.0427,4.0221,4.0096,4.0096,4.0096,4.0096,4.0096,4.0096,3.991,3.9491,3.9102,3.8916,3.8916,3.8916,3.8916,3.8916,3.8916,3.902,3.9243,3.9502,3.972,3.9977,4.044,4.0768,4.0961,4.1184,4.1402,4.1596,4.1596,4.1596,4.1596,4.1596,4.1596,4.1596,4.1596,4.1596,4.1596,4.1596,4.08,3.9894,3.9894,3.9341,3.8653,3.8291,3.82,3.82,3.82,3.7865,3.7431,3.7002,3.6208,3.5371,3.4599,3.4104,3.3444,3.2285,3.1737,3.1156,3.0321,3.0206,3.0185,3.0143,3.116,3.1843,3.1843,3.2911,3.3389,3.2939,3.364,0.0,3.4199,3.5312,3.5845,3.5614,3.7174,3.8431,3.9299,4.0438,4.1641,4.2892,4.2862,4.2862,4.2892,4.2862,4.2948,4.3123,4.3123,4.3319,4.3632,4.3632,4.3833,4.4132,4.4132,4.4327,4.4623,4.4623,4.4732,4.4895,4.171,4.171,4.171,4.171,4.2035,4.2318,4.2318,4.2643,4.2768,4.2358,4.2318,4.2157,4.1743,4.171,4.171,4.171,4.1276,4.0972,4.0902,4.0544,4.0279,4.0221,4.0209,4.0171,4.0096,4.0096,4.0096,4.0096,4.0096,4.0096,4.0096,4.0096,4.0096,4.0096,4.0171,4.0439,4.0814,4.0937,4.1242,4.1652,4.2115,4.2318,4.2358,4.2758,4.2892,4.2892,4.2892,4.2892,4.2892,4.2892,4.2892,4.2892,4.2892,4.2892,4.2892,4.2892,4.1922,4.0845,4.0709,4.0148,3.9369,3.8546,3.8346,3.832,3.8185,3.8158,3.7934,3.7137,3.6859,3.6356,3.4914,3.4467,3.38,3.2255,3.2017,3.1689,3.0754,0.0,3.0995,3.1095,3.2388,3.3296,3.3422,3.4642,3.5512,3.5638,3.6266,3.641,3.5853,3.7119,3.762,3.7122,3.8463,3.9301,3.9527,4.1015,4.2126,4.2844,4.2794,4.2794,4.2844,4.2833,4.3032,4.338,4.3415,4.3642,4.3981,4.3951,4.4154,4.4478,4.4478,4.4662,4.4895,4.4895,4.4895,4.4895,4.2682,4.2682,4.2682,4.2682,4.274,4.2797,4.2797,4.2854,4.2873,4.2806,4.2797,4.275,4.2692,4.2682,4.2682,4.2682,4.2249,4.1814,4.1432,4.1314,4.1105,4.0707,4.0683,4.0507,4.0108,4.0096,4.0096,4.0096,4.0096,4.0096,4.0096,4.0096,4.0096,4.0125,4.0507,4.0731,4.0861,4.1641,4.2032,4.2136,4.2596,4.2797,4.2806,4.2873,4.2892,4.2892,4.2892,4.2892,4.2892,4.2892,4.2892,4.2892,4.2892,4.2892,4.2892,4.2892,4.271,4.2375,4.1696,4.0926,4.0121,3.9264,3.9047,3.884,3.8104,3.7943,3.7916,3.7754,3.7197,3.6649,3.638,3.523,3.3808,3.2324,3.2046,3.1473,2.9999,0.0,3.1877,3.2493,3.3388,3.4184,3.4801,3.5104,3.5523,3.6211,3.6372,3.6693,3.7238,3.7506,3.7927,3.8546,3.8924,3.9733,4.1055,4.1981,4.2513,4.2658,4.2639,4.2639,4.264,4.2863,4.3105,4.332,4.3435,4.3807,4.4313,4.4195,4.4414,4.4814,4.4814,4.4858,4.4895,4.4895,4.4895,4.4895,4.2892,4.2892,4.2892,4.2892,4.2892,4.2892,4.2892,4.2892,4.2892,4.2892,4.2892,4.2892,4.2892,4.2892,4.2892,4.2892,4.2702,4.2488,4.2279,4.1775,4.1393,4.1185,4.1174,4.1071,4.0867,4.0838,4.0725,4.0471,4.0471,4.0353,4.0096,4.0096,4.0229,4.0483,4.0695,4.1076,4.1576,4.2022,4.2348,4.2604,4.2816,4.2892,4.2892,4.2892,4.2892,4.2892,4.2892,4.2892,4.2892,4.2892,4.2892,4.2892,4.2892,4.2892,4.2892,4.2892,4.2872,4.2662,4.1857,4.1322,4.078,3.995,3.9446,3.9031,3.8645,3.8222,3.7881,3.781,3.7496,3.7102,3.662,3.5573,3.4435,3.3347,3.2793,3.2233,3.1473,3.2347,3.3166,3.3517,3.4615,3.5471,3.581,3.6238,3.6658,3.7015,3.705,3.7211,3.7577,3.8014,3.8434,3.8838,3.9772,4.0853,4.2024,4.2378,4.2568,4.2599,4.2558,4.2568,4.2609,4.2835,4.3105,4.3423,4.3654,4.4033,4.4451,4.44,4.4491,4.4699,4.4757,4.4783,4.4789,4.4864,4.4895,4.4895,4.2892,4.2892,4.2892,4.2892,4.2892,4.2892,4.2892,4.2892,4.2882,4.2881,4.2881,4.2862,4.2825,4.2862,4.2881,4.2881,4.29,4.2892,4.2892,4.2239,4.1775,4.1667,4.1558,4.1492,4.1492,4.1492,4.1314,4.0961,4.0961,4.079,4.0422,4.0422,4.0623,4.0972,4.1076,4.1539,4.2198,4.2328,4.2575,4.2892,4.2892,4.2892,4.2892,4.2892,4.2892,4.2892,4.2892,4.2892,4.2892,4.2892,4.2892,4.291,4.2881,4.2881,4.2872,4.2843,4.2775,4.2599,4.2006,4.175,4.1475,4.0666,4.0037,3.9516,3.9112,3.8546,3.8026,3.7739,3.7667,3.7471,3.6809,3.6024,3.5239,3.4515,0.0,3.3382,3.3227,3.3864,3.4428,3.4615,3.5685,3.647,3.6658,3.7229,3.7595,3.7595,3.7595,3.7675,3.7871,3.8469,3.8997,3.9447,4.061,4.1652,4.2512,4.2486,4.2486,4.253,4.2538,4.2578,4.2631,4.2929,4.3249,4.3599,4.3873,4.4188,4.4501,4.4473,4.4473,4.4515,4.4612,4.4679,4.4718,4.4827,4.4864,4.4908,4.2892,4.2892,4.2892,4.2892,4.2892,4.2892,4.2892,4.2892,4.2881,4.2822,4.2803,4.2764,4.2639,4.2727,4.2803,4.2803,4.2853,4.2892,4.2892,4.2844,4.2596,4.2167,4.1739,4.1492,4.1492,4.1492,4.1481,4.1448,4.1448,4.1426,4.1393,4.1393,4.1432,4.1459,4.1899,4.2136,4.2236,4.2663,4.2863,4.2892,4.2892,4.2892,4.2892,4.2892,4.2892,4.2892,4.2892,4.2892,4.2892,4.2892,4.2892,4.29,4.2841,4.2803,4.2783,4.2658,4.2568,4.2526,4.2536,4.2519,4.2292,4.1442,4.1171,4.073,3.9167,3.8781,3.8523,3.7765,3.7622,3.7586,3.7523,3.6854,3.6086,3.5403,0.0,0.0,3.4196,3.4692,3.5391,3.6131,3.6328,3.6693,3.7452,3.7577,3.7595,3.7595,3.7595,3.7925,3.8673,3.8763,3.9601,4.1348,4.1206,4.1504,4.23,4.2318,4.2318,4.2328,4.2573,4.2692,4.2711,4.3294,4.3619,4.378,4.3939,4.4188,4.4494,4.4365,4.4387,4.4501,4.4515,4.4585,4.4705,4.4718,4.4783,4.4877,4.2892,4.2892,4.2892,4.2892,4.2892,4.2891,4.2842,4.2833,4.2794,4.2688,4.2686,4.2649,4.2609,4.2725,4.2793,4.2793,4.2853,4.2892,4.2892,4.2892,4.2825,4.2643,4.245,4.237,4.237,4.237,4.2229,4.1931,4.1931,4.1792,4.1492,4.1492,4.1663,4.1941,4.2115,4.2368,4.2653,4.2825,4.2892,4.2892,4.2892,4.2892,4.2892,4.2892,4.2892,4.2892,4.2892,4.2892,4.2882,4.2852,4.2833,4.2814,4.2707,4.2686,4.2667,4.2576,4.2524,4.2493,4.2437,4.2419,4.2338,4.1993,4.1554,4.1008,4.037,3.9833,3.9405,3.9093,3.8665,3.8344,3.8344,3.7273,3.6488,3.672,0.0,3.5301,3.5532,3.5774,3.606,3.6363,3.6836,3.7264,3.7577,3.7595,3.7595,3.7595,3.8068,3.8487,3.878,3.9899,4.1177,4.255,4.2466,4.2442,4.2554,4.2749,4.2739,4.2554,4.2863,4.3004,4.3022,4.3416,4.3629,4.3695,4.3908,4.4074,4.4181,4.4128,4.4136,4.4196,4.4336,4.4416,4.4461,4.4544,4.4605,4.4646,4.2892,4.2892,4.2892,4.2892,4.2881,4.2852,4.2803,4.2764,4.2696,4.2588,4.2568,4.254,4.251,4.2627,4.2706,4.2735,4.2785,4.2825,4.291,4.2892,4.2892,4.2892,4.2892,4.2892,4.2892,4.2892,4.2731,4.2418,4.2418,4.2259,4.1952,4.1952,4.2108,4.2418,4.2418,4.2604,4.2892,4.2892,4.2892,4.2892,4.2892,4.2892,4.2892,4.2892,4.2892,4.291,4.2872,4.2862,4.2861,4.2774,4.2735,4.2725,4.2607,4.253,4.249,4.2455,4.2435,4.2425,4.2318,4.2297,4.2297,4.2297,4.1887,4.1413,4.1163,4.0681,4.0208,3.9958,3.9494,3.9155,3.9155,3.8227,3.7594,3.7925,3.7059,3.6426,3.6729,3.6783,3.6783,3.6783,3.7264,3.7595,3.7595,3.7836,3.7978,3.7978,3.8701,3.931,3.9664,4.1222,4.2477,4.3303,4.3418,4.3303,4.2986,4.3142,4.3069,4.2855,4.3169,4.333,4.3321,4.3605,4.373,4.3738,4.3916,4.4005,4.4005,4.4005,4.4005,4.402,4.4214,4.4322,4.438,4.4503,4.4558,4.457,4.2892,4.2892,4.2892,4.2892,4.2842,4.2793,4.2811,4.2678,4.256,4.2514,4.2493,4.2463,4.2308,4.2425,4.2526,4.2589,4.2599,4.2679,4.2873,4.291,4.291,4.291,4.2892,4.2892,4.2892,4.2892,4.2892,4.2892,4.2892,4.2892,4.2892,4.2892,4.2892,4.2892,4.2892,4.2892,4.2892,4.2892,4.2892,4.2892,4.2892,4.2892,4.2892,4.2892,4.2892,4.29,4.2832,4.2793,4.2774,4.2639,4.2599,4.258,4.2524,4.2415,4.2297,4.2297,4.2297,4.2297,4.2297,4.2297,4.2297,4.2297,4.2297,4.2083,4.1288,4.1109,4.0877,4.0083,3.9912,3.9904,3.9904,3.9904,3.9655,3.8923,3.8816,3.854,3.7738,3.7631,3.7631,3.7631,3.7631,3.7631,3.7631,3.8344,3.8816,3.8816,3.9494,4.0407,4.1556,4.2623,4.333,4.3587,4.386,4.3868,4.3614,4.3348,4.3214,4.3214,4.3478,4.3595,4.3604,4.3876,4.4005,4.4005,4.4005,4.4005,4.4005,4.4005,4.4005,4.402,4.4214,4.438,4.4503,4.4652,4.4705,4.4685,4.2892,4.2853,4.2823,4.2823,4.2727,4.2647,4.2596,4.2564,4.2496,4.2377,4.2356,4.2328,4.2308,4.2425,4.2514,4.2526,4.2578,4.2629,4.2679,4.2689,4.2689,4.2689,4.2775,4.2823,4.2823,4.2823,4.2852,4.2892,4.2892,4.2892,4.2892,4.2892,4.2892,4.2892,4.2892,4.2892,4.2892,4.2892,4.2892,4.2892,4.2892,4.2892,4.2882,4.2852,4.2823,4.2804,4.2697,4.2658,4.2657,4.2566,4.2526,4.2506,4.2397,4.2318,4.2297,4.2297,4.2297,4.2297,4.2297,4.2297,4.2297,4.2297,4.2297,4.2244,4.1994,4.194,4.1869,4.1637,4.1127,4.0753,4.0753,4.0279,3.9833,3.9619,3.9565,3.9494,3.9244,3.9218,3.9218,3.9218,3.9218,3.9218,3.9218,3.9423,3.9565,3.9565,4.0509,4.1566,4.265,4.3202,4.3605,4.3868,4.3966,4.3966,4.3876,4.3795,4.3664,4.3487,4.3755,4.3876,4.3876,4.3955,4.4005,4.4005,4.4005,4.4005,4.4005,4.4005,4.4005,4.402,4.4214,4.4322,4.4365,4.4397,4.4475,4.4517,4.2871,4.2785,4.2725,4.2725,4.2637,4.2556,4.2503,4.2445,4.2387,4.2308,4.2297,4.2297,4.2297,4.2366,4.2435,4.2493,4.2558,4.257,4.249,4.256,4.257,4.249,4.2607,4.2676,4.2725,4.2725,4.2774,4.2871,4.2871,4.2872,4.2892,4.2892,4.2892,4.2892,4.2892,4.2892,4.2892,4.2892,4.2892,4.2892,4.2892,4.2891,4.2861,4.2822,4.2764,4.2715,4.2598,4.2558,4.2556,4.2455,4.2425,4.2415,4.2336,4.2297,4.2297,4.2297,4.2297,4.2297,4.2297,4.2297,4.2297,4.2297,4.2297,4.2297,4.2297,4.2297,4.2297,4.2297,4.1905,4.1573,4.1573,4.1181,4.0753,4.0422,4.0368,4.0261,3.994,3.9904,3.9904,3.9904,3.9904,3.9904,3.9904,4.019,4.0552,4.0983,4.165,4.2412,4.3312,4.3521,4.373,4.3997,4.4005,4.4005,4.4005,4.4005,4.3916,4.3763,4.3916,4.4005,4.4005,4.4005,4.4005,4.4005,4.4005,4.4005,4.4005,4.4005,4.4044,4.4147,4.4303,4.4416,4.4461,4.4524,4.4558,4.4544,4.2774,4.2686,4.2589,4.2589,4.2536,4.2483,4.2483,4.2377,4.2297,4.2297,4.2297,4.2297,4.2297,4.2297,4.2356,4.2473,4.2538,4.25,4.2308,4.247,4.25,4.2308,4.2425,4.2516,4.257,4.2589,4.2649,4.2793,4.2793,4.2833,4.2892,4.2892,4.2892,4.2892,4.2892,4.2892,4.2892,4.2892,4.2892,4.2892,4.2882,4.2843,4.2811,4.2774,4.2696,4.258,4.2506,4.2483,4.2455,4.2346,4.2297,4.2297,4.2297,4.2297,4.2297,4.2297,4.2297,4.2297,4.2297,4.2297,4.2297,4.2297,4.2297,4.2297,4.2297,4.2297,4.2297,4.2297,4.2297,4.2297,4.2297,4.2297,4.2065,4.1324,4.1199,4.0949,4.0225,4.0118,4.0118,4.0118,4.0118,4.0118,4.0118,4.0808,4.1654,4.2628,4.2741,4.3014,4.3562,4.3612,4.3755,4.3997,4.4005,4.4005,4.4005,4.4005,4.4005,4.4005,4.4005,4.4005,4.4005,4.4005,4.4005,4.4005,4.4005,4.4005,4.4005,4.4005,4.4124,4.4314,4.4451,4.4578,4.4706,4.4833,4.4802,4.4705,4.2639,4.2568,4.2516,4.2516,4.2417,4.2328,4.2328,4.2318,4.2297,4.2297,4.2297,4.2297,4.2297,4.2297,4.2308,4.2346,4.2359,4.2348,4.2308,4.2338,4.2348,4.2297,4.2336,4.2356,4.2369,4.2475,4.2615,4.2793,4.2793,4.2833,4.2892,4.2892,4.2892,4.2892,4.2892,4.2892,4.2892,4.2892,4.2892,4.29,4.2842,4.2812,4.2774,4.2633,4.2554,4.2506,4.2387,4.2328,4.2346,4.2308,4.2297,4.2297,4.2297,4.2297,4.2297,4.2297,4.2297,4.2297,4.2297,4.2297,4.2297,4.2297,4.2297,4.2297,4.2297,4.2297,4.2297,4.2297,4.2297,4.2297,4.2297,4.2297,4.2244,4.2065,4.2047,4.1976,4.1798,4.178,4.178,4.178,4.178,4.178,4.178,4.2125,4.2454,4.2684,4.3132,4.3468,4.3587,4.3804,4.395,4.3997,4.4005,4.4005,4.4005,4.4005,4.4005,4.4005,4.4005,4.4005,4.4005,4.4005,4.4005,4.4005,4.4005,4.4005,4.4005,4.4005,4.4124,4.4314,4.4451,4.4578,4.4712,4.4719,4.4783,4.4815,4.2548,4.2468,4.2397,4.2397,4.2356,4.2297,4.2297,4.2297,4.2297,4.2297,4.2297,4.2297,4.2297,4.2297,4.2297,4.2297,4.2297,4.2297,4.2297,4.2297,4.2297,4.2297,4.2297,4.2297,4.2297,4.2366,4.2496,4.2655,4.2686,4.2756,4.2852,4.2891,4.2892,4.2892,4.2892,4.2892,4.291,4.288,4.2852,4.2852,4.2736,4.2676,4.2645,4.2544,4.2463,4.2405,4.2336,4.2297,4.2297,4.2297,4.2297,4.2297,4.2297,4.2297,4.2297,4.2297,4.2297,4.2297,4.2297,4.2297,4.2297,4.2297,4.2297,4.2297,4.2297,4.2297,4.2297,4.2297,4.2297,4.2297,4.2297,4.2297,4.2297,4.2297,4.2297,4.2297,4.2297,4.2297,4.2297,4.2297,4.2297,4.2341,4.2474,4.2614,4.2818,4.3105,4.3425,4.3664,4.3787,4.3916,4.4005,4.4005,4.4005,4.4005,4.4005,4.4005,4.4005,4.4005,4.4005,4.4005,4.4005,4.4005,4.4005,4.4005,4.4005,4.4005,4.4005,4.4005,4.4169,4.4401,4.4473,4.4619,4.4808,4.4808,4.4751,4.4685,4.2473,4.2366,4.2297,4.2297,4.2297,4.2297,4.2297,4.2297,4.2297,4.2297,4.2297,4.2297,4.2297,4.2297,4.2297,4.2297,4.2297,4.2297,4.2297,4.2297,4.2297,4.2297,4.2297,4.2297,4.2297,4.2297,4.2366,4.2493,4.2568,4.2649,4.2764,4.2852,4.2872,4.2853,4.2853,4.2872,4.2881,4.2794,4.2774,4.2783,4.2647,4.2556,4.2493,4.2473,4.2405,4.2297,4.2297,4.2297,4.2297,4.2297,4.2297,4.2297,4.2297,4.2297,4.2297,4.2297,4.2297,4.2297,4.2297,4.2297,4.2297,4.2297,4.2297,4.2297,4.2297,4.2297,4.2297,4.2297,4.2297,4.2297,4.2297,4.2297,4.2297,4.2297,4.2297,4.2297,4.2297,4.2297,4.2297,4.2297,4.2297,4.2402,4.2682,4.275,4.3005,4.3553,4.3629,4.3771,4.3997,4.4005,4.4005,4.4005,4.4005,4.4005,4.4005,4.4005,4.4005,4.4005,4.4005,4.4005,4.4005,4.4005,4.4005,4.4005,4.4005,4.4005,4.4005,4.4005,4.4181,4.4473,4.4494,4.4652,4.4877,4.4877,4.4718,4.4487,4.2336,4.2308,4.2297,4.2297,4.2297,4.2297,4.2297,4.2297,4.2297,4.2297,4.2297,4.2297,4.2297,4.2297,4.2297,4.2297,4.2297,4.2297,4.2297,4.2297,4.2297,4.2297,4.2297,4.2297,4.2297,4.2297,4.2366,4.2493,4.2568,4.2609,4.2629,4.2764,4.2746,4.2649,4.2649,4.2707,4.2812,4.2678,4.2688,4.2774,4.2586,4.2514,4.2483,4.2366,4.2325,4.2297,4.2297,4.2297,4.2297,4.2297,4.2297,4.2297,4.2297,4.2297,4.2297,4.2297,4.2297,4.2297,4.2297,4.2297,4.2297,4.2297,4.2297,4.2297,4.2297,4.2297,4.2297,4.2297,4.2297,4.2297,4.2297,4.2297,4.2297,4.2297,4.2297,4.2297,4.2297,4.2297,4.2297,4.2297,4.2297,4.2402,4.2682,4.2967,4.3259,4.3589,4.3812,4.3966,4.3997,4.4005,4.4005,4.4005,4.4005,4.4005,4.4005,4.4005,4.4005,4.4005,4.4005,4.4005,4.4005,4.4005,4.4005,4.4005,4.4005,4.4005,4.4005,4.4005,4.4139,4.4336,4.4458,4.4592,4.4738,4.4738,4.4632,4.4487,4.2297,4.2297,4.2297,4.2297,4.2297,4.2297,4.2297,4.2297,4.2297,4.2297,4.2297,4.2297,4.2297,4.2297,4.2297,4.2297,4.2297,4.2297,4.2297,4.2297,4.2297,4.2297,4.2297,4.2297,4.2297,4.2297,4.2336,4.2394,4.2496,4.2528,4.2556,4.2647,4.2649,4.2599,4.2599,4.2629,4.2668,4.2596,4.2576,4.2615,4.2437,4.2394,4.2377,4.2318,4.2297,4.2297,4.2297,4.2297,4.2297,4.2297,4.2297,4.2297,4.2297,4.2297,4.2297,4.2297,4.2297,4.2297,4.2297,4.2297,4.2297,4.2297,4.2297,4.2297,4.2297,4.2297,4.2297,4.2297,4.2297,4.2297,4.2297,4.2297,4.2297,4.2297,4.2297,4.2297,4.2297,4.2297,4.2297,4.2297,4.2432,4.2642,4.2948,4.325,4.3538,4.3804,4.3923,4.4005,4.4005,4.4005,4.4005,4.4005,4.4005,4.4005,4.4005,4.4005,4.4005,4.4005,4.4005,4.4005,4.4005,4.4005,4.4005,4.4005,4.4005,4.4005,4.4013,4.4124,4.4259,4.443,4.4558,4.4699,4.4783,4.4646,4.4544,4.4454]}]]